[[{"header":{"parameterUnit":"m.s-1","parameterCategory":1,"la1":30.6,"la2":29.2853,"lo1":-89.7004,"lo2":-87.6739,"dy":0.0162,"dx":0.0183,"nx":112,"ny":82,"refTime":"2026-05-16T12:00:00:Z","depth":0,"parameterNumber":2,"parameterNumberName":"U-component_of_WINDS"},"data":[0.0,0.0,0.0,0.0,0.0,0.0,0.0,0.0,0.0,0.0,0.0,0.0,0.0,0.0,0.0,0.0,0.0,0.0,0.0,0.0,0.0,0.0,0.0,0.0,0.0,0.0,0.0,0.0,0.0,0.0,0.0,0.0,0.0,0.0,0.0,0.0,0.0,0.0,0.0,0.0,0.0,0.0,0.0,0.0,0.0,0.0,0.0,0.0,0.0,0.0,0.0,0.0,0.0,0.0,0.0,0.0,0.0,0.0,0.0,0.0,0.0,0.0,0.0,0.0,0.0,0.0,0.0,0.0,0.0,0.0,0.0,0.0,0.0,0.0,0.0,0.0,0.0,0.0,0.0,0.0,0.0,0.0,0.0,0.0,0.0,0.0,0.0,0.0,0.0,0.0,-5.2972,-5.3212,-5.4507,-5.543,-5.5501,-5.5816,-5.4546,-5.1232,0.0,0.0,0.0,0.0,0.0,0.0,0.0,0.0,0.0,0.0,0.0,0.0,0.0,0.0,0.0,0.0,0.0,0.0,0.0,0.0,0.0,0.0,0.0,0.0,0.0,0.0,0.0,0.0,0.0,0.0,0.0,0.0,0.0,0.0,0.0,0.0,0.0,0.0,0.0,0.0,0.0,0.0,0.0,0.0,0.0,0.0,0.0,0.0,0.0,0.0,0.0,0.0,0.0,0.0,0.0,0.0,0.0,0.0,0.0,0.0,0.0,0.0,0.0,0.0,0.0,0.0,0.0,0.0,0.0,0.0,0.0,0.0,0.0,0.0,0.0,0.0,0.0,0.0,0.0,0.0,0.0,0.0,0.0,0.0,0.0,0.0,0.0,0.0,0.0,0.0,0.0,0.0,0.0,0.0,0.0,0.0,0.0,0.0,0.0,0.0,0.0,0.0,0.0,0.0,-5.2406,-5.3738,-5.4209,-5.4619,-5.5139,-5.4209,-5.2766,-5.0792,0.0,0.0,0.0,0.0,0.0,0.0,0.0,0.0,0.0,0.0,0.0,0.0,0.0,0.0,0.0,0.0,0.0,0.0,0.0,0.0,0.0,0.0,0.0,0.0,0.0,0.0,0.0,0.0,0.0,0.0,0.0,0.0,0.0,0.0,0.0,0.0,0.0,0.0,0.0,0.0,0.0,0.0,0.0,0.0,0.0,0.0,0.0,0.0,0.0,0.0,0.0,0.0,0.0,0.0,0.0,0.0,0.0,0.0,0.0,0.0,0.0,0.0,0.0,0.0,0.0,0.0,0.0,0.0,0.0,0.0,0.0,0.0,0.0,0.0,0.0,0.0,0.0,0.0,0.0,0.0,0.0,0.0,0.0,0.0,0.0,0.0,0.0,0.0,0.0,0.0,0.0,0.0,0.0,0.0,0.0,0.0,0.0,0.0,0.0,0.0,0.0,0.0,0.0,-5.2215,-5.2793,-5.4392,-5.4285,-5.4215,-5.4492,-5.3844,-5.2477,-5.015,-4.9953,0.0,0.0,0.0,0.0,0.0,0.0,0.0,0.0,0.0,0.0,0.0,0.0,0.0,0.0,0.0,0.0,0.0,0.0,0.0,0.0,0.0,0.0,0.0,0.0,0.0,0.0,0.0,0.0,0.0,0.0,0.0,0.0,0.0,0.0,0.0,0.0,0.0,0.0,0.0,0.0,0.0,0.0,0.0,0.0,0.0,0.0,0.0,0.0,0.0,0.0,0.0,0.0,0.0,0.0,0.0,0.0,0.0,0.0,0.0,0.0,0.0,0.0,0.0,0.0,0.0,0.0,0.0,0.0,0.0,0.0,0.0,0.0,0.0,0.0,0.0,0.0,0.0,0.0,0.0,0.0,0.0,0.0,0.0,0.0,0.0,0.0,0.0,0.0,0.0,0.0,0.0,0.0,0.0,0.0,0.0,0.0,0.0,0.0,0.0,0.0,0.0,0.0,-5.2775,-5.3281,-5.4533,-5.4362,-5.412,-5.3916,-5.3443,-5.2083,-4.9521,-4.8889,0.0,0.0,0.0,0.0,0.0,0.0,0.0,0.0,0.0,0.0,0.0,0.0,0.0,0.0,0.0,0.0,0.0,0.0,0.0,0.0,0.0,0.0,0.0,0.0,0.0,0.0,0.0,0.0,0.0,0.0,0.0,0.0,0.0,0.0,0.0,0.0,0.0,0.0,0.0,0.0,0.0,0.0,0.0,0.0,0.0,0.0,0.0,0.0,0.0,0.0,0.0,0.0,0.0,0.0,0.0,0.0,0.0,0.0,0.0,0.0,0.0,0.0,0.0,0.0,0.0,0.0,0.0,0.0,0.0,0.0,0.0,0.0,0.0,0.0,0.0,0.0,0.0,0.0,0.0,0.0,0.0,0.0,0.0,0.0,0.0,0.0,0.0,0.0,0.0,0.0,0.0,0.0,0.0,0.0,0.0,0.0,0.0,0.0,0.0,0.0,0.0,0.0,-5.205,-5.3377,-5.3407,-5.4223,-5.4431,-5.3585,-5.2394,-5.09,-4.9151,-4.7729,0.0,0.0,0.0,0.0,0.0,0.0,0.0,0.0,0.0,0.0,0.0,0.0,0.0,0.0,0.0,0.0,0.0,0.0,0.0,0.0,0.0,0.0,0.0,0.0,0.0,0.0,0.0,0.0,0.0,0.0,0.0,0.0,0.0,0.0,0.0,0.0,0.0,0.0,0.0,0.0,0.0,0.0,0.0,0.0,0.0,0.0,0.0,0.0,0.0,0.0,0.0,0.0,0.0,0.0,0.0,0.0,0.0,0.0,0.0,0.0,0.0,0.0,0.0,0.0,0.0,0.0,0.0,0.0,0.0,0.0,0.0,0.0,0.0,0.0,0.0,0.0,0.0,0.0,0.0,0.0,0.0,0.0,0.0,0.0,0.0,0.0,0.0,0.0,0.0,0.0,0.0,0.0,0.0,0.0,0.0,0.0,0.0,0.0,0.0,0.0,0.0,0.0,-5.0713,-5.1745,-5.3079,-5.2799,-5.2359,-5.2023,-5.1531,-5.0212,-4.777,0.0,0.0,0.0,0.0,0.0,0.0,0.0,0.0,0.0,0.0,0.0,0.0,0.0,0.0,0.0,0.0,0.0,0.0,0.0,0.0,0.0,0.0,0.0,0.0,0.0,0.0,0.0,0.0,0.0,0.0,0.0,0.0,0.0,0.0,0.0,0.0,0.0,0.0,0.0,0.0,0.0,0.0,0.0,0.0,0.0,0.0,0.0,0.0,0.0,0.0,0.0,0.0,0.0,0.0,0.0,0.0,0.0,0.0,0.0,0.0,0.0,0.0,0.0,0.0,0.0,0.0,0.0,0.0,0.0,0.0,0.0,0.0,0.0,0.0,0.0,0.0,0.0,0.0,0.0,0.0,0.0,0.0,0.0,0.0,0.0,0.0,0.0,0.0,0.0,0.0,0.0,0.0,0.0,0.0,0.0,0.0,0.0,0.0,0.0,0.0,0.0,0.0,-4.8642,-4.9629,-5.0705,-5.233,-5.1855,-5.1367,-5.114,-5.0455,-4.9127,-4.6957,0.0,0.0,0.0,0.0,0.0,0.0,0.0,0.0,0.0,0.0,0.0,0.0,0.0,0.0,0.0,0.0,0.0,0.0,0.0,0.0,0.0,0.0,0.0,0.0,0.0,0.0,0.0,0.0,0.0,0.0,0.0,0.0,0.0,0.0,0.0,0.0,0.0,0.0,0.0,0.0,0.0,0.0,0.0,0.0,0.0,0.0,0.0,0.0,0.0,0.0,0.0,0.0,0.0,0.0,0.0,0.0,0.0,0.0,0.0,0.0,0.0,0.0,0.0,0.0,0.0,0.0,0.0,0.0,0.0,0.0,0.0,0.0,0.0,0.0,0.0,0.0,0.0,0.0,0.0,0.0,0.0,0.0,0.0,0.0,0.0,0.0,0.0,0.0,0.0,0.0,0.0,0.0,0.0,0.0,0.0,0.0,0.0,0.0,0.0,0.0,0.0,0.0,-4.6471,-4.8907,-5.0646,-5.0871,-5.1635,-5.1847,-5.1135,-4.9054,-4.7467,0.0,0.0,0.0,0.0,0.0,0.0,0.0,0.0,0.0,0.0,0.0,0.0,0.0,0.0,0.0,0.0,0.0,0.0,0.0,0.0,0.0,0.0,0.0,0.0,0.0,0.0,0.0,0.0,0.0,0.0,0.0,0.0,0.0,0.0,0.0,0.0,0.0,0.0,0.0,0.0,0.0,0.0,0.0,0.0,0.0,0.0,0.0,0.0,0.0,0.0,0.0,0.0,0.0,0.0,0.0,0.0,0.0,0.0,0.0,0.0,0.0,0.0,0.0,0.0,0.0,0.0,0.0,0.0,0.0,0.0,0.0,0.0,0.0,0.0,0.0,0.0,0.0,0.0,0.0,0.0,0.0,0.0,0.0,0.0,0.0,0.0,0.0,0.0,0.0,0.0,0.0,0.0,0.0,0.0,0.0,0.0,0.0,0.0,0.0,0.0,0.0,0.0,0.0,-4.537,-4.7405,-4.894,-4.9516,-4.9367,-4.9161,-4.8903,-4.7871,-4.6609,-4.5117,0.0,0.0,0.0,0.0,0.0,0.0,0.0,0.0,0.0,0.0,0.0,0.0,0.0,0.0,0.0,0.0,0.0,0.0,0.0,0.0,0.0,0.0,0.0,0.0,0.0,0.0,0.0,0.0,0.0,0.0,0.0,0.0,0.0,0.0,0.0,0.0,0.0,0.0,0.0,0.0,0.0,0.0,0.0,0.0,0.0,0.0,0.0,0.0,0.0,0.0,0.0,0.0,0.0,0.0,0.0,0.0,0.0,0.0,0.0,0.0,0.0,0.0,0.0,0.0,0.0,0.0,0.0,0.0,0.0,0.0,0.0,0.0,0.0,0.0,0.0,0.0,0.0,0.0,0.0,0.0,0.0,0.0,0.0,0.0,0.0,0.0,0.0,0.0,0.0,0.0,0.0,0.0,0.0,0.0,0.0,0.0,0.0,0.0,0.0,0.0,0.0,0.0,-4.4534,-4.6486,-4.8031,-4.8554,-4.825,-4.8007,-4.8007,-4.7156,-4.592,-4.4264,0.0,0.0,0.0,0.0,0.0,0.0,0.0,0.0,0.0,0.0,0.0,0.0,0.0,0.0,0.0,0.0,0.0,0.0,0.0,0.0,0.0,0.0,0.0,0.0,0.0,0.0,0.0,0.0,0.0,0.0,0.0,0.0,0.0,0.0,0.0,0.0,0.0,0.0,0.0,0.0,0.0,0.0,0.0,0.0,0.0,0.0,0.0,0.0,0.0,0.0,0.0,0.0,0.0,0.0,0.0,0.0,0.0,0.0,0.0,0.0,0.0,0.0,0.0,0.0,0.0,0.0,0.0,0.0,0.0,0.0,0.0,0.0,0.0,0.0,0.0,0.0,0.0,0.0,0.0,0.0,0.0,0.0,0.0,0.0,0.0,0.0,0.0,0.0,0.0,0.0,0.0,0.0,0.0,0.0,0.0,0.0,0.0,0.0,0.0,0.0,0.0,0.0,-4.3762,-4.5924,-4.7538,-4.7794,-4.788,-4.7922,-4.7922,-4.6769,-4.5425,-4.4022,0.0,0.0,0.0,0.0,0.0,0.0,0.0,0.0,0.0,0.0,0.0,0.0,0.0,0.0,0.0,0.0,0.0,0.0,0.0,0.0,0.0,0.0,0.0,0.0,0.0,0.0,0.0,0.0,0.0,0.0,0.0,0.0,0.0,0.0,0.0,0.0,0.0,0.0,0.0,0.0,0.0,0.0,0.0,0.0,0.0,0.0,0.0,0.0,0.0,0.0,0.0,0.0,0.0,0.0,0.0,0.0,0.0,0.0,0.0,0.0,-4.3847,-4.3591,0.0,0.0,0.0,0.0,0.0,0.0,0.0,0.0,0.0,0.0,0.0,0.0,0.0,0.0,0.0,0.0,0.0,0.0,0.0,0.0,0.0,0.0,0.0,0.0,0.0,0.0,0.0,0.0,0.0,0.0,0.0,0.0,0.0,0.0,0.0,0.0,0.0,0.0,0.0,0.0,-4.2263,-4.46,-4.6211,-4.627,-4.6989,-4.7439,-4.7439,-4.6689,-4.543,-4.3496,-4.2079,0.0,0.0,0.0,0.0,0.0,0.0,0.0,0.0,0.0,0.0,0.0,0.0,0.0,0.0,0.0,0.0,0.0,0.0,0.0,0.0,0.0,0.0,0.0,0.0,0.0,0.0,0.0,0.0,0.0,0.0,0.0,0.0,0.0,0.0,0.0,0.0,0.0,0.0,0.0,0.0,0.0,0.0,0.0,0.0,0.0,0.0,0.0,0.0,0.0,0.0,0.0,0.0,0.0,0.0,0.0,0.0,0.0,0.0,0.0,-4.4969,-4.4655,0.0,0.0,0.0,0.0,0.0,0.0,0.0,0.0,0.0,0.0,0.0,0.0,0.0,0.0,0.0,0.0,0.0,0.0,0.0,0.0,0.0,0.0,0.0,0.0,0.0,0.0,0.0,0.0,0.0,0.0,0.0,0.0,0.0,0.0,0.0,0.0,0.0,0.0,0.0,0.0,-4.1197,-4.3481,-4.5098,-4.5098,-4.5553,-4.5853,-4.5853,-4.5227,-4.4168,-4.2482,-4.1219,0.0,0.0,0.0,0.0,0.0,0.0,0.0,0.0,0.0,0.0,0.0,0.0,0.0,0.0,0.0,0.0,0.0,0.0,0.0,0.0,0.0,0.0,0.0,0.0,0.0,0.0,0.0,0.0,0.0,0.0,0.0,0.0,0.0,0.0,0.0,0.0,0.0,0.0,0.0,0.0,0.0,0.0,0.0,0.0,0.0,0.0,0.0,0.0,0.0,0.0,0.0,0.0,0.0,-4.5905,-4.5613,-4.6376,-4.5582,-4.5464,-4.5988,-4.6698,-4.6357,-4.5339,-4.5321,0.0,0.0,0.0,0.0,0.0,0.0,0.0,0.0,0.0,0.0,0.0,0.0,0.0,0.0,0.0,0.0,0.0,0.0,0.0,0.0,0.0,0.0,-3.9271,-3.9245,-3.9521,-3.9271,-3.736,0.0,0.0,0.0,0.0,0.0,0.0,0.0,0.0,0.0,0.0,0.0,-4.0399,-4.2552,-4.4031,-4.4031,-4.4219,-4.4312,-4.4312,-4.3788,-4.294,-4.1641,-4.0343,-3.8908,0.0,0.0,0.0,0.0,0.0,0.0,0.0,0.0,0.0,0.0,0.0,0.0,0.0,0.0,0.0,0.0,0.0,0.0,0.0,0.0,0.0,0.0,0.0,0.0,0.0,0.0,0.0,0.0,0.0,0.0,0.0,0.0,-4.6326,-4.5892,0.0,0.0,0.0,0.0,0.0,0.0,0.0,0.0,0.0,0.0,0.0,0.0,0.0,-4.466,-4.4463,-4.5827,-4.6527,-4.6485,-4.7147,-4.754,-4.7662,-4.754,-4.7529,-4.7604,-4.7734,0.0,-4.5454,-4.4978,0.0,0.0,0.0,0.0,0.0,0.0,0.0,0.0,0.0,0.0,0.0,0.0,0.0,0.0,0.0,0.0,0.0,0.0,0.0,0.0,0.0,0.0,-3.7962,-3.785,-3.7627,-3.7138,-3.6386,-3.7017,-3.7471,-3.6345,-3.6251,-3.6051,0.0,0.0,0.0,0.0,0.0,0.0,-3.9599,-4.1625,-4.2985,-4.2985,-4.3796,-4.4312,-4.4312,-4.4228,-4.3519,-4.1941,-4.0723,-3.9697,-3.8803,-3.7284,0.0,0.0,0.0,0.0,0.0,0.0,0.0,0.0,0.0,0.0,0.0,0.0,0.0,0.0,0.0,0.0,0.0,0.0,0.0,0.0,0.0,0.0,0.0,0.0,0.0,0.0,0.0,0.0,0.0,-4.5336,-4.5244,-4.5048,-4.5023,-4.4339,0.0,0.0,0.0,0.0,0.0,0.0,0.0,0.0,0.0,-4.3852,-4.4662,-4.4962,-4.4582,-4.565,-4.5876,-4.5214,-4.5732,-4.5923,-4.5923,-4.5923,-4.5923,-4.5923,-4.5677,-4.5158,-4.4532,-4.5137,-4.4718,-4.3623,0.0,0.0,0.0,0.0,-4.0947,-4.0141,-4.0507,-4.0475,-4.0098,-3.9013,0.0,0.0,0.0,0.0,0.0,0.0,0.0,-3.6491,-3.6719,-3.7206,-3.7644,-3.7644,-3.7747,-3.7586,-3.6782,-3.7009,-3.7019,-3.5743,-3.5793,-3.5727,-3.4861,-3.4455,0.0,0.0,0.0,-3.8096,-3.8585,-4.032,-4.1495,-4.1495,-4.1891,-4.2159,-4.2159,-4.2159,-4.1723,-4.0653,-4.0154,-3.9423,-3.8483,-3.7337,-3.6691,0.0,0.0,0.0,0.0,0.0,0.0,0.0,0.0,0.0,0.0,0.0,0.0,0.0,0.0,0.0,0.0,0.0,0.0,0.0,0.0,0.0,0.0,0.0,0.0,0.0,0.0,0.0,0.0,-4.4995,-4.5171,-4.4869,-4.5095,-4.4392,0.0,0.0,0.0,0.0,0.0,0.0,-4.2315,-4.2732,-4.3321,-4.4105,-4.4816,-4.5033,-4.4768,-4.5378,-4.5235,-4.443,-4.4568,-4.4545,-4.443,-4.443,-4.443,-4.4407,-4.3946,-4.3648,-4.3636,-4.4572,-4.4398,-4.3424,-4.296,-4.2152,-4.1268,-4.1268,-4.0632,-3.98,-4.0154,-4.0278,-4.008,-3.8752,-3.8195,-3.7758,-3.6122,0.0,0.0,0.0,0.0,-3.5613,-3.6331,-3.661,-3.6719,-3.6911,-3.7081,-3.7004,-3.6263,-3.624,-3.6096,-3.5212,-3.5431,-3.5445,-3.439,-3.3932,0.0,-3.4234,-3.61,-3.7551,-3.7781,-3.9371,-4.0517,-4.0517,-4.0517,-4.0517,-4.0517,-4.0517,-4.0312,-3.9876,-3.9697,-3.9186,-3.8367,-3.7804,-3.7006,-3.5833,0.0,0.0,0.0,0.0,0.0,0.0,0.0,0.0,0.0,0.0,0.0,0.0,0.0,0.0,0.0,0.0,0.0,0.0,0.0,0.0,0.0,0.0,0.0,0.0,0.0,0.0,0.0,0.0,0.0,-4.5573,-4.6376,0.0,0.0,0.0,0.0,-4.1076,-4.0665,-4.0495,-4.0541,-4.1954,-4.2821,-4.2867,-4.3897,-4.4426,-4.4405,-4.4978,-4.5001,-4.4587,-4.4979,-4.4956,-4.4587,-4.4587,-4.4587,-4.4541,-4.4101,-4.3594,-4.3111,-4.2598,-4.2045,-4.1468,-4.0379,-3.9951,-3.9808,-3.9891,-3.9831,-3.9839,-4.0403,-4.0586,-4.0402,-3.9099,-3.7684,-3.6426,-3.586,-3.5803,0.0,0.0,-3.5067,-3.4999,-3.4924,-3.4622,-3.4414,-3.4852,-3.431,-3.3663,-3.3601,-3.4104,-3.4781,-3.5306,-3.5382,-3.4981,-3.3684,0.0,-3.3433,-3.3459,-3.5112,-3.6677,-3.7429,-3.9245,-4.0517,-4.0517,-4.0517,-4.0517,-4.0517,-4.0517,-4.0491,-4.0465,-3.9927,-3.9594,-3.9543,-3.8981,-3.8162,-3.7057,-3.6468,0.0,0.0,0.0,0.0,0.0,0.0,0.0,0.0,0.0,0.0,0.0,0.0,0.0,0.0,0.0,0.0,0.0,0.0,0.0,0.0,0.0,0.0,0.0,0.0,0.0,0.0,0.0,0.0,-4.7054,-4.655,0.0,-4.4123,-4.2715,-4.1762,-4.1576,-4.1788,-4.2061,-4.2445,-4.2971,-4.3493,-4.3814,-4.4157,-4.412,-4.3572,-4.3438,-4.2872,-4.1779,-4.1628,-4.1478,-4.1305,-4.1305,-4.1305,-4.1284,-4.0789,-4.0487,-4.0294,-3.982,-4.0535,-4.1903,-4.1496,-4.0796,-3.9999,-4.0063,-3.9513,-3.8788,-3.8959,-3.9088,-3.8852,-3.7805,-3.6538,-3.5318,-3.5149,-3.4938,-3.4746,-3.4825,-3.4854,-3.4879,-3.4793,-3.4691,-3.4463,-3.3969,-3.3617,-3.3306,-3.3016,-3.3173,-3.3381,-3.3583,-3.4076,-3.4057,-3.316,-3.3057,-3.3205,-3.3526,-3.4811,-3.585,-3.6121,-3.7091,-3.8031,-3.8739,-3.8844,-3.898,-3.9449,-3.9474,-3.9474,-3.9474,-3.8512,-3.8128,-3.8472,-3.7287,-3.6108,-3.5057,-3.4459,-3.3315,0.0,0.0,0.0,0.0,0.0,0.0,0.0,0.0,0.0,0.0,0.0,0.0,0.0,0.0,0.0,0.0,0.0,0.0,0.0,0.0,0.0,0.0,0.0,0.0,0.0,-4.5389,-4.6241,-4.6387,-4.5868,-4.5096,-4.3993,-4.2472,-4.1609,-4.1609,-4.1551,-4.1726,-4.2033,-4.2208,-4.2428,-4.2826,-4.2826,-4.2522,-4.1952,-4.1652,-4.0848,-3.9695,-3.9461,-3.9247,-3.9103,-3.8965,-3.8965,-3.8924,-3.8405,-3.8268,-3.8382,-3.8094,-3.9123,-4.0817,-4.0817,-4.0322,-3.9517,-3.9517,-3.8946,-3.8171,-3.8005,-3.786,-3.7591,-3.6825,-3.5852,-3.4983,-3.4983,-3.4776,-3.459,-3.49,-3.4983,-3.4941,-3.4857,-3.4712,-3.4401,-3.3613,-3.3265,-3.3078,-3.2789,-3.2669,-3.2669,-3.2669,-3.3078,-3.3253,-3.2596,-3.2586,-3.2728,-3.3043,-3.4115,-3.4908,-3.5088,-3.5708,-3.6457,-3.7233,-3.734,-3.7445,-3.7721,-3.7724,-3.7702,-3.7531,-3.6764,-3.6493,-3.6848,-3.5782,-3.4785,-3.393,-3.3192,-3.1954,-3.0217,0.0,0.0,0.0,0.0,0.0,0.0,0.0,0.0,0.0,0.0,0.0,0.0,0.0,0.0,0.0,0.0,0.0,0.0,0.0,0.0,0.0,0.0,0.0,-4.2016,-4.3382,-4.407,-4.3524,-4.4389,-4.4617,-4.3481,-4.1924,-4.0979,-4.0979,-3.9791,-3.909,-3.909,-3.9493,-3.9714,-3.9714,-3.9714,-3.9656,-3.9566,-3.9545,-3.9306,-3.8786,-3.8876,-3.8697,-3.8269,-3.7948,-3.7811,-3.7771,-3.728,-3.728,-3.7549,-3.7549,-3.7837,-3.8191,-3.8191,-3.8191,-3.8191,-3.8191,-3.8171,-3.8088,-3.7653,-3.7177,-3.6637,-3.6203,-3.5728,-3.5356,-3.5356,-3.5356,-3.5356,-3.5356,-3.5356,-3.5252,-3.4859,-3.4403,-3.3948,-3.3472,-3.2979,-3.2669,-3.2669,-3.2669,-3.2669,-3.2669,-3.2669,-3.2525,-3.2091,-3.2008,-3.2008,-3.2008,-3.3023,0.0,-3.437,-3.5388,-3.6131,-3.6131,-3.6131,-3.5979,-3.5527,-3.5458,-3.5281,-3.4849,-3.4751,-3.4751,-3.4774,-3.4722,-3.444,-3.3907,-3.2872,-3.1769,-3.0671,0.0,0.0,0.0,0.0,0.0,0.0,0.0,0.0,0.0,0.0,0.0,0.0,0.0,0.0,0.0,0.0,0.0,0.0,0.0,0.0,0.0,-3.9952,-4.093,-4.2168,-4.3265,-4.4118,-4.4412,-4.3823,-4.3165,-4.2953,-4.1179,-4.0044,-4.0044,-3.9739,-3.9533,-3.9533,-3.9654,-3.9714,-3.9714,-3.9714,-3.9585,-3.9212,-3.8889,-3.8514,-3.8085,-3.7746,-3.7516,-3.7395,-3.7327,-3.726,-3.726,-3.7139,-3.7146,-3.7213,-3.7213,-3.728,-3.7435,-3.7971,-3.8191,-3.8191,-3.7904,-3.7412,-3.6841,-3.6719,-3.6172,-3.5567,-3.5382,-3.5037,-3.4673,-3.4673,-3.4673,-3.4673,-3.4673,-3.4673,-3.449,-3.374,-3.3436,-3.3212,-3.2441,-3.2177,-3.2018,-3.2018,-3.2248,-3.244,-3.244,-3.244,-3.2457,-3.2504,-3.2483,-3.2483,-3.2483,-3.2803,-3.3071,-3.3161,-3.348,-3.3987,-3.4858,-3.4969,-3.5077,-3.542,-3.5136,-3.486,-3.4722,-3.36,-3.316,-3.3568,-3.276,-3.2084,-3.1614,-3.0623,-3.0005,0.0,0.0,0.0,0.0,0.0,0.0,0.0,0.0,0.0,0.0,0.0,0.0,0.0,0.0,0.0,0.0,0.0,0.0,0.0,0.0,0.0,0.0,-3.9206,-3.9729,-4.0899,-4.1848,-4.2578,-4.2999,-4.2204,-4.172,-4.17,-4.039,-3.9518,-3.9518,-3.9373,-3.9208,-3.9208,-3.9208,-3.9208,-3.9208,-3.903,-3.8803,-3.8577,-3.8157,-3.7766,-3.7461,-3.7064,-3.6876,-3.6876,-3.6674,-3.6606,-3.6606,-3.6606,-3.6742,-3.6876,-3.6876,-3.6944,-3.7146,0.0,0.0,0.0,0.0,-3.6572,-3.6113,-3.5932,-3.5529,-3.5067,-3.4866,-3.4644,-3.4423,-3.4423,-3.4423,-3.4423,-3.4423,-3.4423,-3.4222,-3.3337,-3.3115,-3.2874,-3.2009,-3.1787,-3.1787,-3.1787,-3.196,-3.2076,-3.2076,-3.2076,0.0,-3.2326,-3.244,-3.2555,-3.2555,-3.2612,-3.2612,-3.2383,-3.2555,-3.2955,-3.3537,-3.3649,-3.3793,-3.3825,-3.3375,0.0,0.0,0.0,-3.1295,-3.1625,-3.1103,0.0,0.0,0.0,0.0,0.0,0.0,0.0,0.0,-3.0106,-2.9939,0.0,0.0,0.0,0.0,0.0,0.0,0.0,0.0,0.0,0.0,0.0,0.0,0.0,0.0,0.0,0.0,-3.8877,-3.834,-3.9101,-3.979,-4.0211,-4.0171,-4.0211,-4.0211,-4.0171,-3.9539,-3.9103,-3.9103,-3.8793,-3.8574,-3.8574,-3.8574,0.0,0.0,0.0,-3.7857,-3.7727,-3.7362,-3.7063,-3.6944,-3.6586,-3.6451,-3.6451,-3.6152,-3.6016,-3.6016,-3.6016,-3.6132,-3.6451,-3.6451,-3.6634,-3.6951,-3.6998,-3.6757,-3.6288,-3.5867,-3.5666,-3.5565,-3.51,0.0,0.0,-3.4418,-3.4298,-3.4298,-3.4298,-3.4298,-3.4298,-3.4298,-3.4258,-3.4037,-3.3195,-3.2955,-3.2694,-3.1872,-3.1672,-3.1672,-3.1672,-3.173,-3.173,-3.173,-3.173,-3.173,-3.1787,-3.2076,-3.2248,-3.2248,-3.244,-3.244,-3.1845,-3.2268,-3.2498,-3.2248,-3.244,0.0,-3.1676,-3.1131,-3.0683,-3.0242,-2.9786,-2.9554,-2.9554,-2.9784,-2.9784,-2.9554,-2.9554,-2.9554,-2.9554,-2.9237,-2.9079,-2.9059,-2.8553,-2.8391,0.0,0.0,0.0,0.0,0.0,0.0,0.0,0.0,0.0,0.0,0.0,0.0,0.0,0.0,0.0,-3.828,-3.8714,-3.9004,-3.918,-3.9347,-3.9303,-3.895,-3.9205,-3.9284,-3.895,-3.8779,-3.872,-3.872,-3.8647,-3.8574,-3.8574,-3.8574,-3.8574,-3.8574,-3.8144,-3.7715,-3.7375,-3.7014,-3.6583,-3.6219,-3.6152,0.0,-3.6084,-3.6016,-3.6016,-3.6016,-3.6016,-3.6016,-3.6084,-3.6084,-3.5955,-3.5776,-3.6356,-3.6276,-3.5958,-3.554,-3.5012,-3.4438,-3.4295,-3.4039,-3.3725,-3.3627,-3.3607,-3.3607,-3.3607,-3.3607,0.0,-3.3607,-3.3371,-3.2979,-3.2468,-3.2075,-3.1682,-3.1172,-3.1054,-3.1054,-3.1054,-3.1228,-3.1383,-3.1383,-3.1383,-3.1498,-3.173,-3.1845,-3.1903,-3.1903,-3.196,-3.1903,-3.1845,-3.1903,-3.196,-3.1903,-3.196,-3.194,-3.1782,-3.1035,-3.055,-3.0469,-2.9628,-2.9185,-2.9185,-2.9237,-2.9237,-2.9185,-2.9185,-2.9185,-2.9185,-2.9132,-2.8973,-2.8781,-2.8866,-2.8931,0.0,0.0,0.0,0.0,0.0,0.0,0.0,0.0,0.0,0.0,0.0,-3.7005,-3.7226,0.0,-3.8711,-3.916,-3.9414,-3.9629,-3.9824,-3.9492,-3.9043,-3.8633,-3.8945,-3.9043,-3.8613,-3.8574,-3.8574,-3.8574,-3.8574,-3.8574,-3.8574,-3.8574,-3.8574,-3.8574,-3.7949,-3.75,-3.7305,-3.666,-3.623,-3.6016,-3.6016,-3.6016,-3.6016,-3.6016,-3.6016,-3.6016,-3.6016,-3.6016,-3.6016,-3.6016,-3.5781,-3.5438,-3.5514,-3.5297,-3.491,-3.4477,-3.4054,-3.375,-3.375,-3.3613,-3.3418,-3.3418,-3.3418,-3.3418,-3.3418,-3.3418,-3.3379,-3.3164,-3.2949,-3.2656,-3.2012,-3.168,-3.1406,-3.0996,-3.0898,-3.0898,-3.0898,-3.0995,-3.1112,-3.1112,-3.1112,-3.117,-3.1344,-3.1344,-3.1402,-3.1498,-3.1492,-3.1331,-3.1045,-3.1094,-3.1067,-3.0897,-3.1067,-3.1167,-3.1217,-3.0638,-3.0058,-2.9619,-2.9287,-2.9026,-2.894,-2.9026,-2.9026,-2.8887,-2.8887,-2.8887,-2.8887,-2.8979,-2.853,-2.7638,-2.801,-2.8369,0.0,0.0,0.0,0.0,0.0,0.0,0.0,-3.5996,-3.6152,-3.7109,-3.7559,-3.8008,-3.8711,-3.918,-3.9687,-4.041,-4.0234,-4.0137,-4.0469,-3.9902,-3.9297,-3.8887,-3.8984,-3.8945,-3.8613,-3.8574,-3.8574,-3.8574,-3.8574,-3.8574,-3.8574,-3.8574,-3.8574,-3.8574,-3.7734,-3.7305,-3.7305,-3.6445,-3.6016,-3.6016,-3.6016,-3.6016,-3.6016,-3.6016,-3.6016,-3.6016,-3.6016,-3.6016,-3.6016,-3.6016,-3.5781,-3.5351,-3.4883,-3.4434,-3.4023,-3.3574,-3.3418,-3.3418,-3.3418,-3.3418,-3.3418,-3.3418,-3.3418,-3.3418,-3.3418,-3.3418,-3.334,-3.291,-3.2734,-3.25,-3.1719,-3.1445,-3.1309,-3.0976,-3.0704,-3.0587,-3.084,-3.0528,-3.0294,-3.0762,-3.047,-3.0216,-3.047,-3.0275,-3.0276,-3.0974,-3.1003,-3.0744,-3.0135,-3.0234,-3.0203,-2.998,-3.0127,-3.0302,-3.0356,-2.9816,-2.9231,-2.868,-2.8601,-2.8495,-2.8301,-2.8495,-2.8368,-2.7941,-2.8121,-2.8174,-2.7906,-2.8016,-2.7433,-2.6136,-2.6517,-2.7049,-3.5731,-3.5524,-3.5728,-3.5859,-3.5957,-3.6445,0.0,-3.8184,-3.8008,-3.9277,-3.957,-3.9629,-3.9726,-4.0098,-4.041,-4.0508,-4.0488,-4.0469,-4.0508,-4.043,-4.0215,-3.9805,-3.9101,-3.8633,-3.8574,-3.8574,-3.8574,-3.8574,-3.8574,-3.8574,-3.8574,-3.8574,-3.8574,-3.8574,-3.7734,-3.7305,-3.7305,-3.6445,-3.6016,-3.6016,-3.6016,-3.6016,-3.6016,-3.6016,-3.6016,-3.6016,-3.6016,-3.6016,-3.6016,-3.6016,-3.5781,-3.5351,-3.4883,-3.4434,-3.4023,-3.3574,-3.3418,-3.3418,-3.3418,-3.3418,-3.3418,-3.3418,-3.3418,-3.3418,-3.3418,-3.3418,-3.334,-3.291,-3.2519,-3.2129,-3.1641,-3.123,-3.0957,-3.0898,-2.9962,-2.9471,-3.0645,-2.9076,-2.8104,-3.047,-2.9016,-2.7804,-2.892,-2.792,-2.7746,-2.9968,-3.0291,-3.0172,-2.9744,-2.9721,-2.9682,-2.9626,-2.9682,-2.9545,-2.9156,-2.8123,-2.7731,-2.832,-2.7349,-2.6789,-2.6754,-2.6735,-2.6282,-2.5168,-2.6191,-2.6245,-2.5168,-2.5148,-2.5093,-2.4893,-2.4944,-2.5038,-3.6953,-3.668,-3.666,-3.7344,-3.75,-3.7812,-3.8945,-3.8926,-3.8965,-4.0039,-4.0254,-4.0332,-4.0586,-4.0781,-4.0898,-4.0898,-4.0898,-4.0898,-4.0898,-4.0684,-4.0371,-3.9941,-3.9336,-3.8945,-3.8945,-3.8711,-3.8574,-3.8574,-3.8574,-3.8574,-3.8574,-3.8574,-3.8457,-3.8203,-3.7617,-3.7187,-3.6934,-3.6328,-3.6016,-3.6016,-3.6016,-3.6016,-3.6016,-3.6016,-3.6016,-3.6016,-3.6016,-3.6016,-3.6016,-3.6016,-3.5605,-3.4961,-3.4766,-3.4297,-3.3672,-3.3496,-3.3418,-3.3418,-3.3418,-3.3418,-3.3418,-3.3418,-3.3418,-3.3418,-3.3418,-3.2829,-3.2042,-3.1445,-3.0587,-2.9694,-2.9059,-2.8768,-2.8641,-2.8641,-2.8224,-2.7966,-2.8522,-2.7744,-2.7323,-2.8403,-2.761,-2.6858,-2.7393,-2.6783,-2.651,-2.7314,-2.7391,-2.7337,-2.7173,-2.6936,-2.7013,-2.7694,-2.8031,-2.8012,-2.7524,-2.7326,-2.6903,-2.6245,-2.5735,-2.5461,-2.5461,-2.5461,-2.5223,-2.4727,-2.5168,-2.5168,-2.4727,-2.4967,-2.4631,-2.3743,-2.3957,-2.3545,-3.7383,-3.7441,-3.7617,-3.8242,-3.8672,-3.9043,-3.9473,-3.957,-3.9785,-4.0547,-4.0703,-4.0801,-4.1113,-4.1172,-4.1172,-4.1172,-4.1172,-4.1172,-4.1172,-4.0801,-4.041,-4.0098,-3.9551,-3.9199,-3.9199,-3.8828,-3.8574,-3.8574,-3.8574,-3.8574,-3.8574,-3.8574,-3.8437,-3.8105,-3.7578,-3.7148,-3.6855,-3.6289,-3.6016,-3.6016,-3.6016,-3.6016,-3.6016,-3.6016,-3.6016,-3.6016,-3.6016,-3.6016,-3.6016,-3.5898,-3.5469,-3.4863,-3.4629,-3.4141,-3.3594,-3.3476,-3.3418,-3.3418,-3.3418,-3.3418,-3.3418,-3.3418,-3.3418,-3.3355,-3.2956,-3.211,-3.1075,-2.9976,-2.8887,-2.7963,-2.721,-2.7021,-2.7021,-2.7021,-2.6719,-2.6598,-2.69,-2.6399,-2.6156,-2.684,-2.6174,-2.5549,-2.5906,-2.5344,-2.4713,-2.4408,-2.4277,-2.4494,-2.5099,-2.4898,-2.5003,-2.5899,-2.6002,-2.6056,-2.599,-2.6002,-2.5649,-2.4744,-2.4394,-2.4228,-2.4228,-2.4228,-2.4061,-2.3743,-2.4061,-2.4061,-2.3743,-2.4079,-2.3626,-2.2482,-2.2788,-2.2314,-3.6289,-3.6973,-3.791,-3.793,-3.8906,-3.9961,-4.0391,-4.0488,-4.0605,-4.1055,-4.1152,-4.1152,-4.1172,-4.1172,-4.1172,-4.1172,-4.1172,-4.1172,-4.1172,-4.0801,-4.0527,-4.0508,-3.9726,-3.9199,-3.9199,-3.8828,-3.8574,-3.8574,-3.8574,-3.8574,-3.8574,-3.8574,-3.8574,-3.8555,-3.7734,-3.7285,-3.7285,-3.6445,-3.6016,-3.6016,-3.6016,-3.6016,-3.6016,-3.6016,-3.6016,-3.6016,-3.6016,-3.6016,-3.5996,-3.5586,-3.5391,-3.5293,-3.4434,-3.4082,-3.4004,-3.3574,-3.3418,-3.3418,-3.3418,-3.3418,-3.3418,-3.3418,-3.3418,-3.3165,-3.1771,-3.1304,-3.0883,-2.8783,-2.8134,-2.7963,-2.721,-2.7021,-2.7021,-2.7021,-2.605,-2.5501,-2.6719,-2.501,-2.3961,-2.6537,-2.4664,-2.3095,-2.4427,-2.3121,-2.1818,-2.1818,-2.1538,-2.2157,-2.4411,-2.4727,-2.4727,-2.4727,-2.376,-2.3592,-2.4671,-2.376,-2.3592,-2.4616,-2.3631,-2.303,-2.303,-2.303,-2.2482,-2.1318,-2.2482,-2.2482,-2.1318,-2.1332,-2.1275,-2.1261,-2.1275,-2.1275,-3.6953,-3.7598,-3.8496,-3.9082,-3.9785,-4.043,-4.0859,-4.0957,-4.0918,-4.0781,-4.0742,-4.0664,-4.0371,-4.0547,-4.0742,-4.0742,-4.0976,-4.1172,-4.1172,-4.1055,-4.0742,-4.0176,-3.9844,-3.9434,-3.8848,-3.8652,-3.8574,-3.8574,-3.8574,-3.8574,-3.8574,-3.8574,-3.8437,-3.8164,-3.7598,-3.7168,-3.6875,-3.6309,-3.6016,-3.6016,-3.6016,-3.6016,-3.6016,-3.6016,-3.6016,-3.6016,-3.6016,-3.6016,-3.5996,-3.5566,-3.5215,-3.4883,-3.4297,-3.3887,-3.3633,-3.3476,-3.3418,-3.3418,-3.3418,-3.3418,-3.3228,-3.2301,-3.2027,-3.1707,-3.0354,-2.923,-2.8293,-2.713,-2.6168,-2.526,-2.4564,-2.4394,-2.4394,-2.4394,-2.4085,-2.3899,-2.4332,-2.3713,-2.3355,-2.427,-2.3292,-2.2451,-2.2917,-2.2082,-2.1379,-2.1379,-2.1276,-2.1489,-2.2256,-2.2369,-2.2692,-2.3463,-2.3255,-2.3143,-2.3519,-2.3199,-2.2805,-2.2425,-2.2044,-2.1816,-2.1816,-2.1816,-2.1588,-2.1218,-2.1603,-2.1603,-2.1203,-2.1203,-2.1203,-2.1203,-2.1203,-2.1203,-3.748,-3.8047,-3.8789,-3.9668,-4.0215,-4.0644,-4.1074,-4.1055,-4.0859,-4.0586,-4.0273,-4.0019,-3.9922,-3.998,-4.0156,-4.0469,-4.0762,-4.0996,-4.1152,-4.0918,-4.0508,-3.9961,-3.9609,-3.9199,-3.8633,-3.8437,-3.8418,-3.8555,-3.8574,-3.8574,-3.8574,-3.8574,-3.8437,-3.8164,-3.7598,-3.7168,-3.6894,-3.6309,-3.6016,-3.6016,-3.6016,-3.6016,-3.6016,-3.6016,-3.6016,-3.6016,-3.6016,-3.6016,-3.5976,-3.5391,-3.4961,-3.4648,-3.4062,-3.3672,-3.3418,-3.3418,-3.3418,-3.3418,-3.3418,-3.3418,-3.3165,-3.1771,-3.1322,-3.0918,-2.9051,-2.7719,-2.6719,-2.5763,-2.4694,-2.3779,-2.3252,-2.3106,-2.3106,-2.3106,-2.3106,-2.3106,-2.3106,-2.3106,-2.3106,-2.3106,-2.2608,-2.2184,-2.2184,-2.1642,-2.1203,-2.1203,-2.1203,-2.1203,-2.1203,-2.1203,-2.1489,-2.2256,-2.2369,-2.2369,-2.2369,-2.2369,-2.2044,-2.1261,-2.1203,-2.1203,-2.1203,-2.1203,-2.1203,-2.1203,-2.1203,-2.1203,-2.1203,-2.1203,-2.1203,-2.1203,-2.1203,-2.1203,-3.7812,-3.8281,-3.8848,-3.9648,-4.0176,-4.0605,-4.1016,-4.0762,-4.0449,-4.043,-3.9746,-3.9258,-3.9687,-3.9453,-3.9473,-4.0312,-4.0508,-4.0703,-4.1113,-4.0469,-3.9941,-3.9902,-3.916,-3.8633,-3.8574,-3.8203,-3.8125,-3.8555,-3.8555,-3.8555,-3.8574,-3.8574,-3.8555,-3.8535,-3.7734,-3.7285,-3.7266,-3.6445,-3.6016,-3.6016,-3.6016,-3.6016,-3.6016,-3.6016,-3.6016,-3.6016,-3.6016,-3.6016,-3.5957,-3.5059,-3.4707,-3.4609,-3.375,-3.3418,-3.3418,-3.3418,-3.3355,-3.3292,-3.3292,-3.3292,-3.3019,-3.1579,-3.1111,-3.0595,-2.78,-2.6783,-2.6239,-2.4565,-2.3852,-2.3515,-2.3193,-2.3106,-2.3106,-2.3106,-2.3106,-2.3106,-2.3106,-2.3106,-2.3106,-2.3106,-2.2608,-2.2169,-2.214,-2.1613,-2.1203,-2.1203,-2.1203,-2.1203,-2.1203,-2.1203,-2.1203,-2.1203,-2.1203,-2.1203,-2.1203,-2.1203,-2.1203,-2.1203,-2.1203,-2.1203,-2.1203,-2.1203,-2.1203,-2.1203,-2.1203,-2.1203,-2.1203,-2.1203,-2.1203,-2.1203,-2.1203,-2.1203,-3.7988,-3.873,-3.9531,-3.9414,-3.9726,-4.0078,-4.0195,-3.9863,-3.9453,-3.9141,-3.8633,-3.8184,-3.7988,-3.8633,-3.9277,-3.9492,-4.0371,-4.1055,-4.1152,-4.0996,-4.0605,-3.998,-3.9687,-3.9297,-3.8633,-3.8476,-3.8457,-3.8574,-3.8281,-3.8223,-3.8555,-3.8574,-3.8418,-3.8105,-3.7578,-3.7148,-3.6836,-3.6289,-3.6016,-3.6016,-3.6016,-3.6016,-3.6016,-3.6016,-3.6016,-3.6016,-3.6016,-3.6016,-3.5957,-3.5059,-3.4707,-3.4609,-3.375,-3.3418,-3.3418,-3.3418,-3.2765,-3.1835,-3.1835,-3.1835,-3.1451,-2.8969,-2.8196,-2.7949,-2.6167,-2.5419,-2.5024,-2.4304,-2.3852,-2.3515,-2.3193,-2.3106,-2.3106,-2.3106,-2.3106,-2.3106,-2.3106,-2.3106,-2.3106,-2.3106,-2.2608,-2.2023,-2.154,-2.132,-2.1203,-2.1203,-2.1203,-2.1203,-2.1203,-2.1203,-2.1203,-2.1203,-2.1203,-2.1203,-2.1203,-2.1203,-2.1203,-2.1203,-2.1203,-2.1203,-2.1203,-2.1203,-2.1203,-2.1203,-2.1203,-2.1203,-2.1203,-2.1203,-2.1203,-2.1203,-2.1203,-2.1203,-3.8555,-3.9023,-3.9531,-3.9258,-3.9394,-3.9551,-3.9355,-3.9121,-3.8691,-3.791,-3.7539,-3.7305,-3.707,-3.791,-3.8769,-3.9141,-4.0156,-4.0957,-4.1152,-4.1016,-4.0703,-4.0234,-3.9824,-3.9394,-3.8906,-3.8516,-3.8359,-3.8555,-3.8359,-3.832,-3.8555,-3.8398,-3.8184,-3.793,-3.7344,-3.6816,-3.6387,-3.6152,-3.6016,-3.6016,-3.6016,-3.6016,-3.6016,-3.6016,-3.6016,-3.6016,-3.6016,-3.6016,-3.5957,-3.5059,-3.4707,-3.4609,-3.375,-3.3418,-3.3355,-3.2702,-3.1982,-3.1111,-2.9882,-2.9492,-2.923,-2.7602,-2.7153,-2.6902,-2.5524,-2.473,-2.432,-2.413,-2.3749,-2.334,-2.3164,-2.3106,-2.3106,-2.3106,-2.3106,-2.3106,-2.3106,-2.3106,-2.3032,-2.2754,-2.2418,-2.1979,-2.132,-2.1203,-2.1203,-2.1203,-2.1203,-2.1203,-2.1203,-2.1203,-2.1203,-2.1203,-2.1203,-2.1203,-2.1203,-2.1203,-2.1203,-2.1203,-2.1203,-2.1203,-2.1203,-2.1203,-2.1203,-2.1203,-2.1203,-2.1203,-2.1203,-2.1203,-2.1203,-2.1203,-2.1203,-2.1203,-3.9316,-3.9297,-3.9277,-3.9219,-3.9121,-3.8926,-3.8496,-3.832,-3.793,-3.6816,-3.6543,-3.6523,-3.6582,-3.7266,-3.8125,-3.8984,-3.9863,-4.0605,-4.1113,-4.084,-4.0586,-4.0527,-3.9844,-3.9336,-3.9219,-3.8535,-3.8223,-3.8555,-3.8574,-3.8574,-3.8574,-3.8164,-3.7871,-3.7754,-3.6992,-3.6406,-3.6016,-3.6016,-3.6016,-3.6016,-3.6016,-3.6016,-3.6016,-3.6016,-3.6016,-3.6016,-3.6016,-3.6016,-3.5957,-3.5059,-3.4707,-3.4609,-3.375,-3.3292,-3.2956,-3.1771,-3.1047,-3.0401,-2.7932,-2.6953,-2.682,-2.682,-2.682,-2.662,-2.5442,-2.4598,-2.4086,-2.4086,-2.3618,-2.3106,-2.3106,-2.3106,-2.3106,-2.3106,-2.3106,-2.3106,-2.3106,-2.3106,-2.293,-2.2301,-2.2184,-2.1979,-2.132,-2.1203,-2.1203,-2.1203,-2.1203,-2.1203,-2.1203,-2.1203,-2.1203,-2.1203,-2.1203,-2.1203,-2.1203,-2.1203,-2.1203,-2.1203,-2.1203,-2.1203,-2.1203,-2.1203,-2.1203,-2.1203,-2.1203,-2.1203,-2.1203,-2.1203,-2.1203,-2.1203,-2.1203,-2.1203,-3.9863,-3.9766,-3.9687,-3.9297,-3.8672,-3.8027,-3.7617,-3.6973,-3.6406,-3.6172,-3.5859,-3.5723,-3.6074,-3.6836,-3.7676,-3.8535,-3.9434,-4.0273,-4.1055,-4.1113,-4.0918,-4.0566,-4.0391,-4.0,-3.9277,-3.9062,-3.8867,-3.8594,-3.8574,-3.8574,-3.8574,-3.8164,-3.7598,-3.6914,-3.6406,-3.6094,-3.6016,-3.6016,-3.6016,-3.6016,-3.6016,-3.6016,-3.6016,-3.6016,-3.6016,-3.6016,-3.6016,-3.6016,-3.5957,-3.5059,-3.4707,-3.4609,-3.375,-3.2702,-3.1643,-3.1387,-2.9817,-2.7734,-2.7286,-2.6368,-2.5457,-2.5457,-2.5457,-2.539,-2.5187,-2.4598,-2.4086,-2.4086,-2.3618,-2.3106,-2.3106,-2.3106,-2.3106,-2.3106,-2.3106,-2.3106,-2.3106,-2.3106,-2.293,-2.2301,-2.2184,-2.1979,-2.132,-2.1203,-2.1203,-2.1203,-2.1203,-2.1203,-2.1203,-2.1203,-2.1203,-2.1203,-2.1203,-2.1203,-2.1203,-2.1203,-2.1203,-2.1203,-2.1203,-2.1203,-2.1203,-2.1203,-2.1203,-2.1203,-2.1203,-2.1203,-2.1203,-2.1203,-2.1203,-2.1203,-2.1203,-2.1203,-4.0625,-4.0391,-4.0059,-3.9375,-3.873,-3.7988,-3.6875,-3.6309,-3.582,-3.5156,-3.5215,-3.5371,-3.5332,-3.6406,-3.7363,-3.7559,-3.8496,-3.9512,-4.0391,-4.0508,-4.0605,-4.084,-4.0664,-4.0273,-3.9629,-3.9336,-3.9023,-3.8613,-3.8574,-3.8574,-3.8574,-3.8164,-3.7637,-3.7012,-3.6582,-3.6348,-3.6348,-3.6133,-3.6016,-3.6016,-3.6016,-3.6016,-3.6016,-3.6016,-3.6016,-3.6016,-3.6016,-3.6016,-3.5976,-3.5332,-3.4922,-3.4629,-3.4004,-3.2765,-3.1194,-3.0484,-2.892,-2.702,-2.6301,-2.5644,-2.5119,-2.5119,-2.5119,-2.5119,-2.5119,-2.4598,-2.4086,-2.4086,-2.3618,-2.3106,-2.3106,-2.3106,-2.3106,-2.3106,-2.3106,-2.3106,-2.3106,-2.3106,-2.2974,-2.2506,-2.2418,-2.2213,-2.1569,-2.1467,-2.1408,-2.1233,-2.1203,-2.1203,-2.1203,-2.1203,-2.1203,-2.1203,-2.1203,-2.1203,-2.1203,-2.1203,-2.1203,-2.1203,-2.1203,-2.1203,-2.1203,-2.1203,-2.1203,-2.1203,-2.1203,-2.1203,-2.1203,-2.1203,-2.1203,-2.1203,-2.1203,-2.1203,-4.1172,-4.0859,-4.0332,-3.9551,-3.8887,-3.8008,-3.6387,-3.5879,-3.5449,-3.4414,-3.4766,-3.5195,-3.5019,-3.6035,-3.6875,-3.6816,-3.7578,-3.8574,-3.9726,-3.9902,-4.0215,-4.1074,-4.0879,-4.0449,-3.9941,-3.957,-3.9141,-3.8613,-3.8574,-3.8535,-3.8437,-3.8027,-3.7598,-3.7168,-3.6758,-3.6523,-3.6523,-3.6191,-3.6016,-3.6016,-3.6016,-3.6016,-3.6016,-3.6016,-3.6016,-3.6016,-3.6016,-3.6016,-3.5976,-3.5469,-3.5019,-3.4648,-3.4141,-3.2668,-3.0743,-2.9639,-2.8131,-2.6501,-2.5457,-2.5119,-2.5119,-2.5119,-2.5119,-2.5119,-2.5119,-2.4598,-2.4086,-2.4086,-2.3618,-2.3106,-2.3106,-2.3106,-2.3106,-2.3106,-2.3106,-2.3106,-2.3106,-2.3106,-2.3018,-2.2681,-2.2623,-2.2447,-2.1891,-2.1745,-2.1613,-2.135,-2.1262,-2.1203,-2.1203,-2.1203,-2.1203,-2.1203,-2.1203,-2.1203,-2.1203,-2.1203,-2.1203,-2.1203,-2.1203,-2.1203,-2.1203,-2.1203,-2.1203,-2.1203,-2.1276,-2.132,-2.132,-2.1379,-2.1423,-2.1423,-2.1423,-2.1423,-4.1172,-4.0859,-4.041,-3.9941,-3.8906,-3.7637,-3.6328,-3.5391,-3.4785,-3.4668,-3.4707,-3.5,-3.5762,-3.5723,-3.5937,-3.7051,-3.7012,-3.7559,-3.9609,-3.9902,-4.0215,-4.1074,-4.1133,-4.0801,-3.998,-3.9863,-3.9473,-3.8633,-3.8574,-3.8398,-3.8008,-3.7578,-3.7168,-3.6738,-3.6309,-3.6074,-3.6074,-3.6035,-3.6016,-3.6016,-3.6016,-3.6016,-3.6016,-3.6016,-3.6016,-3.6016,-3.6016,-3.6016,-3.5957,-3.5117,-3.4746,-3.4609,-3.3809,-3.1827,-2.9378,-2.9248,-2.7551,-2.5255,-2.5119,-2.5119,-2.5119,-2.5119,-2.5119,-2.5119,-2.5119,-2.4598,-2.4086,-2.4086,-2.3618,-2.3106,-2.3106,-2.3106,-2.3106,-2.3106,-2.3106,-2.3106,-2.3106,-2.3106,-2.3018,-2.2681,-2.2623,-2.252,-2.2198,-2.1891,-2.1686,-2.1657,-2.1393,-2.1203,-2.1203,-2.1203,-2.1203,-2.1203,-2.1203,-2.1203,-2.1203,-2.1203,-2.1203,-2.1203,-2.1203,-2.1203,-2.1203,-2.1203,-2.1203,-2.1203,-2.1496,-2.1657,-2.1657,-2.195,-2.2096,-2.2096,-2.2096,-2.2096,-4.1348,-4.123,-4.0762,-4.0078,-3.9101,-3.7988,-3.6699,-3.5742,-3.5117,-3.5117,-3.5117,-3.5137,-3.5215,-3.5312,-3.5469,-3.5703,-3.582,-3.6465,-3.8105,-3.834,-3.8848,-4.0234,-4.0156,-3.9961,-3.9902,-3.9648,-3.9219,-3.8613,-3.8574,-3.8379,-3.7949,-3.7773,-3.7598,-3.7422,-3.6758,-3.6406,-3.6406,-3.6152,-3.6016,-3.6016,-3.6016,-3.6016,-3.6016,-3.6016,-3.6016,-3.6016,-3.6016,-3.6016,-3.5976,-3.5371,-3.4961,-3.4563,-3.3119,-3.1172,-2.9117,-2.8262,-2.6769,-2.5119,-2.5119,-2.5119,-2.5119,-2.5119,-2.5119,-2.5119,-2.5119,-2.4598,-2.4086,-2.4086,-2.3618,-2.3106,-2.3106,-2.3106,-2.3106,-2.3106,-2.3106,-2.3106,-2.3106,-2.3106,-2.3076,-2.2945,-2.2915,-2.2813,-2.2506,-2.2198,-2.1993,-2.1993,-2.1715,-2.1496,-2.1496,-2.1496,-2.1423,-2.1233,-2.1203,-2.1203,-2.1203,-2.1203,-2.1203,-2.1203,-2.1203,-2.1203,-2.1203,-2.1203,-2.1203,-2.1203,-2.1525,-2.1701,-2.1701,-2.2023,-2.2184,-2.2184,-2.2184,-2.2184,-4.1152,-4.1308,-4.0976,-4.0117,-3.9238,-3.8242,-3.6953,-3.6016,-3.5391,-3.5391,-3.5293,-3.5137,-3.4941,-3.5059,-3.5078,-3.4746,-3.5098,-3.5801,-3.6953,-3.7226,-3.7851,-3.9336,-3.9219,-3.9141,-3.9473,-3.9219,-3.8887,-3.8594,-3.8574,-3.8379,-3.7949,-3.7812,-3.7676,-3.7559,-3.6855,-3.6484,-3.6484,-3.6172,-3.6016,-3.6016,-3.6016,-3.6016,-3.6016,-3.6016,-3.6016,-3.6016,-3.6016,-3.6016,-3.5976,-3.543,-3.5,-3.4517,-3.2572,-3.0734,-2.9051,-2.7602,-2.6234,-2.5119,-2.5119,-2.5119,-2.5119,-2.5119,-2.5061,-2.4987,-2.4987,-2.4525,-2.4086,-2.4086,-2.3618,-2.3106,-2.3106,-2.3106,-2.3106,-2.3106,-2.3106,-2.3106,-2.3106,-2.3106,-2.3106,-2.3106,-2.3106,-2.3032,-2.2798,-2.252,-2.2315,-2.2315,-2.2037,-2.1832,-2.1832,-2.1832,-2.1759,-2.1525,-2.1408,-2.132,-2.1218,-2.1306,-2.1306,-2.1218,-2.1306,-2.1306,-2.1218,-2.1306,-2.135,-2.135,-2.1759,-2.1964,-2.1964,-2.2301,-2.2462,-2.2462,-2.2462,-2.2462,-4.041,-4.084,-4.0976,-4.0117,-3.9238,-3.8242,-3.6953,-3.6016,-3.5391,-3.5391,-3.5019,-3.4844,-3.5293,-3.5019,-3.4707,-3.4707,-3.5098,-3.5703,-3.6562,-3.7031,-3.7617,-3.8496,-3.8594,-3.8574,-3.8594,-3.8594,-3.8574,-3.8574,-3.8574,-3.8379,-3.7949,-3.7539,-3.7109,-3.6699,-3.625,-3.6035,-3.6035,-3.6016,-3.6016,-3.6016,-3.6016,-3.6016,-3.6016,-3.6016,-3.6016,-3.6016,-3.6016,-3.6016,-3.5957,-3.5059,-3.4707,-3.4478,-3.2235,-3.0419,-2.9051,-2.7602,-2.6234,-2.5119,-2.5119,-2.5119,-2.5119,-2.5119,-2.4899,-2.4635,-2.4635,-2.4349,-2.4086,-2.4086,-2.3618,-2.3106,-2.3106,-2.3106,-2.3106,-2.3106,-2.3106,-2.3106,-2.3106,-2.3106,-2.3106,-2.3106,-2.3106,-2.3106,-2.3106,-2.2828,-2.2623,-2.2623,-2.2374,-2.2184,-2.2184,-2.2184,-2.2169,-2.2169,-2.1876,-2.1569,-2.1233,-2.1511,-2.1554,-2.1233,-2.1511,-2.154,-2.1218,-2.1525,-2.1686,-2.1686,-2.2301,-2.2608,-2.2608,-2.2945,-2.3106,-2.3106,-2.3106,-2.3106,-3.9082,-3.9492,-3.9609,-3.8769,-3.8125,-3.7519,-3.6816,-3.623,-3.582,-3.582,-3.5469,-3.5117,-3.4941,-3.457,-3.4355,-3.4648,-3.4824,-3.5234,-3.6094,-3.6601,-3.7187,-3.8027,-3.8652,-3.8887,-3.8613,-3.8574,-3.8574,-3.8574,-3.8574,-3.8262,-3.7539,-3.7363,-3.7109,-3.668,-3.625,-3.6016,-3.6016,-3.6016,-3.6016,-3.6016,-3.6016,-3.6016,-3.6016,-3.6016,-3.6016,-3.6016,-3.6016,-3.6016,-3.5957,-3.5059,-3.4707,-3.4413,-3.1114,-2.9574,-2.892,-2.6568,-2.5457,-2.5119,-2.5119,-2.5119,-2.509,-2.487,-2.4723,-2.4525,-2.4305,-2.4013,-2.3706,-2.3471,-2.3267,-2.3106,-2.3106,-2.3106,-2.3106,-2.3106,-2.3106,-2.3106,-2.3106,-2.3106,-2.3106,-2.3106,-2.3106,-2.3106,-2.3106,-2.2842,-2.2696,-2.2915,-2.2681,-2.2476,-2.2476,-2.2476,-2.2403,-2.2198,-2.2096,-2.1993,-2.1876,-2.1759,-2.1745,-2.1862,-2.1979,-2.1979,-2.1876,-2.1979,-2.2023,-2.2023,-2.2418,-2.2623,-2.2623,-2.2945,-2.3106,-2.3106,-2.3106,-2.3106,-3.8164,-3.8633,-3.8789,-3.8105,-3.7617,-3.7187,-3.6758,-3.6328,-3.6016,-3.6016,-3.5547,-3.5039,-3.4746,-3.4355,-3.4101,-3.4199,-3.4629,-3.5098,-3.5469,-3.6191,-3.6914,-3.7598,-3.8301,-3.8613,-3.8359,-3.8476,-3.8496,-3.834,-3.832,-3.7949,-3.7109,-3.7051,-3.6875,-3.6445,-3.6152,-3.6016,-3.6016,-3.6016,-3.6016,-3.6016,-3.6016,-3.6016,-3.6016,-3.6016,-3.6016,-3.6016,-3.6016,-3.6016,0.0,-3.5059,-3.4707,-3.4347,-3.0657,-2.9182,-2.8854,-2.6115,-2.5119,-2.5119,-2.5119,-2.5119,-2.5075,-2.4738,-2.4408,-2.4145,-2.3808,-2.3662,-2.353,-2.3208,-2.3106,-2.3106,-2.3106,-2.3106,-2.3106,-2.3106,-2.3106,-2.3106,-2.3106,-2.3106,-2.3106,-2.3106,-2.3106,-2.3106,-2.3106,-2.2945,-2.2871,-2.3076,-2.293,-2.2798,-2.2798,-2.2798,-2.274,-2.255,-2.2418,-2.2403,-2.252,-2.2228,-2.2081,-2.2184,-2.2286,-2.2301,-2.2184,-2.2286,-2.2345,-2.2345,-2.2652,-2.2798,-2.2798,-2.3018,-2.3106,-2.3106,-2.3106,-2.3106,0.0,-3.8105,-3.834,-3.7891,-3.75,-3.7109,-3.6719,-3.6309,0.0,-3.5976,-3.5293,-3.4707,-3.4707,-3.4336,-3.3906,-3.3574,-3.4512,-3.5176,-3.4805,-3.5879,-3.6875,-3.7324,-3.7734,-3.7969,-3.7969,-3.8301,-3.8359,-3.7949,-3.7891,-3.7519,-3.6719,-3.668,-3.6465,-3.6035,-3.6016,-3.6016,-3.6016,-3.6016,-3.6016,-3.6016,-3.6016,-3.6016,-3.6016,-3.6016,-3.6016,-3.6016,-3.6016,-3.5996,-3.5918,-3.5059,-3.4687,-3.4309,-3.0657,-2.9182,-2.8854,-2.6115,-2.5119,-2.5119,-2.5119,-2.5105,-2.5031,-2.4679,-2.4071,-2.3501,-2.3208,-2.3325,-2.3501,-2.3193,-2.3106,-2.3106,-2.3106,-2.3106,-2.3106,-2.3106,-2.3106,-2.3106,-2.3106,-2.3106,-2.3106,-2.3106,-2.3106,-2.3106,-2.3106,-2.3106,-2.3106,-2.3106,-2.3106,-2.3106,-2.3106,-2.3106,-2.3106,-2.3106,-2.2842,-2.2784,-2.3091,-2.2813,-2.252,-2.2271,-2.2506,-2.2535,-2.2257,-2.2506,-2.2652,-2.2652,-2.2959,-2.3106,-2.3106,-2.3106,-2.3106,-2.3106,-2.3106,-2.3106,-3.6406,0.0,-3.7012,-3.6582,-3.6387,-3.6289,0.0,-3.6094,-3.5937,-3.5605,-3.5098,-3.4707,-3.4707,-3.4082,-3.375,-3.4316,-3.4394,-3.459,-3.5156,-3.6348,-3.7422,-3.8184,-3.8359,-3.8418,-3.8418,-3.8223,-3.8027,-3.793,-3.7617,-3.7226,-3.6699,-3.668,-3.6465,-3.6035,-3.6016,-3.6016,-3.6016,-3.6016,-3.6016,-3.6016,-3.6016,-3.6016,-3.6016,-3.6016,-3.6016,-3.6016,-3.6016,-3.584,-3.5488,-3.4922,-3.4512,-3.3902,-3.055,-2.9182,-2.8854,-2.6115,-2.5119,-2.5119,-2.5119,-2.4958,-2.4583,-2.4013,-2.3545,-2.3208,-2.3135,-2.3164,-2.3208,-2.3135,-2.3106,-2.3106,-2.3106,-2.3106,-2.3106,-2.3106,-2.3106,-2.3106,-2.3106,-2.3106,-2.3106,-2.3106,-2.3106,-2.3106,-2.3106,-2.3106,-2.3106,-2.3106,-2.3106,-2.3106,-2.3106,-2.3106,-2.3106,-2.3106,-2.3047,-2.3018,-2.3106,-2.2813,-2.2696,-2.2886,-2.2959,-2.2959,-2.2901,-2.2959,-2.2988,-2.2988,-2.3062,-2.3106,-2.3106,-2.3106,-2.3106,-2.3106,-2.3106,-2.3106,-3.6016,-3.6348,-3.6621,-3.6367,-3.6309,-3.6269,-3.6074,-3.5879,-3.5605,-3.5176,-3.4726,-3.4414,-3.4414,-3.4023,-3.3809,-3.4062,-3.4434,-3.498,-3.5859,-3.6738,-3.7539,-3.8203,-3.8457,-3.8496,-3.8301,-3.8066,-3.7773,-3.7383,-3.7148,-3.6816,-3.6387,-3.6367,-3.6269,-3.6035,-3.6016,-3.6016,-3.6016,-3.6016,-3.6016,-3.6016,-3.6016,-3.6016,-3.6016,-3.6016,-3.6016,-3.6016,-3.6016,-3.5781,-3.5351,-3.4883,-3.4042,-3.2841,-3.0253,-2.8789,-2.7998,-2.5913,-2.5119,-2.5119,-2.5119,-2.4811,-2.4262,-2.3764,-2.3369,-2.3106,-2.3106,-2.3106,-2.3106,-2.3106,-2.3106,-2.3106,-2.3106,-2.3106,-2.3106,-2.3106,-2.3106,-2.3106,-2.3106,-2.3106,-2.3106,-2.3106,-2.3106,-2.3106,-2.3106,-2.3106,-2.3106,-2.3106,-2.3106,-2.3106,-2.3106,-2.3106,-2.3106,-2.3106,-2.3106,-2.3106,-2.3106,-2.2945,-2.2915,-2.3091,-2.3106,-2.3106,-2.3106,-2.3106,-2.3106,-2.3106,-2.3106,-2.3106,-2.3106,-2.3106,-2.3106,-2.3106,-2.3106,-2.3106,-3.5898,-3.6289,-3.666,-3.6582,-3.6562,-3.6465,-3.6016,-3.5586,-3.5156,-3.4707,-3.4316,-3.4082,-3.416,-3.4121,-3.3984,-3.3769,-3.4668,-3.5664,-3.6465,-3.6934,-3.7383,-3.7871,-3.8242,-3.834,-3.7969,-3.7871,-3.75,-3.6738,-3.6601,-3.6406,-3.6035,-3.6016,-3.6016,-3.6016,-3.6016,-3.6016,-3.6016,-3.6016,-3.6016,-3.6016,-3.6016,-3.6016,-3.6016,-3.6016,-3.6016,-3.6016,-3.5957,-3.5684,-3.5254,-3.4785,-3.3554,-3.1705,-2.9909,-2.8328,-2.6953,-2.5577,-2.5119,-2.5105,-2.5017,-2.4606,-2.4027,-2.3647,-2.334,-2.3106,-2.3106,-2.3106,-2.3106,-2.3106,-2.3106,-2.3106,-2.3106,-2.3106,-2.3106,-2.3106,-2.3106,-2.3106,-2.3106,-2.3106,-2.3106,-2.3106,-2.3106,-2.3106,-2.3106,-2.3106,-2.3106,-2.3106,-2.3106,-2.3106,-2.3106,-2.3106,-2.3106,-2.3106,-2.3106,-2.3106,-2.3106,-2.3106,-2.3106,-2.3106,-2.3106,-2.3106,-2.3106,-2.3106,-2.3106,-2.3106,-2.3106,-2.3106,-2.3106,-2.3106,-2.3106,-2.3106,-2.3106,-2.3106,-3.5371,-3.6074,-3.6582,-3.6211,-3.6113,-3.6016,-3.5586,-3.5137,-3.4687,-3.4258,-3.4121,-3.418,-3.4531,-3.4316,-3.4297,-3.498,-3.5254,-3.5566,-3.6055,-3.6484,-3.7051,-3.7832,-3.7988,-3.7988,-3.793,-3.7598,-3.7187,-3.6699,-3.6328,-3.6094,-3.6016,-3.6016,-3.6016,-3.6016,-3.6016,-3.6016,-3.6016,-3.6016,-3.6016,-3.6016,-3.6016,-3.6016,-3.6016,-3.6016,-3.6016,-3.5996,-3.5644,-3.5234,-3.4766,-3.4336,-3.3115,-3.1285,-2.9787,-2.8328,-2.6953,-2.5577,-2.5119,-2.5046,-2.4423,-2.4174,-2.3984,-2.3384,-2.3149,-2.3106,-2.3106,-2.3106,-2.3106,-2.3106,-2.3106,-2.3106,-2.3106,-2.3106,-2.3106,-2.3106,-2.3106,-2.3106,-2.3106,-2.3106,-2.3106,-2.3106,-2.3106,-2.3106,-2.3106,-2.3106,-2.3106,-2.3106,-2.3106,-2.3106,-2.3106,-2.3106,-2.3106,-2.3106,-2.3106,-2.3106,-2.3106,-2.3106,-2.3106,-2.3106,-2.3106,-2.3106,-2.3106,-2.3106,-2.3106,-2.3106,-2.3106,-2.3106,-2.3106,-2.3106,-2.3106,-2.3106,-2.3106,-2.3106,-3.4961,-3.5644,-3.6269,-3.6074,-3.6543,-3.6875,-3.623,-3.5742,-3.5156,-3.4258,-3.4082,-3.4141,-3.4316,-3.459,-3.5078,-3.5937,-3.5879,-3.5801,-3.5996,-3.6387,-3.6816,-3.7207,-3.7441,-3.75,-3.7266,-3.707,-3.6777,-3.6348,-3.6133,-3.6016,-3.6016,-3.6016,-3.6016,-3.6016,-3.6016,-3.6016,-3.6016,-3.6016,-3.6016,-3.6016,-3.6016,-3.6016,-3.6016,-3.5781,-3.5684,-3.5664,-3.5215,-3.4766,-3.4336,-3.416,-3.255,-3.0095,-2.9444,-2.7883,-2.5913,-2.5322,-2.5119,-2.5061,-2.451,-2.4232,-2.4013,-2.353,-2.3252,-2.3106,-2.3106,-2.3106,-2.3106,-2.3106,-2.3106,-2.3106,-2.3106,-2.3106,-2.3106,-2.3106,-2.3106,-2.3106,-2.3106,-2.3106,-2.3106,-2.3106,-2.3106,-2.3106,-2.3106,-2.3106,-2.3106,-2.3106,-2.3106,-2.3106,-2.3106,-2.3106,-2.3106,-2.3106,-2.3106,-2.3106,-2.3106,-2.3106,-2.3106,-2.3106,-2.3106,-2.3106,-2.3106,-2.3106,-2.3106,-2.3106,-2.3106,-2.3106,-2.3106,-2.3106,-2.3106,-2.3106,-2.3106,-2.3106,-3.4531,-3.5117,-3.5742,-3.584,-3.6601,-3.7207,-3.6777,-3.6172,-3.5449,-3.457,-3.4375,-3.4375,-3.4375,-3.5019,-3.5762,-3.6406,-3.623,-3.6016,-3.6016,-3.6309,-3.6562,-3.666,-3.6953,-3.7031,-3.6699,-3.668,-3.6484,-3.6055,-3.6016,-3.6016,-3.6016,-3.6016,-3.6016,-3.6016,-3.6016,-3.6016,-3.6016,-3.5918,-3.5918,-3.6016,-3.5918,-3.5879,-3.5859,-3.543,-3.5234,-3.5215,-3.4746,-3.4375,-3.4062,-3.3965,-3.2069,-2.9182,-2.9182,-2.7551,-2.5119,-2.5119,-2.5119,-2.5075,-2.4753,-2.4349,-2.4027,-2.3706,-2.3369,-2.3106,-2.3106,-2.3106,-2.3106,-2.3106,-2.3106,-2.3106,-2.3106,-2.3106,-2.3106,-2.3106,-2.3106,-2.3106,-2.3106,-2.3106,-2.3106,-2.3106,-2.3106,-2.3106,-2.3106,-2.3106,-2.3106,-2.3106,-2.3106,-2.3106,-2.3106,-2.3106,-2.3106,-2.3106,-2.3106,-2.3106,-2.3106,-2.3106,-2.3106,-2.3106,-2.3106,-2.3106,-2.3106,-2.3106,-2.3106,-2.3106,-2.3106,-2.3106,-2.3106,-2.3106,-2.3106,-2.3106,-2.3106,-2.3106,-3.4004,-3.4453,-3.4902,-3.5332,-3.5508,-3.5762,-3.6504,-3.5703,-3.4883,-3.5234,-3.5293,-3.5293,-3.5293,-3.5664,-3.5996,-3.6055,-3.6035,-3.6016,-3.6016,-3.6055,-3.6211,-3.6621,-3.6699,-3.6699,-3.668,-3.668,-3.6484,-3.6055,-3.6016,-3.6016,-3.6016,-3.6016,-3.6016,-3.6016,-3.6016,-3.6016,-3.6016,-3.5625,-3.5625,-3.6016,-3.5625,-3.543,-3.543,-3.4961,-3.4746,-3.4726,-3.4297,-3.4101,-3.4043,-3.3633,-3.1744,-2.9182,-2.9182,-2.7551,-2.5119,-2.5119,-2.5119,-2.5075,-2.4753,-2.4349,-2.4027,-2.3706,-2.3369,-2.3106,-2.3106,-2.3106,-2.3106,-2.3106,-2.3106,-2.3106,-2.3106,-2.3106,-2.3106,-2.3106,-2.3106,-2.3106,-2.3106,-2.3106,-2.3106,-2.3106,-2.3106,-2.3106,-2.3106,-2.3106,-2.3106,-2.3106,-2.3106,-2.3106,-2.3106,-2.3106,-2.3106,-2.3106,-2.3106,-2.3106,-2.3106,-2.3106,-2.3106,-2.3106,-2.3106,-2.3106,-2.3106,-2.3106,-2.3106,-2.3106,-2.3106,-2.3106,-2.3106,-2.3106,-2.3106,-2.3106,-2.3106,-2.3106,-3.3633,-3.418,-3.4746,-3.4922,-3.5176,-3.5625,-3.6465,-3.6289,-3.5976,-3.6152,-3.5976,-3.5703,-3.5449,-3.5957,-3.6328,-3.6055,-3.625,-3.6328,-3.6055,-3.6016,-3.6074,-3.625,-3.6269,-3.6269,-3.6269,-3.6269,-3.6191,-3.6035,-3.6016,-3.6016,-3.6016,-3.6016,-3.6016,-3.6016,-3.6016,-3.5898,-3.5625,-3.5469,-3.5332,-3.5195,-3.5039,-3.4961,-3.4941,-3.4512,-3.4316,-3.4277,-3.3848,-3.3672,-3.3589,-3.2504,-3.0936,-2.9051,-2.7286,-2.6048,-2.5119,-2.5119,-2.5119,-2.5105,-2.4987,-2.4525,-2.4101,-2.4174,-2.3706,-2.3149,-2.3354,-2.3267,-2.3106,-2.3106,-2.3106,-2.3106,-2.3106,-2.3106,-2.3106,-2.3106,-2.3106,-2.3043,-2.2856,-2.2793,-2.2731,-2.2543,-2.248,-2.248,-2.248,-2.248,-2.248,-2.248,-2.248,-2.248,-2.248,-2.248,-2.2543,-2.2793,-2.2981,-2.3106,-2.3106,-2.3106,-2.3106,-2.3106,-2.3106,-2.3106,-2.3106,-2.3106,-2.3106,-2.3106,-2.3106,-2.3106,-2.3106,-2.3106,-2.3106,-2.3106,-2.3106,-2.3106,-3.3633,-3.4062,-3.4531,-3.4668,-3.4844,-3.5273,-3.6406,-3.668,-3.6738,-3.7012,-3.6504,-3.5976,-3.582,-3.6055,-3.6211,-3.6035,-3.6269,-3.6367,-3.6055,-3.6016,-3.6016,-3.6016,-3.6016,-3.6016,-3.6016,-3.6016,-3.6016,-3.6016,-3.6016,-3.6016,-3.6016,-3.6016,-3.6016,-3.6016,-3.5898,-3.5684,-3.5391,-3.5117,-3.4824,-3.4492,-3.4355,-3.4375,-3.4492,-3.4062,-3.3867,-3.3848,-3.3555,-3.3165,-3.2638,-3.1707,-3.0207,-2.8328,-2.5981,-2.5119,-2.5119,-2.5119,-2.5119,-2.5105,-2.5002,-2.4613,-2.4247,-2.4262,-2.3808,-2.3281,-2.3398,-2.3281,-2.3106,-2.3106,-2.3106,-2.3106,-2.3106,-2.3106,-2.3043,-2.2981,-2.2918,-2.2856,-2.248,-2.2418,-2.2355,-2.2167,-2.2104,-2.2104,-2.2104,-2.2104,-2.2104,-2.2104,-2.2104,-2.2104,-2.2104,-2.2104,-2.2167,-2.2418,-2.2731,-2.2918,-2.2918,-2.3043,-2.3106,-2.3106,-2.3106,-2.3106,-2.3106,-2.3106,-2.3106,-2.3106,-2.3106,-2.3106,-2.3106,-2.3106,-2.3106,-2.3106,-2.3106,-2.3106,-3.4062,-3.4062,-3.416,-3.459,-3.4394,-3.4551,-3.6289,-3.666,-3.6894,-3.7754,-3.6914,-3.6152,-3.6582,-3.5976,-3.5527,-3.5937,-3.6016,-3.6016,-3.6016,-3.6016,-3.6016,-3.6016,-3.6016,-3.6016,-3.6016,-3.6016,-3.6016,-3.6016,-3.6016,-3.6016,-3.6016,-3.6016,-3.6016,-3.6016,-3.5605,-3.5391,-3.5391,-3.4512,-3.4082,-3.4062,-3.3633,-3.3652,-3.4043,-3.3613,-3.3418,-3.3418,-3.3418,-3.2638,-3.1322,-3.1304,-2.9622,-2.6953,-2.5644,-2.5119,-2.5119,-2.5119,-2.5119,-2.5075,-2.4686,-2.4569,-2.4466,-2.3808,-2.3603,-2.353,-2.3208,-2.3106,-2.3106,-2.3106,-2.3106,-2.3106,-2.3106,-2.3106,-2.3043,-2.2668,-2.2606,-2.248,-2.2167,-2.2104,-2.2104,-2.2104,-2.2104,-2.2104,-2.2104,-2.2104,-2.2104,-2.2104,-2.2104,-2.2104,-2.2104,-2.2118,-2.2118,-2.2118,-2.2432,-2.262,-2.262,-2.2918,-2.3106,-2.3106,-2.3106,-2.3106,-2.3106,-2.3106,-2.3106,-2.3106,-2.3106,-2.3106,-2.3106,-2.3106,-2.3106,-2.3106,-2.3106,-2.3106,-3.2891,-3.3164,-3.3652,-3.3769,-3.4629,-3.5664,-3.6484,-3.6426,-3.6445,-3.7305,-3.7187,-3.6777,-3.6309,-3.6016,-3.5781,-3.5605,-3.582,-3.6016,-3.6016,-3.6016,-3.6016,-3.6016,-3.6016,-3.6016,-3.6016,-3.6016,-3.6016,-3.6016,-3.6016,-3.6016,-3.6016,-3.6016,-3.5879,-3.5586,-3.5449,-3.5098,-3.4473,-3.4199,-3.3926,-3.3613,-3.3476,-3.3496,-3.3613,-3.3476,-3.3418,-3.3418,-3.3418,-3.3165,-3.2638,-3.0613,-2.8196,-2.5644,-2.5255,-2.5119,-2.5119,-2.5119,-2.5119,-2.5037,-2.4665,-2.4558,-2.454,-2.4072,-2.3775,-2.3574,-2.3486,-2.3296,-2.3106,-2.3106,-2.3106,-2.3106,-2.3106,-2.3106,-2.3043,-2.2668,-2.2606,-2.2418,-2.1853,-2.174,-2.1677,-2.1425,-2.1425,-2.1425,-2.1425,-2.1425,-2.1425,-2.1425,-2.1425,-2.1425,-2.1425,-2.1792,-2.2185,-2.244,-2.2758,-2.3076,-2.3267,-2.3175,-2.3106,-2.3106,-2.3106,-2.3106,-2.3106,-2.3106,-2.3106,-2.3106,-2.3106,-2.3106,-2.3106,-2.3106,-2.3106,-2.3106,-2.3106,-2.3106,-3.3437,-3.3691,-3.4062,-3.459,-3.5371,-3.6172,-3.6777,-3.6973,-3.7129,-3.748,-3.7285,-3.6894,-3.6367,-3.5996,-3.5742,-3.5664,-3.5859,-3.6016,-3.6016,-3.6016,-3.6016,-3.6016,-3.6016,-3.6016,-3.6016,-3.6016,-3.6016,-3.6016,-3.6016,-3.5937,-3.5781,-3.5762,-3.5566,-3.5137,-3.4961,-3.4609,-3.4082,-3.3906,-3.3691,-3.3418,-3.3418,-3.3418,-3.3418,-3.3418,-3.3418,-3.3355,-3.2829,-3.2237,-3.1534,-2.9313,-2.7086,-2.5119,-2.5119,-2.5119,-2.5119,-2.5119,-2.4911,-2.4646,-2.4247,-2.4075,-2.394,-2.3551,-2.3422,-2.3383,-2.3379,-2.3267,-2.3106,-2.3106,-2.3106,-2.3106,-2.3106,-2.2981,-2.2793,-2.248,-2.2418,-2.223,-2.1551,-2.1425,-2.1362,-2.1172,-2.1109,-2.1109,-2.1109,-2.1109,-2.1109,-2.1109,-2.1203,-2.1283,-2.1283,-2.173,-2.2114,-2.2373,-2.2697,-2.2942,-2.3135,-2.2978,-2.2976,-2.3041,-2.3116,-2.3165,-2.3232,-2.3306,-2.3369,-2.3501,-2.3369,-2.331,-2.331,-2.3179,-2.3106,-2.3106,-2.3106,-2.3106,-3.4785,-3.4902,-3.5,-3.625,-3.6348,-3.6259,-3.6899,-3.7676,-3.8122,-3.7916,-3.7324,-3.6777,-3.6738,-3.6055,-3.5625,-3.5957,-3.6016,-3.6016,-3.6016,-3.6016,-3.6016,-3.6016,-3.6016,-3.6016,-3.6016,-3.6016,-3.6016,-3.6016,-3.5996,-3.5801,-3.541,-3.5351,-3.5117,-3.4668,-3.4277,-3.4062,-3.4023,-3.3613,-3.3418,-3.3418,-3.3418,-3.3418,-3.3418,-3.3418,-3.3418,-3.3355,-3.2046,-3.0613,-2.9117,-2.78,-2.6435,-2.5119,-2.5119,-2.5119,-2.5119,-2.5119,-2.4646,-2.4061,-2.3708,-2.3397,-2.3009,-2.2659,-2.2786,-2.3085,-2.3083,-2.3106,-2.3106,-2.3106,-2.3106,-2.3043,-2.3043,-2.2793,-2.248,-2.2104,-2.2041,-2.1866,-2.1235,-2.1109,-2.1109,-2.1109,-2.1109,-2.1109,-2.1109,-2.1136,-2.1162,-2.1189,-2.1416,-2.1655,-2.1655,-2.1844,-2.2017,-2.2097,-2.2347,-2.2545,-2.261,-2.2595,-2.2734,-2.3014,-2.3085,-2.3264,-2.3514,-2.3615,-2.3779,-2.4071,-2.3793,-2.3618,-2.3588,-2.3296,-2.3135,-2.3106,-2.3106,-2.3106,-3.2969,-3.3769,-3.4863,-3.5508,-3.6348,-3.67,-3.5417,-3.5226,-3.5843,-3.7565,-3.7773,-3.7559,-3.7226,-3.6738,-3.6309,-3.6055,-3.6016,-3.6016,-3.6016,-3.6016,-3.6016,-3.6016,-3.6016,-3.6016,-3.6016,-3.6016,-3.6016,-3.6016,-3.5723,-3.5488,-3.5391,-3.5039,-3.4648,-3.4219,-3.4121,-3.3906,-3.3555,-3.3476,-3.3418,-3.3418,-3.3418,-3.3418,-3.3418,-3.3418,-3.3418,-3.3355,-3.3082,-3.1534,-2.9182,-2.8854,-2.7286,-2.5119,-2.5119,-2.5119,-2.5119,-2.5119,-2.4646,-2.4023,-2.3686,-2.337,-2.2972,-2.2401,-2.2588,-2.3021,-2.2769,-2.2918,-2.3106,-2.3106,-2.2918,-2.2731,-2.2731,-2.248,-2.2104,-2.1803,-2.174,-2.1614,-2.1172,-2.1109,-2.1109,-2.1109,-2.1109,-2.1109,-2.1109,-2.1296,-2.1537,-2.1764,-2.1857,-2.1897,-2.1897,-2.2151,-2.2459,-2.2726,-2.2792,-2.2926,-2.3259,-2.3046,-2.2958,-2.3028,-2.3284,-2.3593,-2.3908,-2.3949,-2.4013,-2.4086,-2.4013,-2.3852,-2.3588,-2.353,-2.3354,-2.3106,-2.3106,-2.3106,-3.3281,-3.418,-3.5293,-3.6348,-3.6953,-3.7132,-3.6289,-3.5811,-3.593,-3.7364,-3.6632,-3.5721,-3.5798,-3.5857,-3.5858,-3.5986,-3.5879,-3.5811,-3.5947,-3.6016,-3.6016,-3.6016,-3.6016,-3.6016,-3.6016,-3.6016,-3.6016,-3.6016,-3.5625,-3.5293,-3.5078,-3.4648,-3.4199,-3.3769,-3.375,-3.3652,-3.3418,-3.3418,-3.3418,-3.3418,-3.3418,-3.3418,-3.3418,-3.3418,-3.3418,-3.3418,-3.3418,-3.179,-2.9182,-2.9182,-2.7551,-2.5119,-2.5119,-2.5119,-2.5119,-2.5119,-2.4477,-2.361,-2.3412,-2.2776,-2.2116,-2.1902,-2.2102,-2.2377,-2.2537,-2.2731,-2.2918,-2.3043,-2.2981,-2.2793,-2.2668,-2.2355,-2.2041,-2.1677,-2.1614,-2.1488,-2.1172,-2.1109,-2.1109,-2.1109,-2.1109,-2.1149,-2.1296,-2.1563,-2.1817,-2.1964,-2.2111,-2.2191,-2.2191,-2.2445,-2.27,-2.2903,-2.2903,-2.2971,-2.3174,-2.29,-2.2777,-2.2928,-2.3336,-2.3658,-2.3969,-2.4376,-2.4554,-2.4554,-2.4393,-2.4159,-2.3823,-2.3676,-2.3427,-2.3106,-2.3106,-2.3193,-3.3887,-3.4863,-3.5879,-3.7422,-3.7617,-3.739,-3.7209,-3.6656,-3.6208,-3.6327,-3.5095,-3.4086,-3.4458,-3.4864,-3.5272,-3.5831,-3.5675,-3.5606,-3.5947,-3.6016,-3.6016,-3.6016,-3.6016,-3.6016,-3.6016,-3.6016,-3.6016,-3.6016,-3.5566,-3.5098,-3.4726,-3.4238,-3.3789,-3.3437,-3.3418,-3.3418,-3.3418,-3.3418,-3.3418,-3.3418,-3.3418,-3.3418,-3.3418,-3.3418,-3.3418,-3.3355,-3.3165,-3.1598,-2.9182,-2.8852,-2.7272,-2.5031,-2.4973,-2.4987,-2.5031,-2.4973,-2.4222,-2.3159,-2.3037,-2.2208,-2.1235,-2.1425,-2.1551,-2.1677,-2.223,-2.248,-2.2668,-2.2918,-2.2981,-2.2856,-2.2606,-2.223,-2.1866,-2.1614,-2.1488,-2.1425,-2.1172,-2.1109,-2.1109,-2.1109,-2.1109,-2.1216,-2.1628,-2.183,-2.2017,-2.2124,-2.2338,-2.2498,-2.2498,-2.2712,-2.2928,-2.2928,-2.2928,-2.2928,-2.2928,-2.2632,-2.2605,-2.2983,-2.3377,-2.3753,-2.4088,-2.4713,-2.5119,-2.5119,-2.4855,-2.4496,-2.4174,-2.3896,-2.3574,-2.3193,-2.3252,-2.3398,-3.2441,-3.418,-3.6172,-3.7148,-3.7617,-3.7209,-3.4855,-3.4262,-3.3783,-3.2463,-3.4626,-3.6624,-3.6058,-3.5946,-3.5824,-3.5596,-3.5538,-3.5606,-3.5947,-3.6016,-3.6016,-3.6016,-3.6016,-3.6016,-3.6016,-3.6016,-3.6016,-3.6016,-3.5254,-3.4766,-3.4707,-3.3945,-3.3476,-3.3418,-3.3418,-3.3418,-3.3418,-3.3418,-3.3418,-3.3418,-3.3418,-3.3418,-3.3418,-3.3418,-3.3418,-3.3355,-3.211,-3.0678,-2.91,-2.7605,-2.6118,-2.4679,-2.432,-2.4393,-2.4598,-2.432,-2.3963,-2.3457,-2.2863,-2.2157,-2.1488,-2.1235,-2.1362,-2.1614,-2.174,-2.2167,-2.2606,-2.2668,-2.248,-2.223,-2.2167,-2.1677,-2.1235,-2.1172,-2.1172,-2.1172,-2.1109,-2.1109,-2.1109,-2.1109,-2.1109,-2.1283,-2.183,-2.1964,-2.2151,-2.2672,-2.2779,-2.2806,-2.2806,-2.2832,-2.2928,-2.2928,-2.2928,-2.2928,-2.2928,-2.2887,-2.2956,-2.3338,-2.3706,-2.4046,-2.4428,-2.4849,-2.5119,-2.5119,-2.5075,-2.4899,-2.451,-2.4466,-2.413,-2.3545,-2.3823,-2.3823,-3.3096,-3.4434,-3.5996,-3.7324,-3.7617,-3.7307,-3.6352,-3.5741,-3.5196,-3.45,-3.5552,-3.6224,-3.503,-3.4962,-3.513,-3.5165,-3.499,-3.5059,-3.5606,-3.5743,-3.5811,-3.5947,-3.6016,-3.6016,-3.6016,-3.6016,-3.5918,-3.5684,-3.5078,-3.459,-3.4355,-3.3769,-3.3418,-3.3418,-3.3418,-3.3418,-3.3418,-3.3418,-3.3418,-3.3418,-3.3418,-3.3418,-3.3418,-3.3418,-3.3418,-3.3355,-3.2765,-3.1194,-2.9165,-2.8271,-2.6579,-2.454,-2.4203,-2.4174,-2.4276,-2.413,-2.3645,-2.302,-2.2686,-2.2052,-2.1299,-2.1172,-2.1172,-2.1362,-2.1551,-2.1929,-2.2292,-2.2292,-2.2355,-2.2292,-2.1915,-2.1614,-2.1362,-2.1172,-2.1109,-2.1109,-2.1109,-2.1109,-2.1162,-2.1323,-2.1496,-2.1737,-2.2151,-2.2365,-2.2565,-2.2887,-2.2928,-2.2928,-2.2928,-2.2928,-2.2996,-2.3133,-2.2996,-2.2996,-2.3133,-2.2996,-2.3065,-2.3406,-2.3747,-2.4156,-2.451,-2.4916,-2.5119,-2.5119,-2.5119,-2.4958,-2.4569,-2.4393,-2.4057,-2.3588,-2.3559,-2.3662,-3.3421,-3.4219,-3.5273,-3.6875,-3.7207,-3.7226,-3.7539,-3.7129,-3.6669,-3.6565,-3.6258,-3.5635,-3.4394,-3.4418,-3.4784,-3.499,-3.4853,-3.4921,-3.5538,-3.5606,-3.5743,-3.5947,-3.6016,-3.6016,-3.6016,-3.6016,-3.584,-3.543,-3.4961,-3.4512,-3.4101,-3.3652,-3.3418,-3.3418,-3.3418,-3.3418,-3.3418,-3.3418,-3.3418,-3.3418,-3.3418,-3.3418,-3.3418,-3.3418,-3.3418,-3.3355,-3.3019,-3.1396,-2.9028,-2.8395,-2.6648,-2.4291,-2.3969,-2.3881,-2.3954,-2.3802,-2.3286,-2.2694,-2.2418,-2.1856,-2.1235,-2.1109,-2.1109,-2.1172,-2.1488,-2.1866,-2.2104,-2.2167,-2.2355,-2.2355,-2.1866,-2.1614,-2.1425,-2.1172,-2.1109,-2.1136,-2.1203,-2.1216,-2.1309,-2.1668,-2.1844,-2.2084,-2.2365,-2.2605,-2.2779,-2.2914,-2.2928,-2.2928,-2.2928,-2.2928,-2.2996,-2.327,-2.3065,-2.2996,-2.327,-2.3065,-2.3065,-2.3406,-2.3679,-2.4224,-2.5022,-2.5307,-2.5712,-2.6115,-2.61,-2.5613,-2.4569,-2.4714,-2.4501,-2.4082,-2.3933,-2.4302,-3.2255,-3.2891,-3.3848,-3.5195,-3.6113,-3.6719,-3.6738,-3.6699,-3.6562,-3.6103,-3.6055,-3.5899,-3.5508,-3.5421,-3.5489,-3.5489,-3.547,-3.5557,-3.5947,-3.5947,-3.5947,-3.6016,-3.6016,-3.6016,-3.6016,-3.6016,-3.584,-3.543,-3.4961,-3.4512,-3.4101,-3.3652,-3.3418,-3.3418,-3.3418,-3.3418,-3.3418,-3.3418,-3.3418,-3.3418,-3.3418,-3.3418,-3.3418,-3.3418,-3.3418,-3.3355,-3.1963,-3.0398,-2.87,-2.7049,-2.5244,-2.3618,-2.3281,-2.3354,-2.3525,-2.2889,-2.2835,-2.2922,-2.1991,-2.1628,-2.1551,-2.1172,-2.1109,-2.1172,-2.1488,-2.1866,-2.2167,-2.248,-2.2355,-2.2104,-2.2104,-2.1614,-2.1109,-2.1109,-2.1109,-2.1189,-2.1534,-2.1601,-2.1681,-2.1911,-2.1977,-2.2084,-2.2365,-2.2432,-2.2539,-2.2819,-2.2928,-2.2928,-2.2928,-2.2928,-2.2928,-2.2928,-2.2928,-2.2928,-2.2928,-2.2928,-2.3065,-2.3406,-2.3406,-2.4345,-2.6404,-2.6486,-2.727,-2.892,-2.8986,-2.7572,-2.4569,-2.5909,-2.6134,-2.5407,-2.5723,-2.6582,-3.1485,-3.1973,-3.2851,-3.3867,-3.5,-3.5918,-3.6191,-3.6465,-3.6621,-3.6465,-3.6445,-3.6348,-3.5869,-3.5675,-3.5497,-3.5559,-3.5527,-3.5666,-3.6012,-3.6081,-3.6053,-3.5986,-3.6016,-3.6016,-3.6016,-3.6016,-3.5723,-3.5,-3.4785,-3.4394,-3.3691,-3.3496,-3.3418,-3.3418,-3.3418,-3.3418,-3.3418,-3.3418,-3.3418,-3.3418,-3.3418,-3.3418,-3.3418,-3.3144,-3.3008,-3.2945,-3.2219,-3.0707,-2.8729,-2.7908,-2.5961,-2.3559,-2.3237,-2.3179,-2.3204,-2.2774,-2.2552,-2.2384,-2.1768,-2.1488,-2.1235,-2.1172,-2.1109,-2.1109,-2.1235,-2.1664,-2.216,-2.2229,-2.2476,-2.2709,-2.2392,-2.2189,-2.193,-2.1735,-2.167,-2.1815,-2.2374,-2.2161,-2.1924,-2.2205,-2.2258,-2.2365,-2.2659,-2.2699,-2.2739,-2.2846,-2.2928,-2.2928,-2.2928,-2.2928,-2.2996,-2.3201,-2.2996,-2.2996,-2.3201,-2.2996,-2.3065,-2.3406,-2.3406,-2.4345,-2.6537,-2.6604,-2.7403,-2.9182,-2.9848,-2.9188,-2.7198,-2.7485,-2.731,-2.681,-2.696,-2.7395,-3.1576,-3.1525,-3.2012,-3.3144,-3.3867,-3.4609,-3.5762,-3.6016,-3.6094,-3.6387,-3.6445,-3.6406,-3.6269,-3.5908,-3.5703,-3.5716,-3.5869,-3.5997,-3.6051,-3.6216,-3.6228,-3.6006,-3.6016,-3.6016,-3.6016,-3.6016,-3.5723,-3.498,-3.4785,-3.4394,-3.3672,-3.3496,-3.3418,-3.3418,-3.3418,-3.3418,-3.3418,-3.3418,-3.3418,-3.3418,-3.3418,-3.334,-3.3203,-3.293,-3.2715,-3.2559,-3.2285,-3.0982,-2.9,-2.8362,-2.6477,-2.4029,-2.3381,-2.3106,-2.3043,-2.2606,-2.2292,-2.2055,-2.1614,-2.1299,-2.1122,-2.1229,-2.1256,-2.1333,-2.1504,-2.1979,-2.2404,-2.2535,-2.2928,-2.3164,-2.2776,-2.2504,-2.2306,-2.2175,-2.2256,-2.2457,-2.2914,-2.2538,-2.2218,-2.2647,-2.2633,-2.2632,-2.2832,-2.2928,-2.2928,-2.2928,-2.2928,-2.2928,-2.2928,-2.2928,-2.2996,-2.3201,-2.2996,-2.2996,-2.3201,-2.2996,-2.2996,-2.3201,-2.3201,-2.421,-2.6337,-2.6404,-2.727,-2.9182,-3.0345,-3.0348,-2.9112,-2.8745,-2.8491,-2.8228,-2.8105,-2.8579,0.0,0.0,0.0,-3.2871,-3.2695,-3.2793,-3.5312,-3.5234,-3.4902,-3.5801,-3.5996,-3.6133,-3.6562,-3.6309,-3.6035,-3.6016,-3.6387,-3.6523,-3.6094,-3.6406,-3.6504,-3.6074,-3.6016,-3.6016,-3.6016,-3.6016,-3.584,-3.543,-3.4961,-3.4512,-3.4101,-3.3652,-3.3418,-3.3418,-3.3418,-3.3418,-3.3418,-3.3418,-3.3418,-3.3418,-3.3418,-3.3203,-3.2793,-3.2793,-3.2559,-3.2148,-3.219,-3.1191,-2.9507,-2.8167,-2.661,-2.4949,-2.3604,-2.3106,-2.3043,-2.2355,-2.2104,-2.1992,-2.1362,-2.1109,-2.1162,-2.1521,-2.1614,-2.1733,-2.2291,-2.27,-2.3093,-2.3434,-2.3565,-2.3514,-2.3121,-2.2531,-2.2136,-2.2465,-2.2763,-2.3036,-2.3036,-2.27,-2.2647,-2.3284,-2.3133,-2.2928,-2.2928,-2.2928,-2.2928,-2.2928,-2.2928,-2.2928,-2.2928,-2.2928,-2.2928,-2.2928,-2.2928,-2.2928,-2.2928,-2.2928,-2.2928,-2.2928,-2.2928,-2.387,-2.6002,-2.6136,-2.7137,-2.9117,-3.0595,-3.0919,-3.0087,-2.9825,-2.9683,-2.9646,-2.92,-3.0156,-3.187,0.0,0.0,0.0,0.0,0.0,-3.2539,-3.3047,-3.3652,-3.4824,-3.5332,-3.5703,-3.6133,-3.6348,-3.6387,-3.6074,-3.6387,-3.6621,-3.6504,-3.6601,-3.6504,-3.6074,-3.6016,-3.6016,-3.6016,-3.6016,-3.584,-3.543,-3.4961,-3.4512,-3.4101,-3.3652,-3.3418,-3.3418,-3.3418,-3.3418,-3.3418,-3.3418,-3.3418,-3.3418,-3.3418,-3.3203,-3.2793,-3.248,-3.2109,-3.168,-3.1387,-3.0995,-3.0407,-2.8428,-2.661,-2.4949,-2.3604,-2.3106,-2.3043,-2.2606,-2.2292,-2.2041,-2.1614,-2.1299,-2.1162,-2.1521,-2.1614,-2.1733,-2.2291,-2.27,-2.3135,-2.3771,-2.3894,-2.3819,-2.3361,-2.316,-2.2957,-2.2822,-2.3296,-2.369,-2.369,-2.3623,-2.3447,-2.3119,-2.3133,-2.3201,-2.2928,-2.2928,-2.2928,-2.2928,-2.2928,-2.2928,-2.2928,-2.2928,-2.2928,-2.2928,-2.2928,-2.2928,-2.2928,-2.2928,-2.2928,-2.2928,-2.2928,-2.3734,-2.5584,-2.6922,-2.7982,-2.8838,-3.1175,-3.1753,-3.0571,-3.1475,-3.1623,-3.0967,-3.1466,-3.2231,-3.2982,-3.1827,-3.1016,-3.052,0.0,0.0,-3.1973,-3.2422,-3.2949,-3.4394,-3.5078,-3.5527,-3.5937,-3.623,-3.6367,-3.6309,-3.6348,-3.6465,-3.6641,-3.6816,-3.6836,-3.6582,-3.6562,-3.6484,-3.6309,-3.6289,-3.6113,-3.5684,-3.5234,-3.4726,-3.4101,-3.3652,-3.3418,-3.3418,-3.3418,-3.3418,-3.3418,-3.3418,-3.334,-3.3164,-3.334,-3.3008,-3.2266,-3.2207,-3.1836,-3.125,-3.0996,-3.0898,-3.0723,-2.8335,-2.6766,-2.5729,-2.3837,-2.3106,-2.3043,-2.2543,-2.2292,-2.2041,-2.1551,-2.1235,-2.1176,-2.1603,-2.1802,-2.1948,-2.2617,-2.3153,-2.3529,-2.4113,-2.4223,-2.4065,-2.357,-2.3406,-2.3406,-2.3338,-2.3679,-2.402,-2.417,-2.4238,-2.402,-2.3475,-2.3406,-2.3338,-2.3133,-2.3133,-2.3133,-2.3338,-2.3201,-2.3133,-2.3133,-2.2996,-2.2928,-2.2928,-2.2928,-2.3133,-2.3734,-2.3802,-2.4006,-2.4588,-2.4655,-2.5196,-2.6388,-2.7453,-2.8114,-2.846,-3.0783,-3.1835,-3.1626,-3.2076,-3.196,-3.1375,-3.2223,-3.2729,-3.4843,-3.2952,-3.1444,-3.212,-3.0656,0.0,-3.2305,-3.2422,-3.2402,-3.4023,-3.4707,-3.5176,-3.5644,-3.5762,-3.5918,-3.625,-3.6113,-3.6113,-3.6601,-3.6992,-3.7246,-3.7285,-3.7305,-3.7148,-3.6777,-3.6738,-3.6562,-3.6133,-3.5605,-3.4941,-3.4121,-3.3652,-3.3418,-3.3418,-3.3418,-3.3418,-3.3418,-3.3418,-3.3203,-3.2793,-3.3164,-3.2715,-3.1523,-3.1914,-3.166,-3.0898,-3.0898,-3.0898,-3.0704,-2.8247,-2.7151,-2.6745,-2.4147,-2.3106,-2.3043,-2.2418,-2.2104,-2.1992,-2.1362,-2.1109,-2.1203,-2.179,-2.1991,-2.2164,-2.3093,-2.3679,-2.402,-2.436,-2.4428,-2.4292,-2.3611,-2.3406,-2.3543,-2.3884,-2.4034,-2.417,-2.4442,-2.4495,-2.4442,-2.4088,-2.3747,-2.3475,-2.3406,-2.3406,-2.3543,-2.3816,-2.3543,-2.3338,-2.3338,-2.3201,-2.3133,-2.3133,-2.3256,-2.387,-2.5143,-2.521,-2.5801,-2.7055,-2.7105,-2.7254,-2.7602,-2.78,-2.7998,-2.8147,-2.99,-3.1469,-3.2785,-3.2061,-3.1512,-3.128,-3.2018,-3.2359,-3.4818,-3.3787,-3.2679,-3.1105,-3.0479,0.0,-2.9816,-3.0215,-3.0879,-3.1914,-3.25,-3.3027,-3.3789,-3.4219,-3.4375,-3.4101,-3.4883,-3.5781,-3.6562,-3.6738,-3.6914,-3.7266,-3.7305,-3.7266,-3.7187,-3.7168,-3.6992,-3.6582,-3.5488,-3.4609,-3.4101,-3.3652,-3.3418,-3.3418,-3.3418,-3.3418,-3.3418,-3.3418,-3.3203,-3.2793,-3.2871,-3.2422,-3.1523,-3.1601,-3.1367,-3.0898,-3.0898,-3.0898,-3.0762,-2.9176,-2.7907,-2.6762,-2.4147,-2.3106,-2.3043,-2.2668,-2.2355,-2.2041,-2.1677,-2.1362,-2.1203,-2.179,-2.1991,-2.2164,-2.3093,-2.3475,-2.3611,-2.3952,-2.4088,-2.3952,-2.3543,-2.3611,-2.3816,-2.3611,-2.3952,-2.4428,-2.451,-2.4495,-2.4495,-2.4428,-2.4088,-2.3747,-2.3475,-2.3406,-2.3338,-2.3133,-2.3065,-2.2996,-2.2996,-2.3938,-2.4602,-2.4602,-2.5584,-2.6388,-2.6655,-2.6722,-2.6788,-2.7105,-2.7105,-2.7121,-2.7187,-2.8641,-2.892,-2.78,-2.977,-3.123,-3.2102,-3.2118,-3.2166,-3.2112,-3.2346,-3.2384,-3.5697,-3.4605,-3.3744,-3.2616,-3.1395,0.0,0.0,-3.0155,-3.0195,-3.1289,-3.1875,-3.2363,-3.2988,-3.3457,-3.375,-3.375,-3.4473,-3.5273,-3.5937,-3.6582,-3.7148,-3.7559,-3.7793,-3.7851,-3.7637,-3.7617,-3.7344,-3.6719,-3.5664,-3.4844,-3.4414,-3.3984,-3.3652,-3.3437,-3.3418,-3.3418,-3.3418,-3.3418,-3.3203,-3.2793,-3.2793,-3.2344,-3.1523,-3.1523,-3.1289,-3.0898,-3.0898,-3.0898,-3.0762,-2.9471,-2.8504,-2.7667,-2.5117,-2.4023,-2.3775,-2.3464,-2.3153,-2.2904,-2.3216,-2.2779,-2.2174,-2.2636,-2.2446,-2.2137,-2.2983,-2.3433,-2.3679,-2.3679,-2.3952,-2.4088,-2.3543,-2.3816,-2.4224,-2.402,-2.4224,-2.4563,-2.4781,-2.4645,-2.4563,-2.4781,-2.5105,-2.4955,-2.3884,-2.4413,-2.494,-2.4738,-2.533,-2.5734,-2.5532,-2.6002,-2.6203,-2.6054,-2.6855,-2.7652,-2.8378,-2.8624,-2.9017,-2.9687,-2.9752,-2.9752,-2.9752,-3.0631,-3.0761,-3.0048,-3.1102,-3.1699,-3.1929,-3.2023,-3.2023,-3.1891,-3.1891,-3.1974,-3.6894,-3.5697,-3.4865,-3.4322,-3.2509,-3.099,0.0,0.0,0.0,-3.0918,-3.1484,-3.1894,-3.2226,-3.2715,-3.3105,-3.3301,-3.3887,-3.4473,-3.4844,-3.5996,-3.7012,-3.7617,-3.8066,-3.8223,-3.7949,-3.7773,-3.7441,-3.6836,-3.584,-3.5098,-3.4726,-3.4297,-3.3867,-3.3437,-3.3418,-3.3418,-3.3418,-3.3418,-3.3203,-3.2793,-3.2793,-3.2344,-3.1523,-3.1523,-3.1289,-3.0898,-3.0898,-3.0898,-3.082,-2.9726,-2.9294,-2.9057,-2.6399,-2.5178,-2.4933,-2.4502,-2.4193,-2.407,-2.4748,-2.4193,-2.3135,-2.3515,-2.2953,-2.2258,-2.2848,-2.3418,-2.3816,-2.3611,-2.3952,-2.4292,-2.3747,-2.402,-2.4495,-2.4495,-2.4495,-2.4631,-2.4984,-2.497,-2.5037,-2.5375,-2.6352,-2.6537,-2.482,-2.5883,-2.7004,-2.6937,-2.785,-2.8526,-2.8196,-2.8114,-2.8048,-2.7768,-2.818,-2.9034,-3.0225,-3.0549,-3.1212,-3.2358,-3.2422,-3.2358,-3.2294,-3.223,-3.223,-3.223,-3.2294,-3.2166,-3.1782,-3.1846,-3.1717,-3.1377,-3.1377,-3.157,-3.8091,-3.7518,-3.6575,-3.3976,-3.3176,-3.2264,-2.9367,0.0,-2.9665,-2.9822,0.0,-3.043,-3.0488,0.0,0.0,-3.0762,-3.1973,-3.3027,-3.3086,-3.4199,-3.5449,-3.666,-3.7187,-3.7578,-3.7891,-3.7246,-3.6934,-3.7207,-3.5703,-3.4766,-3.4707,-3.4297,-3.3867,-3.3437,-3.3418,-3.3418,-3.3418,-3.3418,-3.3203,-3.2793,-3.2793,-3.2344,-3.1523,-3.1523,-3.1289,-3.0898,-3.0898,-3.0898,-3.0898,-3.0762,-3.0645,-3.0392,-2.7486,-2.6338,-2.6216,-2.5623,-2.5378,-2.5317,-2.5117,-2.4193,-2.3179,-2.3744,-2.343,-2.2834,-2.2874,-2.3174,-2.3543,-2.3816,-2.3952,-2.4102,-2.4292,-2.4428,-2.4495,-2.4495,-2.4495,-2.4631,-2.4984,-2.5764,-2.6486,-2.682,-2.7998,-2.8328,-2.6604,-2.7535,-2.8378,-2.8048,-2.818,-2.8246,-2.818,-2.923,-3.0012,-2.9947,-3.1083,-3.1891,-3.2083,-3.2147,-3.2211,-3.2422,-3.2422,-3.2294,-3.1974,-3.1653,-3.1506,-3.1506,-3.1782,-3.1782,-3.1442,-3.1782,-3.1717,-3.1377,-3.1377,-3.1442,-3.8316,-3.8141,-3.7966,-3.617,-3.5203,-3.4204,-3.2265,-3.0988,-3.0227,-3.0469,0.0,0.0,0.0,0.0,0.0,0.0,-3.1621,-3.2422,-3.2422,-3.332,-3.4453,-3.5781,-3.6094,-3.6348,-3.6777,-3.6504,-3.6465,-3.6894,-3.5801,-3.498,-3.4707,-3.4531,-3.4121,-3.3437,-3.3418,-3.3418,-3.3418,-3.3418,-3.334,-3.3164,-3.291,-3.248,-3.1894,-3.1641,-3.1289,-3.0898,-3.0898,-3.0898,-3.0898,-3.0898,-3.0898,-3.0762,-2.9294,-2.8206,-2.7306,-2.684,-2.6598,-2.6476,-2.7082,-2.6459,-2.5228,-2.4302,-2.3388,-2.2632,-2.2806,-2.3133,-2.3406,-2.3611,-2.3816,-2.4034,-2.4156,-2.436,-2.4699,-2.5495,-2.5883,-2.6285,-2.7286,-2.78,-2.8131,-2.8262,-2.8789,-2.9248,-2.9296,-2.9817,-3.0077,-2.9735,-3.0595,-3.113,-3.0936,-3.1469,-3.1726,-3.1552,-3.2211,-3.2676,-3.2676,-3.2867,-3.2975,-3.2975,-3.2804,-3.2549,-3.2166,-3.2038,-3.191,-3.1717,-3.1846,-3.1717,-3.1377,-3.1506,-3.1506,-3.1377,-3.1377,-3.1506,-3.8943,-3.8715,-3.8457,-3.7415,-3.6084,-3.4843,-3.4101,-3.2267,-3.0913,-3.1492,-3.0846,0.0,0.0,0.0,-3.0762,-3.0879,0.0,-3.1992,-3.1992,-3.2519,-3.3379,-3.4687,-3.5176,-3.5508,-3.582,-3.5742,-3.584,-3.6289,-3.5527,-3.4883,-3.4551,-3.4531,-3.4199,-3.3437,-3.3418,-3.3418,-3.3418,-3.3418,-3.3418,-3.3418,-3.3105,-3.2695,-3.2209,-3.1836,-3.1406,-3.0898,-3.0898,-3.0898,-3.0898,-3.0898,-3.082,-3.0704,-3.0392,-2.949,-2.8403,-2.8122,-2.7822,-2.7684,-2.8677,-2.8264,-2.7002,-2.5288,-2.4261,-2.3697,-2.3989,-2.4196,-2.4467,-2.4535,-2.482,-2.5022,-2.5158,-2.5427,-2.5883,-2.6937,-2.7403,-2.7932,-2.8986,-2.9509,-2.977,-2.977,-2.977,-3.0225,-3.1643,-3.1579,-3.1368,-3.1497,-3.2556,-3.3292,-3.3038,-3.3038,-3.2912,-3.2676,-3.2912,-3.3038,-3.3038,-3.3228,-3.3355,-3.3292,-3.2912,-3.2613,-3.2294,-3.2166,-3.2038,-3.1782,-3.1782,-3.1653,-3.1377,-3.1377,-3.1377,-3.1377,-3.1377,-3.1589,-4.0621,-3.9369,-3.7941,-3.6442,-3.4751,-3.3329,-3.2871,-3.1923,-3.1471,-3.2457,-3.2031,-3.1465,-3.1465,-3.1816,-3.1836,-3.1016,-3.125,0.0,0.0,-3.1562,-3.2051,-3.334,-3.4609,-3.541,-3.541,-3.5,-3.4941,-3.541,-3.4609,-3.4101,-3.4101,-3.4101,-3.3887,-3.3437,-3.3418,-3.3418,-3.3418,-3.3418,-3.3418,-3.3418,-3.3418,-3.2969,-3.2229,-3.2148,-3.168,-3.0898,-3.0898,-3.0898,-3.0898,-3.0898,-3.0704,-3.0392,-3.0039,-2.9745,-2.945,-2.945,-2.9213,-2.8916,-2.8993,-2.862,-2.7899,-2.6923,-2.6753,-2.6972,-2.6972,-2.6972,-2.7055,-2.7469,-2.7602,-2.7668,-2.8015,-2.8328,-2.8575,-2.8641,-2.892,-2.9117,-2.9182,-3.029,-3.1258,-3.1258,-3.1258,-3.1707,-3.3102,-3.2174,-3.1771,-3.3102,-3.3355,-3.3418,-3.3355,-3.3355,-3.3355,-3.3355,-3.3355,-3.3355,-3.3355,-3.3418,-3.3228,-3.2931,-3.2613,-3.2294,-3.191,-3.1589,-3.1442,-3.1442,-3.1442,-3.1377,-3.1377,-3.1377,-3.1377,-3.1377,-3.1377,-3.1589,-3.819,-3.9046,-3.9527,-3.6241,-3.591,-3.5972,-3.4514,-3.3915,-3.3667,-3.3733,-3.3189,-3.249,-3.1682,-3.1641,-3.1641,-3.1348,-3.1426,-3.1523,0.0,-3.1523,-3.1777,-3.25,-3.3476,-3.3984,-3.3711,-3.4043,-3.4355,-3.4512,-3.4238,-3.4082,-3.4082,-3.4082,-3.3867,-3.3437,-3.3418,-3.3418,-3.3418,-3.3418,-3.3418,-3.3418,-3.3144,-3.2715,-3.2209,-3.1875,-3.1426,-3.0898,-3.0898,-3.0898,-3.0898,-3.0898,-3.082,-3.0704,-3.0333,-3.0039,-2.9745,-2.9331,-2.9094,-2.9012,-2.9287,-2.8834,-2.8077,-2.8067,-2.7573,-2.7105,-2.7105,-2.732,-2.7535,-2.7668,-2.7668,-2.7734,-2.7866,-2.7932,-2.8328,-2.9492,-3.003,-3.0549,-3.1726,-3.2365,-3.2428,-3.1515,-3.0531,-3.003,-3.0549,-3.0225,-3.0678,-3.3019,-3.2638,-3.2365,-3.3292,-3.3418,-3.3418,-3.3418,-3.3418,-3.3418,-3.3418,-3.3165,-3.2912,-3.2613,-3.223,-3.191,-3.1589,-3.1442,-3.1377,-3.1377,-3.1377,-3.1377,-3.1377,-3.1377,-3.1377,-3.1377,-3.1653,-3.191,-3.7116,-3.7953,-3.8537,-3.5983,-3.6138,-3.658,-3.5381,-3.5156,-3.5015,-3.4504,-3.3859,-3.3115,-3.2309,-3.2187,-3.2148,-3.1992,-3.1836,-3.1641,0.0,-3.1426,-3.168,-3.2109,-3.2773,-3.3223,-3.3242,-3.3476,-3.375,-3.4043,-3.3789,-3.3691,-3.3828,-3.3848,-3.3711,-3.3437,-3.3418,-3.3418,-3.3418,-3.3418,-3.3418,-3.3418,-3.2988,-3.2578,-3.2148,-3.1719,-3.1289,-3.0898,-3.0898,-3.0898,-3.0898,-3.0898,-3.082,-3.0704,-3.0333,-3.0039,-2.9686,-2.9331,-2.9186,-2.925,-2.9654,-2.9483,-2.9105,-2.9509,-2.9189,-2.8641,-2.8641,-2.8789,-2.9003,-2.9003,-2.9003,-2.9003,-2.9003,-2.9134,-2.9526,-3.0743,-3.0807,-3.0936,-3.2237,-3.2365,-3.2046,-3.1304,-3.0401,-2.9965,-3.0613,-2.9835,-2.9965,-3.2301,-3.2301,-3.2365,-3.3292,-3.3418,-3.3418,-3.3418,-3.3292,-3.3165,-3.3038,-3.2867,-3.2613,-3.223,-3.2038,-3.1717,-3.1442,-3.1377,-3.1377,-3.1377,-3.1377,-3.1377,-3.1377,-3.1506,-3.1506,-3.1377,-3.1846,-3.2166]},{"header":{"parameterUnit":"m.s-1","parameterCategory":1,"la1":30.6,"la2":29.2853,"lo1":-89.7004,"lo2":-87.6739,"dy":0.0162,"dx":0.0183,"nx":112,"ny":82,"refTime":"2026-05-16T12:00:00:Z","depth":0,"parameterNumber":3,"parameterNumberName":"V-component_of_WINDS"},"data":[0.0,0.0,0.0,0.0,0.0,0.0,0.0,0.0,0.0,0.0,0.0,0.0,0.0,0.0,0.0,0.0,0.0,0.0,0.0,0.0,0.0,0.0,0.0,0.0,0.0,0.0,0.0,0.0,0.0,0.0,0.0,0.0,0.0,0.0,0.0,0.0,0.0,0.0,0.0,0.0,0.0,0.0,0.0,0.0,0.0,0.0,0.0,0.0,0.0,0.0,0.0,0.0,0.0,0.0,0.0,0.0,0.0,0.0,0.0,0.0,0.0,0.0,0.0,0.0,0.0,0.0,0.0,0.0,0.0,0.0,0.0,0.0,0.0,0.0,0.0,0.0,0.0,0.0,0.0,0.0,0.0,0.0,0.0,0.0,0.0,0.0,0.0,0.0,0.0,0.0,2.8836,2.8967,2.9365,2.9628,2.9744,3.0148,2.9539,2.7456,0.0,0.0,0.0,0.0,0.0,0.0,0.0,0.0,0.0,0.0,0.0,0.0,0.0,0.0,0.0,0.0,0.0,0.0,0.0,0.0,0.0,0.0,0.0,0.0,0.0,0.0,0.0,0.0,0.0,0.0,0.0,0.0,0.0,0.0,0.0,0.0,0.0,0.0,0.0,0.0,0.0,0.0,0.0,0.0,0.0,0.0,0.0,0.0,0.0,0.0,0.0,0.0,0.0,0.0,0.0,0.0,0.0,0.0,0.0,0.0,0.0,0.0,0.0,0.0,0.0,0.0,0.0,0.0,0.0,0.0,0.0,0.0,0.0,0.0,0.0,0.0,0.0,0.0,0.0,0.0,0.0,0.0,0.0,0.0,0.0,0.0,0.0,0.0,0.0,0.0,0.0,0.0,0.0,0.0,0.0,0.0,0.0,0.0,0.0,0.0,0.0,0.0,0.0,0.0,2.8975,2.9634,2.9587,2.9733,3.0329,2.9587,2.8724,2.7938,0.0,0.0,0.0,0.0,0.0,0.0,0.0,0.0,0.0,0.0,0.0,0.0,0.0,0.0,0.0,0.0,0.0,0.0,0.0,0.0,0.0,0.0,0.0,0.0,0.0,0.0,0.0,0.0,0.0,0.0,0.0,0.0,0.0,0.0,0.0,0.0,0.0,0.0,0.0,0.0,0.0,0.0,0.0,0.0,0.0,0.0,0.0,0.0,0.0,0.0,0.0,0.0,0.0,0.0,0.0,0.0,0.0,0.0,0.0,0.0,0.0,0.0,0.0,0.0,0.0,0.0,0.0,0.0,0.0,0.0,0.0,0.0,0.0,0.0,0.0,0.0,0.0,0.0,0.0,0.0,0.0,0.0,0.0,0.0,0.0,0.0,0.0,0.0,0.0,0.0,0.0,0.0,0.0,0.0,0.0,0.0,0.0,0.0,0.0,0.0,0.0,0.0,0.0,2.9317,2.9565,3.0227,2.9936,2.982,3.0127,2.9846,2.9089,2.7727,2.7761,0.0,0.0,0.0,0.0,0.0,0.0,0.0,0.0,0.0,0.0,0.0,0.0,0.0,0.0,0.0,0.0,0.0,0.0,0.0,0.0,0.0,0.0,0.0,0.0,0.0,0.0,0.0,0.0,0.0,0.0,0.0,0.0,0.0,0.0,0.0,0.0,0.0,0.0,0.0,0.0,0.0,0.0,0.0,0.0,0.0,0.0,0.0,0.0,0.0,0.0,0.0,0.0,0.0,0.0,0.0,0.0,0.0,0.0,0.0,0.0,0.0,0.0,0.0,0.0,0.0,0.0,0.0,0.0,0.0,0.0,0.0,0.0,0.0,0.0,0.0,0.0,0.0,0.0,0.0,0.0,0.0,0.0,0.0,0.0,0.0,0.0,0.0,0.0,0.0,0.0,0.0,0.0,0.0,0.0,0.0,0.0,0.0,0.0,0.0,0.0,0.0,0.0,3.0855,3.0762,3.1247,3.06,3.0154,3.0117,3.0083,2.9392,2.7733,2.766,0.0,0.0,0.0,0.0,0.0,0.0,0.0,0.0,0.0,0.0,0.0,0.0,0.0,0.0,0.0,0.0,0.0,0.0,0.0,0.0,0.0,0.0,0.0,0.0,0.0,0.0,0.0,0.0,0.0,0.0,0.0,0.0,0.0,0.0,0.0,0.0,0.0,0.0,0.0,0.0,0.0,0.0,0.0,0.0,0.0,0.0,0.0,0.0,0.0,0.0,0.0,0.0,0.0,0.0,0.0,0.0,0.0,0.0,0.0,0.0,0.0,0.0,0.0,0.0,0.0,0.0,0.0,0.0,0.0,0.0,0.0,0.0,0.0,0.0,0.0,0.0,0.0,0.0,0.0,0.0,0.0,0.0,0.0,0.0,0.0,0.0,0.0,0.0,0.0,0.0,0.0,0.0,0.0,0.0,0.0,0.0,0.0,0.0,0.0,0.0,0.0,0.0,3.3239,3.3111,3.321,3.186,3.0874,3.0859,2.9794,2.8945,2.8306,2.7487,0.0,0.0,0.0,0.0,0.0,0.0,0.0,0.0,0.0,0.0,0.0,0.0,0.0,0.0,0.0,0.0,0.0,0.0,0.0,0.0,0.0,0.0,0.0,0.0,0.0,0.0,0.0,0.0,0.0,0.0,0.0,0.0,0.0,0.0,0.0,0.0,0.0,0.0,0.0,0.0,0.0,0.0,0.0,0.0,0.0,0.0,0.0,0.0,0.0,0.0,0.0,0.0,0.0,0.0,0.0,0.0,0.0,0.0,0.0,0.0,0.0,0.0,0.0,0.0,0.0,0.0,0.0,0.0,0.0,0.0,0.0,0.0,0.0,0.0,0.0,0.0,0.0,0.0,0.0,0.0,0.0,0.0,0.0,0.0,0.0,0.0,0.0,0.0,0.0,0.0,0.0,0.0,0.0,0.0,0.0,0.0,0.0,0.0,0.0,0.0,0.0,0.0,3.3646,3.3926,3.4883,3.388,3.3116,3.3063,3.2671,3.1835,3.0433,0.0,0.0,0.0,0.0,0.0,0.0,0.0,0.0,0.0,0.0,0.0,0.0,0.0,0.0,0.0,0.0,0.0,0.0,0.0,0.0,0.0,0.0,0.0,0.0,0.0,0.0,0.0,0.0,0.0,0.0,0.0,0.0,0.0,0.0,0.0,0.0,0.0,0.0,0.0,0.0,0.0,0.0,0.0,0.0,0.0,0.0,0.0,0.0,0.0,0.0,0.0,0.0,0.0,0.0,0.0,0.0,0.0,0.0,0.0,0.0,0.0,0.0,0.0,0.0,0.0,0.0,0.0,0.0,0.0,0.0,0.0,0.0,0.0,0.0,0.0,0.0,0.0,0.0,0.0,0.0,0.0,0.0,0.0,0.0,0.0,0.0,0.0,0.0,0.0,0.0,0.0,0.0,0.0,0.0,0.0,0.0,0.0,0.0,0.0,0.0,0.0,0.0,3.4456,3.4751,3.5257,3.6134,3.5307,3.4566,3.4413,3.4032,3.3136,3.1673,0.0,0.0,0.0,0.0,0.0,0.0,0.0,0.0,0.0,0.0,0.0,0.0,0.0,0.0,0.0,0.0,0.0,0.0,0.0,0.0,0.0,0.0,0.0,0.0,0.0,0.0,0.0,0.0,0.0,0.0,0.0,0.0,0.0,0.0,0.0,0.0,0.0,0.0,0.0,0.0,0.0,0.0,0.0,0.0,0.0,0.0,0.0,0.0,0.0,0.0,0.0,0.0,0.0,0.0,0.0,0.0,0.0,0.0,0.0,0.0,0.0,0.0,0.0,0.0,0.0,0.0,0.0,0.0,0.0,0.0,0.0,0.0,0.0,0.0,0.0,0.0,0.0,0.0,0.0,0.0,0.0,0.0,0.0,0.0,0.0,0.0,0.0,0.0,0.0,0.0,0.0,0.0,0.0,0.0,0.0,0.0,0.0,0.0,0.0,0.0,0.0,0.0,3.6389,3.6938,3.722,3.7045,3.5904,3.4971,3.4491,3.3244,3.2243,0.0,0.0,0.0,0.0,0.0,0.0,0.0,0.0,0.0,0.0,0.0,0.0,0.0,0.0,0.0,0.0,0.0,0.0,0.0,0.0,0.0,0.0,0.0,0.0,0.0,0.0,0.0,0.0,0.0,0.0,0.0,0.0,0.0,0.0,0.0,0.0,0.0,0.0,0.0,0.0,0.0,0.0,0.0,0.0,0.0,0.0,0.0,0.0,0.0,0.0,0.0,0.0,0.0,0.0,0.0,0.0,0.0,0.0,0.0,0.0,0.0,0.0,0.0,0.0,0.0,0.0,0.0,0.0,0.0,0.0,0.0,0.0,0.0,0.0,0.0,0.0,0.0,0.0,0.0,0.0,0.0,0.0,0.0,0.0,0.0,0.0,0.0,0.0,0.0,0.0,0.0,0.0,0.0,0.0,0.0,0.0,0.0,0.0,0.0,0.0,0.0,0.0,0.0,3.6332,3.7539,3.8495,3.8773,3.8138,3.7637,3.7524,3.6816,3.5765,3.4308,0.0,0.0,0.0,0.0,0.0,0.0,0.0,0.0,0.0,0.0,0.0,0.0,0.0,0.0,0.0,0.0,0.0,0.0,0.0,0.0,0.0,0.0,0.0,0.0,0.0,0.0,0.0,0.0,0.0,0.0,0.0,0.0,0.0,0.0,0.0,0.0,0.0,0.0,0.0,0.0,0.0,0.0,0.0,0.0,0.0,0.0,0.0,0.0,0.0,0.0,0.0,0.0,0.0,0.0,0.0,0.0,0.0,0.0,0.0,0.0,0.0,0.0,0.0,0.0,0.0,0.0,0.0,0.0,0.0,0.0,0.0,0.0,0.0,0.0,0.0,0.0,0.0,0.0,0.0,0.0,0.0,0.0,0.0,0.0,0.0,0.0,0.0,0.0,0.0,0.0,0.0,0.0,0.0,0.0,0.0,0.0,0.0,0.0,0.0,0.0,0.0,0.0,3.6063,3.7811,3.9069,3.923,3.8985,3.8788,3.8788,3.8101,3.702,3.5526,0.0,0.0,0.0,0.0,0.0,0.0,0.0,0.0,0.0,0.0,0.0,0.0,0.0,0.0,0.0,0.0,0.0,0.0,0.0,0.0,0.0,0.0,0.0,0.0,0.0,0.0,0.0,0.0,0.0,0.0,0.0,0.0,0.0,0.0,0.0,0.0,0.0,0.0,0.0,0.0,0.0,0.0,0.0,0.0,0.0,0.0,0.0,0.0,0.0,0.0,0.0,0.0,0.0,0.0,0.0,0.0,0.0,0.0,0.0,0.0,0.0,0.0,0.0,0.0,0.0,0.0,0.0,0.0,0.0,0.0,0.0,0.0,0.0,0.0,0.0,0.0,0.0,0.0,0.0,0.0,0.0,0.0,0.0,0.0,0.0,0.0,0.0,0.0,0.0,0.0,0.0,0.0,0.0,0.0,0.0,0.0,0.0,0.0,0.0,0.0,0.0,0.0,3.5835,3.7941,3.9362,3.905,3.8945,3.8893,3.8893,3.7958,3.6949,3.5888,0.0,0.0,0.0,0.0,0.0,0.0,0.0,0.0,0.0,0.0,0.0,0.0,0.0,0.0,0.0,0.0,0.0,0.0,0.0,0.0,0.0,0.0,0.0,0.0,0.0,0.0,0.0,0.0,0.0,0.0,0.0,0.0,0.0,0.0,0.0,0.0,0.0,0.0,0.0,0.0,0.0,0.0,0.0,0.0,0.0,0.0,0.0,0.0,0.0,0.0,0.0,0.0,0.0,0.0,0.0,0.0,0.0,0.0,0.0,0.0,4.3657,4.1456,0.0,0.0,0.0,0.0,0.0,0.0,0.0,0.0,0.0,0.0,0.0,0.0,0.0,0.0,0.0,0.0,0.0,0.0,0.0,0.0,0.0,0.0,0.0,0.0,0.0,0.0,0.0,0.0,0.0,0.0,0.0,0.0,0.0,0.0,0.0,0.0,0.0,0.0,0.0,0.0,3.7474,3.9372,4.0794,4.0667,3.9955,3.9542,3.9542,3.8917,3.829,3.7727,3.6499,0.0,0.0,0.0,0.0,0.0,0.0,0.0,0.0,0.0,0.0,0.0,0.0,0.0,0.0,0.0,0.0,0.0,0.0,0.0,0.0,0.0,0.0,0.0,0.0,0.0,0.0,0.0,0.0,0.0,0.0,0.0,0.0,0.0,0.0,0.0,0.0,0.0,0.0,0.0,0.0,0.0,0.0,0.0,0.0,0.0,0.0,0.0,0.0,0.0,0.0,0.0,0.0,0.0,0.0,0.0,0.0,0.0,0.0,0.0,4.6771,4.4948,0.0,0.0,0.0,0.0,0.0,0.0,0.0,0.0,0.0,0.0,0.0,0.0,0.0,0.0,0.0,0.0,0.0,0.0,0.0,0.0,0.0,0.0,0.0,0.0,0.0,0.0,0.0,0.0,0.0,0.0,0.0,0.0,0.0,0.0,0.0,0.0,0.0,0.0,0.0,0.0,3.8585,4.0547,4.1963,4.1963,4.1468,4.1196,4.1196,4.0723,4.0031,3.927,3.8103,0.0,0.0,0.0,0.0,0.0,0.0,0.0,0.0,0.0,0.0,0.0,0.0,0.0,0.0,0.0,0.0,0.0,0.0,0.0,0.0,0.0,0.0,0.0,0.0,0.0,0.0,0.0,0.0,0.0,0.0,0.0,0.0,0.0,0.0,0.0,0.0,0.0,0.0,0.0,0.0,0.0,0.0,0.0,0.0,0.0,0.0,0.0,0.0,0.0,0.0,0.0,0.0,0.0,5.1545,5.2012,5.128,5.2091,5.2763,5.3136,5.0297,4.9279,4.9371,4.7137,0.0,0.0,0.0,0.0,0.0,0.0,0.0,0.0,0.0,0.0,0.0,0.0,0.0,0.0,0.0,0.0,0.0,0.0,0.0,0.0,0.0,0.0,4.6698,4.677,4.71,4.6698,4.4426,0.0,0.0,0.0,0.0,0.0,0.0,0.0,0.0,0.0,0.0,0.0,3.97,4.1633,4.3081,4.3081,4.2889,4.2792,4.2792,4.2378,4.1739,4.0832,3.9645,3.8319,0.0,0.0,0.0,0.0,0.0,0.0,0.0,0.0,0.0,0.0,0.0,0.0,0.0,0.0,0.0,0.0,0.0,0.0,0.0,0.0,0.0,0.0,0.0,0.0,0.0,0.0,0.0,0.0,0.0,0.0,0.0,0.0,5.2477,5.1871,0.0,0.0,0.0,0.0,0.0,0.0,0.0,0.0,0.0,0.0,0.0,0.0,0.0,5.0925,5.1149,5.3068,5.4116,5.4306,5.5692,5.6281,5.6177,5.6281,5.6392,5.6482,5.6013,0.0,5.1944,5.1062,0.0,0.0,0.0,0.0,0.0,0.0,0.0,0.0,0.0,0.0,0.0,0.0,0.0,0.0,0.0,0.0,0.0,0.0,0.0,0.0,0.0,0.0,5.1069,5.1152,5.0734,5.0075,4.9173,4.6123,4.3201,4.1902,4.1518,4.1018,0.0,0.0,0.0,0.0,0.0,0.0,4.1637,4.3104,4.4125,4.4125,4.3321,4.2792,4.2792,4.2711,4.2766,4.296,4.1803,4.0839,4.0182,3.8608,0.0,0.0,0.0,0.0,0.0,0.0,0.0,0.0,0.0,0.0,0.0,0.0,0.0,0.0,0.0,0.0,0.0,0.0,0.0,0.0,0.0,0.0,0.0,0.0,0.0,0.0,0.0,0.0,0.0,5.2615,5.3208,5.2862,5.2832,5.2029,0.0,0.0,0.0,0.0,0.0,0.0,0.0,0.0,0.0,5.1572,5.2524,5.3702,5.5177,5.6373,5.7545,5.8659,5.9197,5.9444,5.9444,5.9444,5.9444,5.9444,5.8993,5.806,5.6616,5.3912,5.2013,5.0739,0.0,0.0,0.0,0.0,5.0229,5.0577,5.1383,5.1458,5.1208,5.1305,0.0,0.0,0.0,0.0,0.0,0.0,0.0,4.8315,4.985,5.1092,5.1932,5.1932,5.1954,5.1733,5.0627,4.9001,4.7169,4.534,4.43,4.3244,4.173,4.1153,0.0,0.0,0.0,4.2965,4.2947,4.4486,4.5582,4.5582,4.5218,4.4915,4.4915,4.4915,4.4841,4.4658,4.4109,4.3401,4.246,4.1285,4.0129,0.0,0.0,0.0,0.0,0.0,0.0,0.0,0.0,0.0,0.0,0.0,0.0,0.0,0.0,0.0,0.0,0.0,0.0,0.0,0.0,0.0,0.0,0.0,0.0,0.0,0.0,0.0,0.0,5.3623,5.3832,5.3473,5.3743,5.2905,0.0,0.0,0.0,0.0,0.0,0.0,5.2489,5.3006,5.3736,5.4709,5.5591,5.6868,5.8607,5.9272,6.0165,6.1293,6.1483,6.1452,6.1293,6.1293,6.1293,6.1262,6.0487,6.0076,5.9649,5.6286,5.4219,5.3149,5.2115,5.2169,5.2821,5.2821,5.3313,5.4033,5.4888,5.5184,5.5039,5.4454,5.3796,5.2813,5.0525,0.0,0.0,0.0,0.0,4.9928,5.1526,5.2285,5.2685,5.2837,5.2957,5.2724,5.1669,5.116,5.0255,4.8243,4.6912,4.5573,4.3919,4.3236,0.0,4.1437,4.2832,4.4162,4.453,4.5793,4.6609,4.6609,4.6609,4.6609,4.6609,4.6609,4.6373,4.5872,4.5666,4.5178,4.4234,4.3584,4.257,4.1312,0.0,0.0,0.0,0.0,0.0,0.0,0.0,0.0,0.0,0.0,0.0,0.0,0.0,0.0,0.0,0.0,0.0,0.0,0.0,0.0,0.0,0.0,0.0,0.0,0.0,0.0,0.0,0.0,0.0,5.4311,5.5269,0.0,0.0,0.0,0.0,5.2575,5.4705,5.5993,5.6056,5.7878,5.8938,5.9001,6.0281,6.1007,6.1119,6.1765,6.1796,6.1228,6.1909,6.1877,6.1228,6.1228,6.1228,6.1165,6.0422,5.9728,5.9065,5.823,5.7473,5.6685,5.5449,5.4988,5.5043,5.5031,5.5075,5.5213,5.5866,5.6119,5.6252,5.7023,5.6001,5.4258,5.3415,5.161,0.0,0.0,5.2112,5.2628,5.482,5.4873,5.4543,5.5236,5.4378,5.3353,5.3254,5.2142,5.0606,4.9043,4.8699,4.7927,4.573,0.0,4.5285,4.5217,4.4941,4.5293,4.6844,4.677,4.6609,4.6609,4.6609,4.6609,4.6609,4.6609,4.658,4.655,4.5931,4.5548,4.5489,4.4942,4.3997,4.2629,4.1951,0.0,0.0,0.0,0.0,0.0,0.0,0.0,0.0,0.0,0.0,0.0,0.0,0.0,0.0,0.0,0.0,0.0,0.0,0.0,0.0,0.0,0.0,0.0,0.0,0.0,0.0,0.0,0.0,5.6077,5.7102,0.0,5.5346,5.6047,5.6567,5.6315,5.7516,5.8427,5.8824,5.9553,6.0139,6.0582,6.1057,6.1854,6.2955,6.2762,6.2819,6.3271,6.3043,6.2815,6.2554,6.2554,6.2554,6.2521,6.1771,6.1315,6.1022,6.0305,5.9117,5.7674,5.7245,5.7459,5.8064,5.802,5.8443,5.902,5.9281,5.9337,5.9259,5.8634,5.6941,5.5172,5.4908,5.3929,5.3122,5.4142,5.4448,5.4618,5.5412,5.5383,5.5019,5.4361,5.3798,5.3301,5.2837,5.2323,5.1773,5.1222,5.0283,4.9208,4.8023,4.7762,4.7421,4.657,4.6937,4.7575,4.8153,4.8447,4.846,4.7946,4.7861,4.7498,4.6496,4.6423,4.6423,4.6423,4.6719,4.7084,4.7509,4.7405,4.6739,4.5379,4.4706,4.3221,0.0,0.0,0.0,0.0,0.0,0.0,0.0,0.0,0.0,0.0,0.0,0.0,0.0,0.0,0.0,0.0,0.0,0.0,0.0,0.0,0.0,0.0,0.0,0.0,0.0,5.6934,5.8003,5.8186,5.924,5.9438,5.8117,5.8997,5.9562,5.9562,6.0599,6.1426,6.1879,6.2137,6.246,6.2898,6.2898,6.3339,6.4139,6.3681,6.3505,6.368,6.3458,6.3268,6.3036,6.3121,6.3121,6.3055,6.2365,6.1991,6.1874,6.141,6.0388,5.9113,5.9113,5.9499,6.013,6.013,6.0548,6.1086,6.0821,6.0589,6.0158,5.8933,5.7376,5.5984,5.5984,5.5653,5.5355,5.5852,5.5984,5.5918,5.5648,5.5416,5.492,5.3662,5.3235,5.2937,5.2473,5.2409,5.2409,5.2409,5.155,5.0598,4.9954,4.9821,4.9447,4.853,4.8834,4.9279,4.9534,4.9716,4.9607,4.9075,4.8994,4.847,4.721,4.7108,4.6976,4.6762,4.7269,4.7774,4.8239,4.8357,4.7877,4.6808,4.5896,4.4285,4.1973,0.0,0.0,0.0,0.0,0.0,0.0,0.0,0.0,0.0,0.0,0.0,0.0,0.0,0.0,0.0,0.0,0.0,0.0,0.0,0.0,0.0,0.0,0.0,5.8363,6.0123,6.1217,6.0598,6.166,6.1977,6.0678,6.1574,6.2207,6.2207,6.3989,6.5058,6.5058,6.5727,6.6095,6.6095,6.6095,6.5674,6.4724,6.469,6.3829,6.2221,6.313,6.3149,6.2449,6.269,6.2773,6.2706,6.2044,6.1588,6.1424,6.1424,6.1293,6.1119,6.1119,6.1119,6.1119,6.1119,6.1086,6.0953,6.0258,5.9496,5.8774,5.8078,5.7315,5.6719,5.6719,5.6719,5.6719,5.6719,5.6719,5.6553,5.5786,5.5057,5.4328,5.3566,5.2906,5.2409,5.2409,5.2409,5.2409,5.2409,5.2409,5.2177,5.1481,5.1348,5.1348,5.1348,5.0609,0.0,5.1075,5.0422,4.9844,4.9844,4.9844,4.9521,4.8787,4.8692,4.8338,4.7637,4.7612,4.7612,4.7643,4.7681,4.7403,4.6777,4.5453,4.4129,4.2801,0.0,0.0,0.0,0.0,0.0,0.0,0.0,0.0,0.0,0.0,0.0,0.0,0.0,0.0,0.0,0.0,0.0,0.0,0.0,0.0,0.0,6.0076,6.1256,6.0362,6.1645,6.2716,6.2987,6.4062,6.4601,6.4132,6.4638,6.5026,6.5026,6.5487,6.5794,6.5794,6.5995,6.6095,6.6095,6.6095,6.5718,6.4939,6.4404,6.3626,6.2607,6.2356,6.213,6.1929,6.197,6.2011,6.2011,6.181,6.1669,6.1628,6.1628,6.1588,6.1539,6.121,6.1119,6.1119,6.1252,6.105,6.0712,6.0512,5.961,5.8469,5.8308,5.774,5.7139,5.7139,5.7139,5.7139,5.7139,5.7139,5.6838,5.5603,5.5102,5.4598,5.333,5.2896,5.2764,5.2764,5.2624,5.2551,5.2551,5.2551,5.2449,5.2144,5.2111,5.2111,5.2111,5.1864,5.1786,5.2053,5.1802,5.1471,5.0838,5.0761,5.0211,4.8864,4.825,4.7871,4.7681,4.7764,4.8023,4.8501,4.9144,4.9169,4.8449,4.7043,4.6094,0.0,0.0,0.0,0.0,0.0,0.0,0.0,0.0,0.0,0.0,0.0,0.0,0.0,0.0,0.0,0.0,0.0,0.0,0.0,0.0,0.0,0.0,6.2742,6.3889,6.389,6.444,6.4943,6.5274,6.593,6.6283,6.625,6.6234,6.6259,6.6259,6.6345,6.6397,6.6397,6.6397,6.6397,6.6397,6.6094,6.5547,6.4682,6.3977,6.3165,6.2345,6.1991,6.183,6.183,6.1951,6.1991,6.1991,6.1991,6.1911,6.183,6.183,6.179,6.1669,0.0,0.0,0.0,0.0,6.0418,6.0102,5.9801,5.9131,5.8361,5.8026,5.7658,5.7289,5.7289,5.7289,5.7289,5.7289,5.7289,5.6955,5.5481,5.5113,5.4711,5.3271,5.2903,5.2903,5.2903,5.2799,5.2729,5.2729,5.2729,0.0,5.2622,5.2551,5.248,5.248,5.2445,5.2445,5.2587,5.248,5.223,5.1765,5.1692,5.1177,5.0029,4.9248,0.0,0.0,0.0,4.8191,4.8582,4.9057,0.0,0.0,0.0,0.0,0.0,0.0,0.0,0.0,4.6028,4.6323,0.0,0.0,0.0,0.0,0.0,0.0,0.0,0.0,0.0,0.0,0.0,0.0,0.0,0.0,0.0,0.0,6.5185,6.6406,6.7726,6.755,6.7255,6.7188,6.7255,6.7255,6.7188,6.6791,6.655,6.655,6.6686,6.6812,6.6812,6.6812,0.0,0.0,0.0,6.5241,6.4368,6.3586,6.2764,6.179,6.1957,6.2037,6.2037,6.2302,6.2381,6.2381,6.2381,6.2268,6.2037,6.2037,6.1883,6.1649,6.1575,6.1173,6.0543,5.984,5.9505,5.9337,5.8705,0.0,0.0,5.7566,5.7364,5.7364,5.7364,5.7364,5.7364,5.7364,5.7297,5.6929,5.552,5.5118,5.4682,5.3308,5.2972,5.2972,5.2972,5.2938,5.2938,5.2938,5.2938,5.2938,5.2903,5.2729,5.2624,5.2624,5.2551,5.2551,5.2868,5.2657,5.2516,5.2624,5.2551,0.0,5.1691,5.0926,5.0193,4.9592,4.8726,4.8227,4.8227,4.8131,4.8131,4.8227,4.8227,4.8227,4.8227,4.842,4.8515,4.8482,4.7053,4.6786,0.0,0.0,0.0,0.0,0.0,0.0,0.0,0.0,0.0,0.0,0.0,0.0,0.0,0.0,0.0,6.5312,6.6551,6.7557,6.7861,6.7809,6.7564,6.6956,6.7395,6.753,6.6956,6.6829,6.6728,6.6728,6.677,6.6812,6.6812,6.6812,6.6812,6.6812,6.6068,6.5324,6.4573,6.3789,6.3045,6.2263,6.2302,0.0,6.2341,6.2381,6.2381,6.2381,6.2381,6.2381,6.2341,6.2341,6.1964,6.1346,6.0958,6.0824,6.074,6.0035,5.9439,5.9051,5.8954,5.8515,5.7974,5.7806,5.7772,5.7772,5.7772,5.7772,0.0,5.7772,5.7367,5.6691,5.5813,5.5138,5.4463,5.3585,5.3382,5.3382,5.3382,5.328,5.3144,5.3144,5.3144,5.3076,5.2938,5.2868,5.2834,5.2834,5.2799,5.2834,5.2868,5.2834,5.2799,5.2834,5.2799,5.2765,5.2633,5.1396,5.0593,5.046,4.9188,4.8452,4.8452,4.842,4.842,4.8452,4.8452,4.8452,4.8452,4.8483,4.8578,4.8738,4.8279,4.8149,0.0,0.0,0.0,0.0,0.0,0.0,0.0,0.0,0.0,0.0,0.0,6.3613,6.4478,0.0,6.7049,6.7827,6.8267,6.8639,6.8977,6.8402,6.7624,6.6914,6.7455,6.7624,6.688,6.6812,6.6812,6.6812,6.6812,6.6812,6.6812,6.6812,6.6812,6.6812,6.573,6.4952,6.4613,6.3497,6.2753,6.2381,6.2381,6.2381,6.2381,6.2381,6.2381,6.2381,6.2381,6.2381,6.2381,6.2381,6.1975,6.1226,6.0593,6.0223,5.9861,5.9119,5.8687,5.8457,5.8457,5.822,5.7881,5.7881,5.7881,5.7881,5.7881,5.7881,5.7814,5.7442,5.707,5.6562,5.5446,5.4871,5.4397,5.3687,5.3518,5.3518,5.3518,5.3416,5.3348,5.3348,5.3348,5.3314,5.3212,5.3212,5.3178,5.3076,5.2671,5.2402,5.2573,5.2135,5.1832,5.1934,5.1832,5.2,5.2471,5.1497,5.0524,4.9785,4.8983,4.8547,4.8644,4.8547,4.8547,4.8675,4.8675,4.8675,4.8675,4.9074,4.9292,4.935,4.9634,4.9385,0.0,0.0,0.0,0.0,0.0,0.0,0.0,6.2347,6.2618,6.4275,6.5053,6.5831,6.7049,6.7861,6.8741,6.9992,6.9688,6.9519,7.0094,6.9113,6.8064,6.7354,6.7523,6.7455,6.688,6.6812,6.6812,6.6812,6.6812,6.6812,6.6812,6.6812,6.6812,6.6812,6.5358,6.4613,6.4613,6.3125,6.2381,6.2381,6.2381,6.2381,6.2381,6.2381,6.2381,6.2381,6.2381,6.2381,6.2381,6.2381,6.1975,6.1231,6.0419,5.9641,5.893,5.8152,5.7881,5.7881,5.7881,5.7881,5.7881,5.7881,5.7881,5.7881,5.7881,5.7881,5.7746,5.7002,5.6697,5.6292,5.4938,5.4465,5.4228,5.3653,5.3584,5.3651,5.3551,5.3685,5.3817,5.3551,5.3718,5.3816,5.3718,5.3648,5.3513,5.3112,5.2371,5.1934,5.2064,5.1327,5.0892,5.1024,5.0892,5.106,5.1663,5.1255,5.0375,4.8933,4.8798,4.8861,4.9018,4.8861,4.8889,4.9135,4.9077,4.9046,4.9199,4.9899,5.0133,5.0074,5.0668,5.0341,6.1733,6.1221,6.1418,6.211,6.2279,6.3125,0.0,6.6136,6.5831,6.803,6.8538,6.8639,6.8808,6.9451,6.9992,7.0161,7.0128,7.0094,7.0161,7.0026,6.9654,6.8944,6.7726,6.6914,6.6812,6.6812,6.6812,6.6812,6.6812,6.6812,6.6812,6.6812,6.6812,6.6812,6.5358,6.4613,6.4613,6.3125,6.2381,6.2381,6.2381,6.2381,6.2381,6.2381,6.2381,6.2381,6.2381,6.2381,6.2381,6.2381,6.1975,6.1231,6.0419,5.9641,5.893,5.8152,5.7881,5.7881,5.7881,5.7881,5.7881,5.7881,5.7881,5.7881,5.7881,5.7881,5.7746,5.7002,5.6325,5.5649,5.4803,5.4093,5.3619,5.3518,5.3913,5.4139,5.3618,5.4397,5.4861,5.3718,5.4428,5.5013,5.4391,5.4209,5.3727,5.2565,5.2334,5.1997,5.1388,5.122,5.1153,5.1185,5.1153,5.0916,5.0373,5.0735,5.0416,4.9052,4.9466,4.9727,4.9791,4.9756,4.9953,5.048,5.0045,5.0017,5.048,5.0577,5.0605,5.0616,5.0721,5.0632,6.4005,6.3531,6.3497,6.4681,6.4952,6.5493,6.7455,6.7421,6.7489,6.935,6.9722,6.9857,7.0297,7.0635,7.0838,7.0838,7.0838,7.0838,7.0838,7.0466,6.9925,6.918,6.8132,6.7455,6.7455,6.7049,6.6812,6.6812,6.6812,6.6812,6.6812,6.6812,6.6609,6.617,6.5155,6.441,6.3971,6.2922,6.2381,6.2381,6.2381,6.2381,6.2381,6.2381,6.2381,6.2381,6.2381,6.2381,6.2381,6.2381,6.167,6.0554,6.0216,5.9404,5.8321,5.8017,5.7881,5.7881,5.7881,5.7881,5.7881,5.7881,5.7881,5.7881,5.7881,5.8173,5.8254,5.7021,5.6777,5.6589,5.5378,5.4824,5.4582,5.4582,5.4799,5.4887,5.4645,5.5044,5.5254,5.4707,5.463,5.4612,5.4346,5.3865,5.3172,5.2191,5.2062,5.1958,5.1647,5.1198,5.0804,5.048,5.083,5.0796,5.0039,5.0592,5.073,5.0017,5.0237,5.0377,5.0377,5.0377,5.0452,5.0697,5.048,5.048,5.0697,5.1189,5.1351,5.1209,5.1669,5.1815,6.4749,6.485,6.5155,6.6237,6.6981,6.7624,6.8368,6.8538,6.891,7.0229,7.05,7.0669,7.121,7.1312,7.1312,7.1312,7.1312,7.1312,7.1312,7.0669,6.9992,6.9451,6.8504,6.7895,6.7895,6.7252,6.6812,6.6812,6.6812,6.6812,6.6812,6.6812,6.6576,6.6,6.5087,6.4343,6.3835,6.2854,6.2381,6.2381,6.2381,6.2381,6.2381,6.2381,6.2381,6.2381,6.2381,6.2381,6.2381,6.2178,6.1434,6.0385,5.9979,5.9133,5.8186,5.7983,5.7881,5.7881,5.7881,5.7881,5.7881,5.7881,5.7881,5.7918,5.8101,5.8528,5.8598,5.7278,5.7311,5.7333,5.5788,5.5402,5.5402,5.5402,5.5549,5.5607,5.5461,5.5658,5.5773,5.549,5.503,5.4634,5.4465,5.3737,5.2998,5.2493,5.221,5.1935,5.1603,5.1049,5.0562,5.0153,5.0758,5.0863,5.0194,5.0758,5.1025,5.0733,5.0858,5.0938,5.0938,5.0938,5.1017,5.1209,5.1017,5.1017,5.1209,5.1785,5.1993,5.186,5.2408,5.2569,6.2854,6.4038,6.5662,6.5696,6.7387,6.9214,6.9958,7.0128,7.0331,7.1109,7.1278,7.1278,7.1312,7.1312,7.1312,7.1312,7.1312,7.1312,7.1312,7.0669,7.0195,7.0161,6.8808,6.7895,6.7895,6.7252,6.6812,6.6812,6.6812,6.6812,6.6812,6.6812,6.6812,6.6779,6.5358,6.458,6.458,6.3125,6.2381,6.2381,6.2381,6.2381,6.2381,6.2381,6.2381,6.2381,6.2381,6.2381,6.2347,6.1637,6.1298,6.1129,5.9641,5.9032,5.8896,5.8152,5.7881,5.7881,5.7881,5.7881,5.7881,5.7881,5.7881,5.8027,5.8668,5.8875,5.8699,5.7887,5.7684,5.7333,5.5788,5.5402,5.5402,5.5402,5.5865,5.6118,5.5549,5.6339,5.6793,5.5636,5.5723,5.5757,5.5187,5.4306,5.3664,5.3664,5.2976,5.2042,5.0893,5.0697,5.0697,5.0697,5.1244,5.1322,5.0724,5.1244,5.1322,5.0751,5.126,5.1576,5.1576,5.1576,5.186,5.2434,5.186,5.186,5.2434,5.247,5.2493,5.2457,5.2493,5.2493,6.4005,6.5121,6.6677,6.7692,6.891,7.0026,7.077,7.0939,7.0872,7.0635,7.0567,7.0432,6.9925,7.0229,7.0567,7.0567,7.0973,7.1312,7.1312,7.1109,7.0567,6.9586,6.9011,6.8301,6.7286,6.6948,6.6812,6.6812,6.6812,6.6812,6.6812,6.6812,6.6576,6.6102,6.5121,6.4377,6.3869,6.2888,6.2381,6.2381,6.2381,6.2381,6.2381,6.2381,6.2381,6.2381,6.2381,6.2381,6.2347,6.1603,6.0994,6.0419,5.9404,5.8693,5.8254,5.7983,5.7881,5.7881,5.7881,5.7881,5.7991,5.8423,5.8529,5.8703,5.9414,5.9931,5.9991,5.868,5.8602,5.8617,5.7003,5.6608,5.6608,5.6608,5.674,5.6819,5.6635,5.6897,5.7087,5.6661,5.5887,5.522,5.4986,5.3809,5.2915,5.2915,5.2661,5.2364,5.1957,5.1909,5.1725,5.1337,5.1475,5.1525,5.1312,5.15,5.1676,5.1884,5.209,5.2186,5.2186,5.2186,5.228,5.2516,5.2317,5.2317,5.248,5.248,5.248,5.248,5.248,5.248,6.4918,6.5899,6.7184,6.8707,6.9654,7.0398,7.1142,7.1109,7.077,7.0297,6.9755,6.9316,6.9147,6.9248,6.9553,7.0094,7.0601,7.1007,7.1278,7.0872,7.0161,6.9214,6.8605,6.7895,6.6914,6.6576,6.6542,6.6779,6.6812,6.6812,6.6812,6.6812,6.6576,6.6102,6.5121,6.4377,6.3903,6.2888,6.2381,6.2381,6.2381,6.2381,6.2381,6.2381,6.2381,6.2381,6.2381,6.2381,6.2313,6.1298,6.0554,6.0013,5.8998,5.8321,5.7881,5.7881,5.7881,5.7881,5.7881,5.7881,5.8027,5.8668,5.8909,5.9078,6.0062,6.0473,6.0367,5.9251,5.9069,5.8854,5.755,5.7188,5.7188,5.7188,5.7188,5.7188,5.7188,5.7188,5.7188,5.7188,5.5957,5.4907,5.4907,5.3566,5.248,5.248,5.248,5.248,5.248,5.248,5.2364,5.1957,5.1909,5.1909,5.1909,5.1909,5.209,5.2457,5.248,5.248,5.248,5.248,5.248,5.248,5.248,5.248,5.248,5.248,5.248,5.248,5.248,5.248,6.5493,6.6305,6.7286,6.8673,6.9586,7.0331,7.1041,7.0601,7.006,7.0026,6.8842,6.7996,6.8741,6.8335,6.8368,6.9823,7.0161,7.05,7.121,7.0094,6.918,6.9113,6.7827,6.6914,6.6812,6.617,6.6034,6.6779,6.6779,6.6779,6.6812,6.6812,6.6779,6.6745,6.5358,6.458,6.4546,6.3125,6.2381,6.2381,6.2381,6.2381,6.2381,6.2381,6.2381,6.2381,6.2381,6.2381,6.2279,6.0723,6.0114,5.9945,5.8457,5.7881,5.7881,5.7881,5.7918,5.7954,5.7954,5.7954,5.8065,5.8772,5.8977,5.9246,6.0651,6.0509,5.981,5.9673,5.9035,5.8202,5.7406,5.7188,5.7188,5.7188,5.7188,5.7188,5.7188,5.7188,5.7188,5.7188,5.5957,5.487,5.4798,5.3494,5.248,5.248,5.248,5.248,5.248,5.248,5.248,5.248,5.248,5.248,5.248,5.248,5.248,5.248,5.248,5.248,5.248,5.248,5.248,5.248,5.248,5.248,5.248,5.248,5.248,5.248,5.248,5.248,6.5797,6.7083,6.847,6.8267,6.8808,6.9417,6.962,6.9045,6.8335,6.7793,6.6914,6.6136,6.5797,6.6914,6.803,6.8402,6.9925,7.1109,7.1278,7.1007,7.0331,6.9248,6.8741,6.8064,6.6914,6.6643,6.6609,6.6812,6.6305,6.6203,6.6779,6.6812,6.6542,6.6,6.5087,6.4343,6.3802,6.2854,6.2381,6.2381,6.2381,6.2381,6.2381,6.2381,6.2381,6.2381,6.2381,6.2381,6.2279,6.0723,6.0114,5.9945,5.8457,5.7881,5.7881,5.7881,5.8209,5.8633,5.8633,5.8633,5.8841,6.0058,6.0468,6.0626,6.1458,6.1179,6.0413,5.9779,5.9035,5.8202,5.7406,5.7188,5.7188,5.7188,5.7188,5.7188,5.7188,5.7188,5.7188,5.7188,5.5957,5.4508,5.3313,5.277,5.248,5.248,5.248,5.248,5.248,5.248,5.248,5.248,5.248,5.248,5.248,5.248,5.248,5.248,5.248,5.248,5.248,5.248,5.248,5.248,5.248,5.248,5.248,5.248,5.248,5.248,5.248,5.248,6.6779,6.759,6.847,6.7996,6.8233,6.8504,6.8166,6.776,6.7015,6.5662,6.5019,6.4613,6.4208,6.5662,6.7151,6.7793,6.9553,7.0939,7.1278,7.1041,7.05,6.9688,6.8977,6.8233,6.7387,6.6711,6.644,6.6779,6.644,6.6373,6.6779,6.6508,6.6136,6.5696,6.4681,6.3768,6.3024,6.2618,6.2381,6.2381,6.2381,6.2381,6.2381,6.2381,6.2381,6.2381,6.2381,6.2381,6.2279,6.0723,6.0114,5.9945,5.8457,5.7881,5.7918,5.8244,5.8598,5.8977,5.9609,5.9803,5.9931,6.0741,6.0986,6.114,6.1812,6.1208,6.0194,5.9724,5.8782,5.7768,5.7333,5.7188,5.7188,5.7188,5.7188,5.7188,5.7188,5.7188,5.7007,5.6319,5.5486,5.4399,5.277,5.248,5.248,5.248,5.248,5.248,5.248,5.248,5.248,5.248,5.248,5.248,5.248,5.248,5.248,5.248,5.248,5.248,5.248,5.248,5.248,5.248,5.248,5.248,5.248,5.248,5.248,5.248,5.248,5.248,6.8098,6.8064,6.803,6.7929,6.776,6.7421,6.6677,6.6373,6.5696,6.3768,6.3294,6.326,6.3362,6.4546,6.6034,6.7523,6.9045,7.0331,7.121,7.0737,7.0297,7.0195,6.9011,6.8132,6.7929,6.6745,6.6203,6.6779,6.6812,6.6812,6.6812,6.6102,6.5595,6.5392,6.4072,6.3057,6.2381,6.2381,6.2381,6.2381,6.2381,6.2381,6.2381,6.2381,6.2381,6.2381,6.2381,6.2381,6.2279,6.0723,6.0114,5.9945,5.8457,5.7954,5.8101,5.8668,5.9011,5.9346,6.059,6.1075,6.1133,6.1133,6.1133,6.1221,6.1804,6.0883,5.9615,5.9615,5.8456,5.7188,5.7188,5.7188,5.7188,5.7188,5.7188,5.7188,5.7188,5.7188,5.6754,5.5196,5.4907,5.4399,5.277,5.248,5.248,5.248,5.248,5.248,5.248,5.248,5.248,5.248,5.248,5.248,5.248,5.248,5.248,5.248,5.248,5.248,5.248,5.248,5.248,5.248,5.248,5.248,5.248,5.248,5.248,5.248,5.248,5.248,6.9045,6.8876,6.8741,6.8064,6.6981,6.5865,6.5155,6.4038,6.3057,6.2651,6.211,6.1873,6.2482,6.3802,6.5256,6.6745,6.8301,6.9755,7.1109,7.121,7.0872,7.0263,6.9958,6.9282,6.803,6.7658,6.732,6.6846,6.6812,6.6812,6.6812,6.6102,6.5121,6.3937,6.3057,6.2516,6.2381,6.2381,6.2381,6.2381,6.2381,6.2381,6.2381,6.2381,6.2381,6.2381,6.2381,6.2381,6.2279,6.0723,6.0114,5.9945,5.8457,5.8244,5.8737,5.8875,5.9641,6.0681,6.0927,6.1372,6.184,6.184,6.184,6.1868,6.195,6.0883,5.9615,5.9615,5.8456,5.7188,5.7188,5.7188,5.7188,5.7188,5.7188,5.7188,5.7188,5.7188,5.6754,5.5196,5.4907,5.4399,5.277,5.248,5.248,5.248,5.248,5.248,5.248,5.248,5.248,5.248,5.248,5.248,5.248,5.248,5.248,5.248,5.248,5.248,5.248,5.248,5.248,5.248,5.248,5.248,5.248,5.248,5.248,5.248,5.248,5.248,7.0364,6.9958,6.9383,6.8199,6.7083,6.5797,6.3869,6.2888,6.2042,6.0892,6.0994,6.1264,6.1197,6.3057,6.4715,6.5053,6.6677,6.8436,6.9958,7.0161,7.0331,7.0737,7.0432,6.9755,6.8639,6.8132,6.759,6.688,6.6812,6.6812,6.6812,6.6102,6.5189,6.4106,6.3362,6.2956,6.2956,6.2584,6.2381,6.2381,6.2381,6.2381,6.2381,6.2381,6.2381,6.2381,6.2381,6.2381,6.2313,6.1197,6.0486,5.9979,5.8896,5.8656,5.8977,5.9347,6.0125,6.1045,6.1401,6.172,6.1978,6.1978,6.1978,6.1978,6.1978,6.0883,5.9615,5.9615,5.8456,5.7188,5.7188,5.7188,5.7188,5.7188,5.7188,5.7188,5.7188,5.7188,5.6862,5.5703,5.5486,5.4979,5.3385,5.3132,5.2987,5.2552,5.248,5.248,5.248,5.248,5.248,5.248,5.248,5.248,5.248,5.248,5.248,5.248,5.248,5.248,5.248,5.248,5.248,5.248,5.248,5.248,5.248,5.248,5.248,5.248,5.248,5.248,7.1312,7.077,6.9857,6.8504,6.7354,6.5831,6.3024,6.2144,6.14,5.9607,6.0216,6.096,6.0655,6.2415,6.3869,6.3768,6.5087,6.6812,6.8808,6.9113,6.9654,7.1142,7.0804,7.006,6.918,6.8538,6.7793,6.688,6.6812,6.6745,6.6576,6.5865,6.5121,6.4377,6.3666,6.326,6.326,6.2685,6.2381,6.2381,6.2381,6.2381,6.2381,6.2381,6.2381,6.2381,6.2381,6.2381,6.2313,6.1434,6.0655,6.0013,5.9133,5.8934,5.9214,5.9774,6.0498,6.1315,6.184,6.1978,6.1978,6.1978,6.1978,6.1978,6.1978,6.0883,5.9615,5.9615,5.8456,5.7188,5.7188,5.7188,5.7188,5.7188,5.7188,5.7188,5.7188,5.7188,5.6971,5.6138,5.5993,5.5558,5.4182,5.382,5.3494,5.2842,5.2625,5.248,5.248,5.248,5.248,5.248,5.248,5.248,5.248,5.248,5.248,5.248,5.248,5.248,5.248,5.248,5.248,5.248,5.2661,5.277,5.277,5.2915,5.3023,5.3023,5.3023,5.3023,7.1312,7.077,6.9992,6.918,6.7387,6.5189,6.2922,6.1298,6.025,6.0047,6.0114,6.0622,6.1941,6.1873,6.2245,6.4174,6.4106,6.5053,6.8605,6.9113,6.9654,7.1142,7.1244,7.0669,6.9248,6.9045,6.8368,6.6914,6.6812,6.6508,6.5831,6.5087,6.4377,6.3632,6.2888,6.2482,6.2482,6.2415,6.2381,6.2381,6.2381,6.2381,6.2381,6.2381,6.2381,6.2381,6.2381,6.2381,6.2279,6.0825,6.0182,5.9945,5.8558,5.8771,5.9902,5.9966,6.0807,6.1923,6.1978,6.1978,6.1978,6.1978,6.1978,6.1978,6.1978,6.0883,5.9615,5.9615,5.8456,5.7188,5.7188,5.7188,5.7188,5.7188,5.7188,5.7188,5.7188,5.7188,5.6971,5.6138,5.5993,5.574,5.4943,5.4182,5.3675,5.3603,5.2951,5.248,5.248,5.248,5.248,5.248,5.248,5.248,5.248,5.248,5.248,5.248,5.248,5.248,5.248,5.248,5.248,5.248,5.3204,5.3603,5.3603,5.4327,5.4689,5.4689,5.4689,5.4689,7.1616,7.1413,7.0601,6.9417,6.7726,6.5797,6.3565,6.1907,6.0825,6.0825,6.0825,6.0858,6.0994,6.1163,6.1434,6.1839,6.2042,6.3159,6.6,6.6406,6.7286,6.9688,6.9553,6.9214,6.9113,6.8673,6.7929,6.688,6.6812,6.6474,6.573,6.5425,6.5121,6.4816,6.3666,6.3057,6.3057,6.2618,6.2381,6.2381,6.2381,6.2381,6.2381,6.2381,6.2381,6.2381,6.2381,6.2381,6.2313,6.1264,6.0554,6.0017,5.9443,5.9563,6.003,6.0437,6.1198,6.1978,6.1978,6.1978,6.1978,6.1978,6.1978,6.1978,6.1978,6.0883,5.9615,5.9615,5.8456,5.7188,5.7188,5.7188,5.7188,5.7188,5.7188,5.7188,5.7188,5.7188,5.7116,5.679,5.6717,5.6464,5.5703,5.4943,5.4436,5.4436,5.3748,5.3204,5.3204,5.3204,5.3023,5.2552,5.248,5.248,5.248,5.248,5.248,5.248,5.248,5.248,5.248,5.248,5.248,5.248,5.3277,5.3711,5.3711,5.4508,5.4907,5.4907,5.4907,5.4907,7.1278,7.1548,7.0973,6.9485,6.7963,6.6237,6.4005,6.2381,6.1298,6.1298,6.1129,6.0858,6.052,6.0723,6.0757,6.0182,6.0791,6.2009,6.4005,6.4478,6.5561,6.8132,6.7929,6.7793,6.8368,6.7929,6.7354,6.6846,6.6812,6.6474,6.573,6.5493,6.5256,6.5053,6.3835,6.3193,6.3193,6.2651,6.2381,6.2381,6.2381,6.2381,6.2381,6.2381,6.2381,6.2381,6.2381,6.2381,6.2313,6.1366,6.0622,6.0088,5.9834,5.9834,6.0062,6.0741,6.143,6.1978,6.1978,6.1978,6.1978,6.1978,6.1833,6.1652,6.1652,6.0701,5.9615,5.9615,5.8456,5.7188,5.7188,5.7188,5.7188,5.7188,5.7188,5.7188,5.7188,5.7188,5.7188,5.7188,5.7188,5.7007,5.6428,5.574,5.5233,5.5233,5.4544,5.4037,5.4037,5.4037,5.3856,5.3277,5.2987,5.277,5.2516,5.2733,5.2733,5.2516,5.2733,5.2733,5.2516,5.2733,5.2842,5.2842,5.3856,5.4363,5.4363,5.5196,5.5595,5.5595,5.5595,5.5595,6.9992,7.0737,7.0973,6.9485,6.7963,6.6237,6.4005,6.2381,6.1298,6.1298,6.0655,6.0351,6.1129,6.0655,6.0114,6.0114,6.0791,6.1839,6.3328,6.414,6.5155,6.6677,6.6846,6.6812,6.6846,6.6846,6.6812,6.6812,6.6812,6.6474,6.573,6.5019,6.4275,6.3565,6.2787,6.2415,6.2415,6.2381,6.2381,6.2381,6.2381,6.2381,6.2381,6.2381,6.2381,6.2381,6.2381,6.2381,6.2279,6.0723,6.0114,6.002,5.9216,5.938,6.0062,6.0741,6.143,6.1978,6.1978,6.1978,6.1978,6.1978,6.1435,6.0783,6.0783,6.0267,5.9615,5.9615,5.8456,5.7188,5.7188,5.7188,5.7188,5.7188,5.7188,5.7188,5.7188,5.7188,5.7188,5.7188,5.7188,5.7188,5.7188,5.65,5.5993,5.5993,5.5377,5.4907,5.4907,5.4907,5.487,5.487,5.4146,5.3385,5.2552,5.3241,5.3349,5.2552,5.3241,5.3313,5.2516,5.3277,5.3675,5.3675,5.5196,5.5957,5.5957,5.679,5.7188,5.7188,5.7188,5.7188,6.7692,6.8402,6.8605,6.7151,6.6034,6.4986,6.3768,6.2753,6.2042,6.2042,6.1434,6.0825,6.052,5.9877,5.9505,6.0013,6.0317,6.1028,6.2516,6.3396,6.441,6.5865,6.6948,6.7354,6.688,6.6812,6.6812,6.6812,6.6812,6.6271,6.5019,6.4715,6.4275,6.3531,6.2787,6.2381,6.2381,6.2381,6.2381,6.2381,6.2381,6.2381,6.2381,6.2381,6.2381,6.2381,6.2381,6.2381,6.2279,6.0723,6.0114,6.0058,5.9769,5.9806,6.0125,6.1286,6.184,6.1978,6.1978,6.1978,6.1906,6.1362,6.1,6.0701,6.0158,5.9434,5.8673,5.8094,5.7587,5.7188,5.7188,5.7188,5.7188,5.7188,5.7188,5.7188,5.7188,5.7188,5.7188,5.7188,5.7188,5.7188,5.7188,5.6536,5.6174,5.6717,5.6138,5.5631,5.5631,5.5631,5.545,5.4943,5.4689,5.4436,5.4146,5.3856,5.382,5.411,5.4399,5.4399,5.4146,5.4399,5.4508,5.4508,5.5486,5.5993,5.5993,5.679,5.7188,5.7188,5.7188,5.7188,6.6102,6.6914,6.7184,6.6,6.5155,6.441,6.3666,6.2922,6.2381,6.2381,6.1569,6.0689,6.0182,5.9505,5.9066,5.9235,5.9979,6.0791,6.1434,6.2685,6.3937,6.5121,6.6339,6.688,6.644,6.6643,6.6677,6.6406,6.6373,6.573,6.4275,6.4174,6.3869,6.3125,6.2618,6.2381,6.2381,6.2381,6.2381,6.2381,6.2381,6.2381,6.2381,6.2381,6.2381,6.2381,6.2381,6.2381,0.0,6.0723,6.0114,6.0095,6.0005,5.9998,6.0156,6.1523,6.1978,6.1978,6.1978,6.1978,6.1869,6.1037,6.0412,5.976,5.8927,5.8565,5.8239,5.7442,5.7188,5.7188,5.7188,5.7188,5.7188,5.7188,5.7188,5.7188,5.7188,5.7188,5.7188,5.7188,5.7188,5.7188,5.7188,5.679,5.6609,5.7116,5.6754,5.6428,5.6428,5.6428,5.6283,5.5812,5.5486,5.545,5.574,5.5015,5.4653,5.4907,5.516,5.5196,5.4907,5.516,5.5305,5.5305,5.6066,5.6428,5.6428,5.6971,5.7188,5.7188,5.7188,5.7188,0.0,6.6,6.6406,6.5628,6.4952,6.4275,6.3599,6.2888,0.0,6.2313,6.1129,6.0114,6.0114,5.9471,5.8727,5.8152,5.9776,6.0926,6.0283,6.2144,6.3869,6.4647,6.5358,6.5764,6.5764,6.6339,6.644,6.573,6.5628,6.4986,6.3599,6.3531,6.3159,6.2415,6.2381,6.2381,6.2381,6.2381,6.2381,6.2381,6.2381,6.2381,6.2381,6.2381,6.2381,6.2381,6.2381,6.2347,6.2212,6.0723,6.008,6.0028,6.0005,5.9998,6.0156,6.1523,6.1978,6.1978,6.1978,6.1942,6.1761,6.0892,5.9579,5.8166,5.7442,5.7732,5.8166,5.7406,5.7188,5.7188,5.7188,5.7188,5.7188,5.7188,5.7188,5.7188,5.7188,5.7188,5.7188,5.7188,5.7188,5.7188,5.7188,5.7188,5.7188,5.7188,5.7188,5.7188,5.7188,5.7188,5.7188,5.7188,5.6536,5.6391,5.7152,5.6464,5.574,5.5124,5.5703,5.5776,5.5088,5.5703,5.6066,5.6066,5.6826,5.7188,5.7188,5.7188,5.7188,5.7188,5.7188,5.7188,6.3057,0.0,6.4106,6.3362,6.3024,6.2854,0.0,6.2516,6.2245,6.167,6.0791,6.0114,6.0114,5.9032,5.8457,5.9438,5.9573,5.9911,6.0892,6.2956,6.4816,6.6136,6.644,6.6542,6.6542,6.6203,6.5865,6.5696,6.5155,6.4478,6.3565,6.3531,6.3159,6.2415,6.2381,6.2381,6.2381,6.2381,6.2381,6.2381,6.2381,6.2381,6.2381,6.2381,6.2381,6.2381,6.2381,6.2076,6.1467,6.0486,5.9776,5.9315,5.9796,5.9998,6.0156,6.1523,6.1978,6.1978,6.1978,6.158,6.0846,5.9434,5.8275,5.7442,5.7261,5.7333,5.7442,5.7261,5.7188,5.7188,5.7188,5.7188,5.7188,5.7188,5.7188,5.7188,5.7188,5.7188,5.7188,5.7188,5.7188,5.7188,5.7188,5.7188,5.7188,5.7188,5.7188,5.7188,5.7188,5.7188,5.7188,5.7188,5.7043,5.6971,5.7188,5.6464,5.6174,5.6645,5.6826,5.6826,5.6681,5.6826,5.6899,5.6899,5.708,5.7188,5.7188,5.7188,5.7188,5.7188,5.7188,5.7188,6.2381,6.2956,6.3429,6.299,6.2888,6.2821,6.2482,6.2144,6.167,6.0926,6.0148,5.9607,5.9607,5.893,5.8558,5.8998,5.9641,6.0588,6.211,6.3632,6.5019,6.617,6.6609,6.6677,6.6339,6.5933,6.5425,6.4749,6.4343,6.3768,6.3024,6.299,6.2821,6.2415,6.2381,6.2381,6.2381,6.2381,6.2381,6.2381,6.2381,6.2381,6.2381,6.2381,6.2381,6.2381,6.2381,6.1975,6.1231,6.0419,5.9865,5.9553,5.9859,6.0188,6.056,6.1608,6.1978,6.1978,6.1978,6.1218,6.005,5.8818,5.784,5.7188,5.7188,5.7188,5.7188,5.7188,5.7188,5.7188,5.7188,5.7188,5.7188,5.7188,5.7188,5.7188,5.7188,5.7188,5.7188,5.7188,5.7188,5.7188,5.7188,5.7188,5.7188,5.7188,5.7188,5.7188,5.7188,5.7188,5.7188,5.7188,5.7188,5.7188,5.7188,5.679,5.6717,5.7152,5.7188,5.7188,5.7188,5.7188,5.7188,5.7188,5.7188,5.7188,5.7188,5.7188,5.7188,5.7188,5.7188,5.7188,6.2178,6.2854,6.3497,6.3362,6.3328,6.3159,6.2381,6.1637,6.0892,6.0114,5.9438,5.9032,5.9167,5.9099,5.8863,5.849,6.0047,6.1772,6.3159,6.3971,6.4749,6.5595,6.6237,6.6406,6.5764,6.5595,6.4952,6.3632,6.3396,6.3057,6.2415,6.2381,6.2381,6.2381,6.2381,6.2381,6.2381,6.2381,6.2381,6.2381,6.2381,6.2381,6.2381,6.2381,6.2381,6.2381,6.2279,6.1806,6.1061,6.025,5.9916,5.9944,5.9988,6.0406,6.1075,6.1748,6.1978,6.1942,6.1725,6.0711,5.947,5.8528,5.7768,5.7188,5.7188,5.7188,5.7188,5.7188,5.7188,5.7188,5.7188,5.7188,5.7188,5.7188,5.7188,5.7188,5.7188,5.7188,5.7188,5.7188,5.7188,5.7188,5.7188,5.7188,5.7188,5.7188,5.7188,5.7188,5.7188,5.7188,5.7188,5.7188,5.7188,5.7188,5.7188,5.7188,5.7188,5.7188,5.7188,5.7188,5.7188,5.7188,5.7188,5.7188,5.7188,5.7188,5.7188,5.7188,5.7188,5.7188,5.7188,5.7188,6.1264,6.2482,6.3362,6.2719,6.255,6.2381,6.1637,6.0858,6.008,5.9336,5.9099,5.9201,5.981,5.9438,5.9404,6.0588,6.1061,6.1603,6.2448,6.3193,6.4174,6.5527,6.5797,6.5797,6.5696,6.5121,6.441,6.3565,6.2922,6.2516,6.2381,6.2381,6.2381,6.2381,6.2381,6.2381,6.2381,6.2381,6.2381,6.2381,6.2381,6.2381,6.2381,6.2381,6.2381,6.2347,6.1738,6.1028,6.0216,5.9471,5.9132,5.915,5.9744,6.0406,6.1075,6.1748,6.1978,6.1797,6.0448,5.9832,5.9361,5.7876,5.7297,5.7188,5.7188,5.7188,5.7188,5.7188,5.7188,5.7188,5.7188,5.7188,5.7188,5.7188,5.7188,5.7188,5.7188,5.7188,5.7188,5.7188,5.7188,5.7188,5.7188,5.7188,5.7188,5.7188,5.7188,5.7188,5.7188,5.7188,5.7188,5.7188,5.7188,5.7188,5.7188,5.7188,5.7188,5.7188,5.7188,5.7188,5.7188,5.7188,5.7188,5.7188,5.7188,5.7188,5.7188,5.7188,5.7188,5.7188,5.7188,5.7188,6.0554,6.1738,6.2821,6.2482,6.3294,6.3869,6.2753,6.1907,6.0892,5.9336,5.9032,5.9133,5.9438,5.9911,6.0757,6.2245,6.2144,6.2009,6.2347,6.3024,6.3768,6.4444,6.485,6.4952,6.4546,6.4208,6.37,6.2956,6.2584,6.2381,6.2381,6.2381,6.2381,6.2381,6.2381,6.2381,6.2381,6.2381,6.2381,6.2381,6.2381,6.2381,6.2381,6.1975,6.1806,6.1772,6.0994,6.0216,5.9471,5.9167,5.9178,5.9546,5.987,6.0656,6.1608,6.1895,6.1978,6.1833,6.0665,5.9977,5.9434,5.8239,5.755,5.7188,5.7188,5.7188,5.7188,5.7188,5.7188,5.7188,5.7188,5.7188,5.7188,5.7188,5.7188,5.7188,5.7188,5.7188,5.7188,5.7188,5.7188,5.7188,5.7188,5.7188,5.7188,5.7188,5.7188,5.7188,5.7188,5.7188,5.7188,5.7188,5.7188,5.7188,5.7188,5.7188,5.7188,5.7188,5.7188,5.7188,5.7188,5.7188,5.7188,5.7188,5.7188,5.7188,5.7188,5.7188,5.7188,5.7188,5.7188,5.7188,5.981,6.0825,6.1907,6.2076,6.3396,6.4444,6.37,6.2651,6.14,5.9877,5.9539,5.9539,5.9539,6.0655,6.1941,6.3057,6.2753,6.2381,6.2381,6.2888,6.3328,6.3497,6.4005,6.414,6.3565,6.3531,6.3193,6.2448,6.2381,6.2381,6.2381,6.2381,6.2381,6.2381,6.2381,6.2381,6.2381,6.2212,6.2212,6.2381,6.2212,6.2144,6.211,6.1366,6.1028,6.0994,6.0182,5.9539,5.8998,5.8829,5.9218,5.9998,5.9998,6.0807,6.1978,6.1978,6.1978,6.1869,6.1073,6.0267,5.947,5.8673,5.784,5.7188,5.7188,5.7188,5.7188,5.7188,5.7188,5.7188,5.7188,5.7188,5.7188,5.7188,5.7188,5.7188,5.7188,5.7188,5.7188,5.7188,5.7188,5.7188,5.7188,5.7188,5.7188,5.7188,5.7188,5.7188,5.7188,5.7188,5.7188,5.7188,5.7188,5.7188,5.7188,5.7188,5.7188,5.7188,5.7188,5.7188,5.7188,5.7188,5.7188,5.7188,5.7188,5.7188,5.7188,5.7188,5.7188,5.7188,5.7188,5.7188,5.8896,5.9674,6.0452,6.1197,6.1501,6.1941,6.3226,6.1839,6.0419,6.1028,6.1129,6.1129,6.1129,6.1772,6.2347,6.2448,6.2415,6.2381,6.2381,6.2448,6.2719,6.3429,6.3565,6.3565,6.3531,6.3531,6.3193,6.2448,6.2381,6.2381,6.2381,6.2381,6.2381,6.2381,6.2381,6.2381,6.2381,6.1704,6.1704,6.2381,6.1704,6.1366,6.1366,6.0554,6.0182,6.0148,5.9404,5.9066,5.8964,5.8254,5.8771,5.9998,5.9998,6.0807,6.1978,6.1978,6.1978,6.1869,6.1073,6.0267,5.947,5.8673,5.784,5.7188,5.7188,5.7188,5.7188,5.7188,5.7188,5.7188,5.7188,5.7188,5.7188,5.7188,5.7188,5.7188,5.7188,5.7188,5.7188,5.7188,5.7188,5.7188,5.7188,5.7188,5.7188,5.7188,5.7188,5.7188,5.7188,5.7188,5.7188,5.7188,5.7188,5.7188,5.7188,5.7188,5.7188,5.7188,5.7188,5.7188,5.7188,5.7188,5.7188,5.7188,5.7188,5.7188,5.7188,5.7188,5.7188,5.7188,5.7188,5.7188,5.8254,5.9201,6.0182,6.0486,6.0926,6.1704,6.3159,6.2854,6.2313,6.2618,6.2313,6.1839,6.14,6.2279,6.2922,6.2448,6.2787,6.2922,6.2448,6.2381,6.2482,6.2787,6.2821,6.2821,6.2821,6.2821,6.2685,6.2415,6.2381,6.2381,6.2381,6.2381,6.2381,6.2381,6.2381,6.2178,6.1704,6.1434,6.1197,6.096,6.0689,6.0554,6.052,5.9776,5.9438,5.937,5.8626,5.8321,5.8324,5.8489,5.9113,6.0062,6.0927,6.1551,6.1978,6.1978,6.1978,6.1942,6.1652,6.0701,5.9651,5.9832,5.8673,5.7297,5.7804,5.7587,5.7188,5.7188,5.7188,5.7188,5.7188,5.7188,5.7188,5.7188,5.7188,5.7213,5.7289,5.7313,5.7338,5.7412,5.7437,5.7437,5.7437,5.7437,5.7437,5.7437,5.7437,5.7437,5.7437,5.7437,5.7412,5.7313,5.7239,5.7188,5.7188,5.7188,5.7188,5.7188,5.7188,5.7188,5.7188,5.7188,5.7188,5.7188,5.7188,5.7188,5.7188,5.7188,5.7188,5.7188,5.7188,5.7188,5.8254,5.8998,5.981,6.0047,6.0351,6.1095,6.3057,6.3531,6.3632,6.4106,6.3226,6.2313,6.2042,6.2448,6.2719,6.2415,6.2821,6.299,6.2448,6.2381,6.2381,6.2381,6.2381,6.2381,6.2381,6.2381,6.2381,6.2381,6.2381,6.2381,6.2381,6.2381,6.2381,6.2381,6.2178,6.1806,6.1298,6.0825,6.0317,5.9742,5.9505,5.9539,5.9742,5.8998,5.866,5.8626,5.8118,5.8027,5.828,5.8703,5.9445,6.0406,6.1579,6.1978,6.1978,6.1978,6.1978,6.1942,6.1688,6.0919,6.0013,6.005,5.8927,5.7623,5.7913,5.7623,5.7188,5.7188,5.7188,5.7188,5.7188,5.7188,5.7213,5.7239,5.7264,5.7289,5.7437,5.7461,5.7486,5.7559,5.7583,5.7583,5.7583,5.7583,5.7583,5.7583,5.7583,5.7583,5.7583,5.7583,5.7559,5.7461,5.7338,5.7264,5.7264,5.7213,5.7188,5.7188,5.7188,5.7188,5.7188,5.7188,5.7188,5.7188,5.7188,5.7188,5.7188,5.7188,5.7188,5.7188,5.7188,5.7188,5.8998,5.8998,5.9167,5.9911,5.9573,5.9844,6.2854,6.3497,6.3903,6.5392,6.3937,6.2618,6.3362,6.2313,6.1535,6.2245,6.2381,6.2381,6.2381,6.2381,6.2381,6.2381,6.2381,6.2381,6.2381,6.2381,6.2381,6.2381,6.2381,6.2381,6.2381,6.2381,6.2381,6.2381,6.167,6.1298,6.1298,5.9776,5.9032,5.8998,5.8254,5.8287,5.8964,5.822,5.7881,5.7881,5.7881,5.828,5.8909,5.8875,5.9739,6.1075,6.172,6.1978,6.1978,6.1978,6.1978,6.1869,6.11,6.081,6.0557,5.8927,5.842,5.8239,5.7442,5.7188,5.7188,5.7188,5.7188,5.7188,5.7188,5.7188,5.7213,5.7363,5.7388,5.7437,5.7559,5.7583,5.7583,5.7583,5.7583,5.7583,5.7583,5.7583,5.7583,5.7583,5.7583,5.7583,5.7583,5.7619,5.7619,5.7619,5.7498,5.7424,5.7424,5.7264,5.7188,5.7188,5.7188,5.7188,5.7188,5.7188,5.7188,5.7188,5.7188,5.7188,5.7188,5.7188,5.7188,5.7188,5.7188,5.7188,5.6968,5.7442,5.8287,5.849,5.9979,6.1772,6.3193,6.3091,6.3125,6.4613,6.441,6.37,6.2888,6.2381,6.1975,6.167,6.2042,6.2381,6.2381,6.2381,6.2381,6.2381,6.2381,6.2381,6.2381,6.2381,6.2381,6.2381,6.2381,6.2381,6.2381,6.2381,6.2144,6.1637,6.14,6.0791,5.9708,5.9235,5.8761,5.822,5.7983,5.8017,5.822,5.7983,5.7881,5.7881,5.7881,5.8027,5.828,5.9281,6.0468,6.172,6.1923,6.1978,6.1978,6.1978,6.1978,6.1969,6.1824,6.1362,6.0738,6.0336,5.9403,5.8347,5.813,5.7659,5.7188,5.7188,5.7188,5.7188,5.7188,5.7188,5.7213,5.7363,5.7388,5.7461,5.7679,5.7763,5.7786,5.7881,5.7881,5.7881,5.7881,5.7881,5.7881,5.7881,5.7881,5.7881,5.7881,5.8286,5.8555,5.8458,5.8335,5.821,5.8134,5.754,5.7188,5.7188,5.7188,5.7188,5.7188,5.7188,5.7188,5.7188,5.7188,5.7188,5.7188,5.7188,5.7188,5.7188,5.7188,5.7188,5.7915,5.8355,5.8998,5.9911,6.1264,6.2651,6.37,6.4038,6.4309,6.4918,6.458,6.3903,6.299,6.2347,6.1907,6.1772,6.211,6.2381,6.2381,6.2381,6.2381,6.2381,6.2381,6.2381,6.2381,6.2381,6.2381,6.2381,6.2381,6.2245,6.1975,6.1941,6.1603,6.0858,6.0554,5.9945,5.9032,5.8727,5.8355,5.7881,5.7881,5.7881,5.7881,5.7881,5.7881,5.7918,5.8173,5.8458,5.8841,5.9934,6.1016,6.1978,6.1978,6.1978,6.1978,6.1978,6.1851,6.1579,6.1359,6.0923,6.0389,5.9786,5.9081,5.8424,5.8047,5.7587,5.7188,5.7188,5.7188,5.7188,5.7188,5.7239,5.7313,5.7437,5.7461,5.7534,5.7834,5.7881,5.7904,5.7973,5.7997,5.7997,5.7997,5.7997,5.7997,5.7997,5.8253,5.8474,5.8474,5.91,5.9542,5.9445,5.9322,5.9186,5.911,5.8333,5.7956,5.8308,5.7942,5.788,5.8232,5.7866,5.784,5.8166,5.784,5.7695,5.7695,5.7369,5.7188,5.7188,5.7188,5.7188,6.025,6.0452,6.0622,6.2787,6.2956,6.2962,6.4396,6.5752,6.6532,6.5839,6.4647,6.37,6.3632,6.2448,6.1704,6.2279,6.2381,6.2381,6.2381,6.2381,6.2381,6.2381,6.2381,6.2381,6.2381,6.2381,6.2381,6.2381,6.2347,6.2009,6.1332,6.1231,6.0825,6.0047,5.937,5.8998,5.893,5.822,5.7881,5.7881,5.7881,5.7881,5.7881,5.7881,5.7881,5.7918,5.8563,5.9281,6.003,6.0651,6.1343,6.1978,6.1978,6.1978,6.1978,6.1978,6.1579,6.0887,6.0186,5.9972,5.9746,5.808,5.803,5.8417,5.7492,5.7188,5.7188,5.7188,5.7188,5.7213,5.7213,5.7313,5.7437,5.7583,5.7607,5.7715,5.795,5.7997,5.7997,5.7997,5.7997,5.7997,5.7997,5.807,5.8143,5.8217,5.8841,5.9294,5.9294,6.0015,6.0493,6.0505,6.0372,6.0298,6.0274,5.9444,5.9224,5.9953,5.9172,5.906,5.9885,5.9004,5.8854,5.9579,5.8891,5.8456,5.8383,5.7659,5.7261,5.7188,5.7188,5.7188,5.7103,5.849,6.0385,6.1501,6.2956,6.4375,6.5401,6.5903,6.6014,6.5725,6.5425,6.5053,6.4478,6.3632,6.2888,6.2448,6.2381,6.2381,6.2381,6.2381,6.2381,6.2381,6.2381,6.2381,6.2381,6.2381,6.2381,6.2381,6.1873,6.1467,6.1298,6.0689,6.0013,5.9268,5.9099,5.8727,5.8118,5.7983,5.7881,5.7881,5.7881,5.7881,5.7881,5.7881,5.7881,5.7918,5.8029,5.8841,5.9998,6.0156,6.0927,6.1978,6.1978,6.1978,6.1978,6.1978,6.1579,6.0986,6.0908,6.0486,5.9844,5.8933,5.8652,5.8442,5.7617,5.7264,5.7188,5.7188,5.7264,5.7338,5.7338,5.7437,5.7583,5.7739,5.7763,5.781,5.7973,5.7997,5.7997,5.7997,5.7997,5.7997,5.7997,5.851,5.9171,5.9795,6.0052,6.0162,6.0162,6.086,6.1288,6.1189,6.1165,6.1115,6.0989,6.0234,5.9807,5.999,5.9681,5.9895,6.0695,5.9838,5.9434,5.9615,5.9434,5.9035,5.8383,5.8239,5.7804,5.7188,5.7188,5.7188,5.7645,5.9201,6.1129,6.2956,6.4005,6.4803,6.5636,6.5275,6.4986,6.5705,6.5579,6.528,6.4747,6.3864,6.3057,6.2488,6.2459,6.2498,6.242,6.2381,6.2381,6.2381,6.2381,6.2381,6.2381,6.2381,6.2381,6.2381,6.1704,6.1129,6.0757,6.0013,5.9235,5.849,5.8457,5.8287,5.7881,5.7881,5.7881,5.7881,5.7881,5.7881,5.7881,5.7881,5.7881,5.7881,5.7881,5.8702,5.9998,5.9998,6.0807,6.1978,6.1978,6.1978,6.1978,6.1978,6.1352,6.0518,6.0595,5.9919,5.8957,5.8578,5.8336,5.8105,5.7582,5.7338,5.7264,5.7213,5.7239,5.7313,5.7363,5.7486,5.7607,5.7786,5.781,5.7857,5.7973,5.7997,5.7997,5.7997,5.7997,5.8107,5.851,5.9245,5.9942,6.0346,6.075,6.097,6.097,6.1667,6.2156,6.2082,6.2082,6.2057,6.1981,6.1249,6.092,6.1323,6.0792,6.0835,6.1636,6.1098,6.0774,6.0774,6.0375,5.9796,5.8963,5.8601,5.7985,5.7188,5.7188,5.7406,5.8693,6.0385,6.2144,6.4816,6.5155,6.4925,6.5433,6.4625,6.416,6.5704,6.5486,6.4959,6.4807,6.3878,6.2983,6.2532,6.2576,6.2615,6.242,6.2381,6.2381,6.2381,6.2381,6.2381,6.2381,6.2381,6.2381,6.2381,6.1603,6.0791,6.0148,5.9302,5.8524,5.7915,5.7881,5.7881,5.7881,5.7881,5.7881,5.7881,5.7881,5.7881,5.7881,5.7881,5.7881,5.7918,5.8027,5.8806,5.9998,5.9984,6.0719,6.1761,6.1616,6.1652,6.1761,6.1616,6.0907,5.9939,5.9819,5.9006,5.795,5.7881,5.7834,5.7786,5.7534,5.7437,5.7363,5.7264,5.7239,5.7289,5.7388,5.7534,5.7715,5.781,5.7857,5.7881,5.7973,5.7997,5.7997,5.7997,5.7997,5.829,5.9221,5.9979,6.0493,6.0786,6.1374,6.1814,6.1814,6.2401,6.278,6.278,6.278,6.278,6.278,6.2181,6.2108,6.2718,6.1905,6.1678,6.2344,6.2141,6.1978,6.1978,6.1326,6.0629,5.9832,5.9144,5.8347,5.7406,5.755,5.7913,5.619,5.9201,6.2651,6.4343,6.5155,6.5433,6.5038,6.4778,6.4897,6.5829,6.5293,6.4733,6.505,6.4352,6.348,6.2756,6.2654,6.2615,6.242,6.2381,6.2381,6.2381,6.2381,6.2381,6.2381,6.2381,6.2381,6.2381,6.1061,6.0216,6.0114,5.8795,5.7983,5.7881,5.7881,5.7881,5.7881,5.7881,5.7881,5.7881,5.7881,5.7881,5.7881,5.7881,5.7881,5.7918,5.8528,5.9247,5.9995,5.9881,6.0246,6.0892,6.0194,6.0375,6.0883,6.0194,5.9875,5.9739,5.9174,5.8482,5.7857,5.795,5.7904,5.781,5.7763,5.7559,5.7388,5.7363,5.7437,5.7534,5.7559,5.7786,5.795,5.7973,5.7973,5.7973,5.7997,5.7997,5.7997,5.7997,5.7997,5.8474,5.9979,6.0346,6.086,6.2291,6.2585,6.2658,6.2658,6.2732,6.278,6.278,6.278,6.278,6.278,6.267,6.2645,6.2629,6.2365,6.2235,6.2212,6.2087,6.1978,6.1978,6.1869,6.1435,6.0665,6.0557,5.9724,5.8275,5.8963,5.8963,5.6894,5.9641,6.2347,6.4647,6.5155,6.5108,6.5244,6.4645,6.432,6.5227,6.4303,6.3702,6.4855,6.4225,6.3376,6.2953,6.2962,6.2923,6.2615,6.2537,6.2498,6.242,6.2381,6.2381,6.2381,6.2381,6.2212,6.1806,6.0757,5.9911,5.9505,5.849,5.7881,5.7881,5.7881,5.7881,5.7881,5.7881,5.7881,5.7881,5.7881,5.7881,5.7881,5.7881,5.7881,5.7918,5.8209,5.8977,5.9963,5.9439,5.9873,6.0738,5.9905,5.9832,6.0086,5.9724,5.9455,5.9197,5.8907,5.8397,5.7927,5.7973,5.7973,5.7904,5.7834,5.7691,5.751,5.751,5.7486,5.751,5.7655,5.781,5.7904,5.7973,5.7997,5.7997,5.7997,5.7997,5.8143,5.8584,5.9061,5.9722,6.086,6.1447,6.1998,6.267,6.278,6.278,6.278,6.278,6.2755,6.2705,6.2755,6.2755,6.2705,6.2755,6.273,6.2603,6.2475,6.2318,6.2222,6.206,6.1978,6.1978,6.1978,6.158,6.081,6.0375,5.9542,5.8383,5.8311,5.8565,5.7021,5.9268,6.1095,6.3869,6.4444,6.4478,6.5019,6.4309,6.3672,6.4137,6.3278,6.2824,6.4177,6.3721,6.3076,6.2962,6.3038,6.3,6.2654,6.2615,6.2537,6.242,6.2381,6.2381,6.2381,6.2381,6.2076,6.1366,6.0554,5.9776,5.9066,5.8287,5.7881,5.7881,5.7881,5.7881,5.7881,5.7881,5.7881,5.7881,5.7881,5.7881,5.7881,5.7881,5.7881,5.7918,5.8065,5.8737,5.9682,5.9034,5.9329,6.0122,5.9325,5.9108,5.9289,5.9098,5.8925,5.8737,5.8592,5.8262,5.795,5.7997,5.7997,5.7973,5.7857,5.7715,5.7583,5.7559,5.7486,5.7486,5.7715,5.781,5.7881,5.7973,5.7997,5.807,5.8253,5.829,5.8547,5.9331,6.0015,6.0676,6.1447,6.2108,6.2585,6.2743,6.278,6.278,6.278,6.278,6.2755,6.2654,6.273,6.2755,6.2654,6.273,6.273,6.2603,6.25,6.2291,6.1933,6.1859,6.1692,6.1523,6.1487,6.1268,6.081,6.0034,5.915,5.8139,5.7778,5.8132,5.5033,5.6968,5.8626,6.096,6.255,6.3599,6.3632,6.3565,6.3328,6.2691,6.2448,6.2493,6.2761,6.2765,6.2727,6.2727,6.2693,6.2688,6.242,6.242,6.242,6.2381,6.2381,6.2381,6.2381,6.2381,6.2076,6.1366,6.0554,5.9776,5.9066,5.8287,5.7881,5.7881,5.7881,5.7881,5.7881,5.7881,5.7881,5.7881,5.7881,5.7881,5.7881,5.7881,5.7881,5.7918,5.8564,5.8864,5.8843,5.8674,5.8581,5.8456,5.7623,5.7804,5.8409,5.7738,5.7969,5.8565,5.8044,5.7847,5.7834,5.7973,5.7997,5.7973,5.7857,5.7715,5.7559,5.7437,5.7486,5.7583,5.7583,5.781,5.7997,5.7997,5.7997,5.8217,5.8964,5.9148,5.9368,6.0199,6.0382,6.0676,6.1447,6.163,6.1924,6.2695,6.278,6.278,6.278,6.278,6.278,6.278,6.278,6.278,6.278,6.278,6.273,6.2603,6.2603,6.2202,6.1272,6.1279,6.0891,6.0125,6.0093,6.0326,6.081,6.0124,5.9045,5.7572,5.8287,5.833,5.3719,5.5378,5.69,5.866,6.0622,6.2212,6.2685,6.3159,6.3429,6.3159,6.3125,6.2956,6.26,6.2576,6.2901,6.3494,6.3601,6.3524,6.3328,6.3289,6.308,6.2488,6.2381,6.2381,6.2381,6.2381,6.1873,6.0622,6.025,5.9573,5.8355,5.8017,5.7881,5.7881,5.7881,5.7881,5.7881,5.7881,5.7881,5.7881,5.7881,5.7881,5.7881,5.7408,5.7171,5.7207,5.6947,5.7599,5.8741,5.8184,5.8139,5.8311,5.7514,5.7369,5.7612,5.7447,5.7619,5.7935,5.7836,5.7857,5.795,5.7973,5.7997,5.7997,5.795,5.775,5.7729,5.8288,5.8361,5.8396,5.9103,5.9347,5.9443,5.9515,5.9538,5.9735,6.0445,6.0274,6.0236,6.1006,6.1153,6.1447,6.2254,6.2365,6.2475,6.2768,6.278,6.278,6.278,6.278,6.2755,6.2679,6.2755,6.2755,6.2679,6.2755,6.273,6.2603,6.2603,6.2202,6.1214,6.1185,6.0831,5.9998,5.9057,5.8864,5.9509,5.8774,5.7906,5.6846,5.7164,5.7434,5.2164,5.3786,5.5446,5.7408,5.866,5.9945,6.1941,6.2381,6.2516,6.3024,6.3125,6.3057,6.2821,6.2668,6.2785,6.3451,6.3723,6.3786,6.3396,6.3526,6.3385,6.2522,6.2381,6.2381,6.2381,6.2381,6.1873,6.0588,6.025,5.9573,5.8321,5.8017,5.7881,5.7881,5.7881,5.7881,5.7881,5.7881,5.7881,5.7881,5.7881,5.7746,5.7509,5.7036,5.6664,5.6393,5.5919,5.6473,5.7691,5.7355,5.7433,5.7654,5.7329,5.7188,5.7213,5.7388,5.751,5.7643,5.781,5.7927,5.8033,5.8327,5.84,5.8414,5.8684,5.8591,5.8555,5.9091,5.9149,5.9183,5.9919,6.0188,6.0262,6.031,6.053,6.0872,6.1286,6.1092,6.1043,6.1801,6.1973,6.2181,6.2732,6.278,6.278,6.278,6.278,6.278,6.278,6.278,6.2755,6.2679,6.2755,6.2755,6.2679,6.2755,6.2755,6.2679,6.2679,6.2255,6.13,6.1272,6.0891,5.9998,5.876,5.8142,5.8072,5.7339,5.6679,5.6156,5.5912,5.6241,0.0,0.0,0.0,5.6934,5.663,5.6799,6.1163,6.1028,6.0452,6.2009,6.2347,6.2584,6.3328,6.2888,6.2415,6.2381,6.3024,6.326,6.2516,6.3057,6.3226,6.2482,6.2381,6.2381,6.2381,6.2381,6.2076,6.1366,6.0554,5.9776,5.9066,5.8287,5.7881,5.7881,5.7881,5.7881,5.7881,5.7881,5.7881,5.7881,5.7881,5.7509,5.6799,5.6799,5.6393,5.5683,5.5614,5.5553,5.5495,5.6187,5.6422,5.6366,5.6984,5.7188,5.7213,5.7486,5.7583,5.7667,5.7904,5.7997,5.8143,5.8927,5.9184,5.9307,6.0018,6.0114,5.9965,5.9874,5.9823,5.9885,6.0037,6.0262,6.0408,6.0286,6.0884,6.1407,6.1407,6.1532,6.1801,6.2482,6.2705,6.278,6.278,6.278,6.278,6.278,6.278,6.278,6.278,6.278,6.278,6.278,6.278,6.278,6.278,6.278,6.278,6.278,6.278,6.2386,6.1443,6.1386,6.095,6.003,5.9246,5.815,5.6735,5.5945,5.5533,5.5464,5.4773,5.4967,4.8842,0.0,0.0,0.0,0.0,0.0,5.6359,5.7239,5.8287,6.0317,6.1197,6.1839,6.2584,6.2956,6.3024,6.2482,6.3024,6.3429,6.3226,6.3396,6.3226,6.2482,6.2381,6.2381,6.2381,6.2381,6.2076,6.1366,6.0554,5.9776,5.9066,5.8287,5.7881,5.7881,5.7881,5.7881,5.7881,5.7881,5.7881,5.7881,5.7881,5.7509,5.6799,5.6258,5.5615,5.4871,5.4363,5.4093,5.4157,5.5792,5.6422,5.6366,5.6984,5.7188,5.7213,5.7388,5.751,5.7607,5.781,5.7927,5.8143,5.8927,5.9184,5.9307,6.0018,6.0114,6.0074,6.0539,6.0659,6.0856,6.166,6.1945,6.202,6.207,6.2102,6.212,6.212,6.2146,6.2296,6.2668,6.2705,6.2679,6.278,6.278,6.278,6.278,6.278,6.278,6.278,6.278,6.278,6.278,6.278,6.278,6.278,6.278,6.278,6.278,6.278,6.2438,6.1576,6.1003,6.0524,6.0121,5.8324,5.7431,5.7495,5.6782,5.5893,5.4873,5.5757,5.6536,4.7433,4.8544,4.9757,5.0794,0.0,0.0,5.5378,5.6156,5.707,5.9573,6.0757,6.1535,6.2245,6.2753,6.299,6.2888,6.2956,6.3159,6.3463,6.3768,6.3802,6.3362,6.3328,6.3193,6.2888,6.2854,6.255,6.1806,6.1028,6.0148,5.9066,5.8287,5.7881,5.7881,5.7881,5.7881,5.7881,5.7881,5.7746,5.7442,5.7746,5.7171,5.5886,5.5784,5.5141,5.4126,5.3687,5.3518,5.3618,5.5313,5.5959,5.5971,5.6845,5.7188,5.7213,5.7412,5.751,5.7607,5.7834,5.795,5.818,5.9355,5.9698,5.9894,6.0896,6.1112,6.1095,6.1412,6.1495,6.1683,6.2417,6.2603,6.2603,6.2629,6.25,6.237,6.2354,6.2328,6.237,6.2578,6.2603,6.2629,6.2705,6.2705,6.2705,6.2629,6.2679,6.2705,6.2705,6.2755,6.278,6.278,6.278,6.2705,6.2438,6.2412,6.2334,6.2023,6.1996,6.1778,6.1236,6.0766,6.0463,6.0344,5.8664,5.7877,5.7947,5.6983,5.6061,5.5315,5.681,5.7556,4.6133,4.7169,4.8885,5.1278,5.0894,0.0,5.5953,5.6156,5.6122,5.893,6.0114,6.0926,6.1738,6.1941,6.2212,6.2787,6.255,6.255,6.3396,6.4072,6.4512,6.458,6.4613,6.4343,6.37,6.3632,6.3328,6.2584,6.167,6.052,5.9099,5.8287,5.7881,5.7881,5.7881,5.7881,5.7881,5.7881,5.7509,5.6799,5.7442,5.6664,5.46,5.5277,5.4837,5.3518,5.3518,5.3518,5.3584,5.4699,5.5208,5.5449,5.6714,5.7188,5.7213,5.7461,5.7583,5.7667,5.7904,5.7997,5.8253,5.9869,6.0419,6.0689,6.2178,6.25,6.237,6.2238,6.2212,6.2265,6.2526,6.2603,6.2552,6.2423,6.2407,6.2354,6.2248,6.2185,6.2248,6.2344,6.2475,6.2578,6.2603,6.2603,6.2552,6.2449,6.2552,6.2629,6.2629,6.2679,6.2705,6.2705,6.2618,6.2386,6.1842,6.1814,6.1528,6.0944,6.0879,6.0855,6.0741,6.0651,6.056,6.0534,5.9644,5.8875,5.8243,5.6812,5.6269,5.6577,5.791,5.8078,4.507,4.5557,4.6454,4.8128,4.8895,0.0,5.1255,5.2334,5.3484,5.5277,5.6292,5.7205,5.8524,5.9268,5.9539,5.9066,6.0419,6.1975,6.3328,6.3632,6.3937,6.4546,6.4613,6.4546,6.441,6.4377,6.4072,6.3362,6.1467,5.9945,5.9066,5.8287,5.7881,5.7881,5.7881,5.7881,5.7881,5.7881,5.7509,5.6799,5.6934,5.6156,5.46,5.4735,5.4329,5.3518,5.3518,5.3518,5.3551,5.4299,5.4918,5.5484,5.6714,5.7188,5.7213,5.7363,5.7486,5.7607,5.7786,5.7904,5.8253,5.9869,6.0419,6.0689,6.2178,6.2578,6.2526,6.2397,6.2344,6.2397,6.2552,6.2526,6.2449,6.2526,6.2397,6.2212,6.2222,6.2185,6.2185,6.2212,6.2344,6.2475,6.2578,6.2603,6.2629,6.2705,6.273,6.2755,6.2755,6.236,6.2059,6.2059,6.1576,6.1236,6.112,6.1091,6.1062,6.0879,6.0879,6.0915,6.0885,6.0215,6.0125,6.0651,5.9709,5.9046,5.8666,5.7497,5.7291,5.8081,5.8353,5.8422,4.4478,4.4692,4.5395,4.6689,4.7659,0.0,0.0,5.1193,5.23,5.4194,5.5209,5.6055,5.7137,5.7949,5.8457,5.8457,5.9708,6.1095,6.2245,6.3362,6.4343,6.5053,6.5459,6.5561,6.5189,6.5155,6.4681,6.3599,6.1772,6.0351,5.9607,5.8863,5.8287,5.7915,5.7881,5.7881,5.7881,5.7881,5.7509,5.6799,5.6799,5.6021,5.46,5.46,5.4194,5.3518,5.3518,5.3518,5.3551,5.4139,5.461,5.5039,5.6248,5.6767,5.6871,5.7,5.7127,5.7227,5.7102,5.7277,5.7765,5.8969,5.9835,6.0615,6.1677,6.226,6.25,6.25,6.2397,6.2344,6.2552,6.2449,6.2291,6.237,6.2291,6.2158,6.2114,6.2168,6.2158,6.2114,6.1942,6.196,6.2423,6.2176,6.1924,6.2005,6.1723,6.1556,6.164,6.1443,6.1358,6.1379,6.1033,6.0676,6.034,6.018,5.9991,5.9706,5.9674,5.9674,5.9674,5.9315,5.9248,5.9613,5.9114,5.884,5.8805,5.8219,5.8219,5.8736,5.8736,5.8736,4.4459,4.4478,4.5232,4.6278,4.7191,4.8295,0.0,0.0,0.0,5.3551,5.4532,5.5243,5.5818,5.6664,5.734,5.7679,5.8693,5.9708,6.0351,6.2347,6.4106,6.5155,6.5933,6.6203,6.573,6.5425,6.485,6.3802,6.2076,6.0791,6.0148,5.9404,5.866,5.7915,5.7881,5.7881,5.7881,5.7881,5.7509,5.6799,5.6799,5.6021,5.46,5.46,5.4194,5.3518,5.3518,5.3518,5.3517,5.4044,5.4235,5.4362,5.5658,5.6221,5.633,5.6519,5.6652,5.6704,5.6412,5.6652,5.7261,5.8202,5.96,6.0946,6.1519,6.2015,6.2449,6.2526,6.2397,6.2265,6.2475,6.237,6.2185,6.2185,6.2185,6.2132,6.2033,6.1996,6.1969,6.1832,6.1336,6.1214,6.2014,6.1536,6.101,6.1039,6.0585,6.0313,6.0468,6.0463,6.0494,6.058,6.0432,6.0027,5.948,5.9314,5.9012,5.8525,5.849,5.8525,5.8561,5.8596,5.8596,5.8596,5.8561,5.8631,5.884,5.8806,5.8875,5.9012,5.9012,5.8909,4.5495,4.5311,4.5776,4.6871,4.7822,4.863,4.9117,0.0,5.1252,5.1523,0.0,5.2706,5.2807,0.0,0.0,5.3281,5.5378,5.7205,5.7306,5.9235,6.14,6.3497,6.441,6.5087,6.5628,6.4512,6.3971,6.4444,6.1839,6.0216,6.0114,5.9404,5.866,5.7915,5.7881,5.7881,5.7881,5.7881,5.7509,5.6799,5.6799,5.6021,5.46,5.46,5.4194,5.3518,5.3518,5.3518,5.3518,5.3551,5.3618,5.3717,5.5129,5.5687,5.5744,5.6063,5.6174,5.6201,5.6248,5.6652,5.7369,5.8953,6.0839,6.2523,6.2633,6.2606,6.2552,6.2449,6.2397,6.2381,6.2265,6.2212,6.2185,6.2185,6.2185,6.2132,6.2033,6.1628,6.1279,6.1133,6.056,6.0406,6.1185,6.0772,6.034,6.0494,6.0432,6.0401,6.0432,5.9931,5.9543,5.9576,5.908,5.8736,5.8632,5.8597,5.8562,5.849,5.849,5.8561,5.8736,5.8909,5.8944,5.8944,5.884,5.884,5.8978,5.884,5.8875,5.9012,5.9012,5.8978,4.5663,4.5657,4.6056,4.6296,4.7035,4.7622,4.7499,4.8759,5.0058,5.046,0.0,0.0,0.0,0.0,0.0,0.0,5.4769,5.6156,5.6156,5.7712,5.9674,6.1975,6.2516,6.2956,6.37,6.3226,6.3159,6.3903,6.2009,6.0588,6.0114,5.981,5.9099,5.7915,5.7881,5.7881,5.7881,5.7881,5.7746,5.7442,5.7002,5.6258,5.5243,5.4803,5.4194,5.3518,5.3518,5.3518,5.3518,5.3518,5.3518,5.3551,5.4235,5.4765,5.5219,5.549,5.5607,5.5665,5.5373,5.5629,5.6498,5.8852,6.073,6.2181,6.2658,6.2705,6.2603,6.2526,6.2449,6.2407,6.2318,6.2238,6.2105,6.174,6.1536,6.1365,6.0927,6.0651,6.0498,6.0437,6.0188,5.9966,5.9899,5.9641,5.9511,5.9639,5.9246,5.9011,5.9113,5.8875,5.8737,5.8875,5.8562,5.8348,5.8348,5.8241,5.8135,5.8135,5.8277,5.8419,5.8631,5.8701,5.8771,5.8875,5.8806,5.8875,5.9012,5.8944,5.8944,5.9012,5.9012,5.8944,4.6514,4.6653,4.7068,4.6204,4.6708,4.7303,4.6829,4.8064,4.9591,5.052,5.1464,0.0,0.0,0.0,5.3281,5.3484,0.0,5.5412,5.5412,5.6325,5.7814,6.008,6.0926,6.1501,6.2042,6.1907,6.2076,6.2854,6.1535,6.0419,5.9844,5.981,5.9235,5.7915,5.7881,5.7881,5.7881,5.7881,5.7881,5.7881,5.734,5.663,5.5647,5.5141,5.4397,5.3518,5.3518,5.3518,5.3518,5.3518,5.3517,5.3584,5.3717,5.4173,5.4707,5.4896,5.5048,5.5074,5.4652,5.5174,5.6453,5.886,6.0429,6.1532,6.2089,6.2219,6.2112,6.2086,6.2014,6.1933,6.1878,6.1768,6.1536,6.1039,6.0831,6.059,6.0093,5.9838,5.9709,5.9709,5.9709,5.948,5.8737,5.8772,5.884,5.8772,5.8281,5.7954,5.8099,5.8099,5.8171,5.8348,5.8171,5.8099,5.8099,5.7991,5.7918,5.7954,5.8171,5.8384,5.8561,5.8631,5.8701,5.884,5.884,5.8909,5.9012,5.9012,5.9012,5.9012,5.9012,5.8944,4.8625,4.8943,4.9223,4.7172,4.7612,4.8381,4.7605,4.8807,5.0486,5.1943,5.344,5.4499,5.4499,5.5108,5.5141,5.3721,5.4126,0.0,0.0,5.4668,5.5513,5.7746,5.9945,6.1332,6.1332,6.0622,6.052,6.1332,5.9945,5.9066,5.9066,5.9066,5.8693,5.7915,5.7881,5.7881,5.7881,5.7881,5.7881,5.7881,5.7881,5.7103,5.5681,5.5683,5.4871,5.3518,5.3518,5.3518,5.3518,5.3518,5.3584,5.3717,5.3915,5.4078,5.4239,5.4239,5.4367,5.4526,5.4529,5.5869,5.7842,5.9248,6.0266,6.0938,6.0938,6.0938,6.0944,6.0802,6.0741,6.0711,6.0595,6.0406,6.0246,6.0215,6.0125,6.003,5.9998,5.9447,5.8943,5.8943,5.8943,5.8703,5.8063,5.8493,5.8668,5.8063,5.7918,5.7881,5.7918,5.7918,5.7918,5.7918,5.7918,5.7918,5.7918,5.7881,5.7991,5.8205,5.8384,5.8561,5.8771,5.8944,5.8978,5.8978,5.8978,5.9012,5.9012,5.9012,5.9012,5.9012,5.9012,5.8944,5.1142,5.0886,5.0365,4.9426,4.9426,4.9284,4.7832,4.9116,5.0746,5.1451,5.2729,5.3939,5.4463,5.4803,5.4803,5.4296,5.4431,5.46,0.0,5.46,5.504,5.6292,5.7983,5.8863,5.8389,5.8964,5.9505,5.9776,5.9302,5.9032,5.9032,5.9032,5.866,5.7915,5.7881,5.7881,5.7881,5.7881,5.7881,5.7881,5.7408,5.6664,5.5647,5.5209,5.4431,5.3518,5.3518,5.3518,5.3518,5.3518,5.3517,5.3584,5.375,5.3915,5.4078,5.4303,5.4431,5.4563,5.5081,5.6286,5.7886,5.8844,5.9982,6.0879,6.0879,6.0826,6.0772,6.0711,6.0711,6.0681,6.062,6.059,6.0406,5.9803,5.9578,5.9314,5.8737,5.8388,5.8352,5.8806,5.9279,5.9578,5.9314,5.948,5.9247,5.8065,5.828,5.8388,5.7954,5.7881,5.7881,5.7881,5.7881,5.7881,5.7881,5.8027,5.8171,5.8384,5.8596,5.8771,5.8944,5.8978,5.9012,5.9012,5.9012,5.9012,5.9012,5.9012,5.9012,5.9012,5.8909,5.8771,5.2884,5.272,5.2198,5.1151,5.0897,5.058,4.9374,5.0442,5.1912,5.2627,5.3923,5.5113,5.568,5.575,5.5683,5.5412,5.5141,5.4803,0.0,5.4431,5.4871,5.5615,5.6765,5.7543,5.7577,5.7983,5.8457,5.8964,5.8524,5.8355,5.8592,5.8626,5.8389,5.7915,5.7881,5.7881,5.7881,5.7881,5.7881,5.7881,5.7137,5.6427,5.5683,5.4938,5.4194,5.3518,5.3518,5.3518,5.3518,5.3518,5.3517,5.3584,5.375,5.3915,5.411,5.4303,5.4603,5.5012,5.577,5.6787,5.7901,5.8704,5.9517,6.0215,6.0215,6.0188,6.0129,6.0129,6.0129,6.0129,6.0129,6.0065,5.9873,5.9214,5.918,5.9113,5.8458,5.8388,5.8563,5.8875,5.9346,5.9611,5.9281,5.9676,5.9611,5.8423,5.8423,5.8388,5.7954,5.7881,5.7881,5.7881,5.7954,5.8027,5.8099,5.8241,5.8384,5.8596,5.8701,5.8875,5.8978,5.9012,5.9012,5.9012,5.9012,5.9012,5.9012,5.8944,5.8944,5.9012,5.8806,5.8631]}]]